<?xml version="1.0" encoding="UTF-8" standalone="no" ?>
<gpx xmlns="http://www.topografix.com/GPX/1/1" xmlns:xsi="http://www.w3.org/2001/XMLSchema-instance" xsi:schemaLocation="http://www.topografix.com/GPX/1/1 http://www.topografix.com/GPX/1/1/gpx.xsd" version="1.1" creator="VisuGPX - https://www.visugpx.com">
  <metadata>
    <name>Randonnée Darnétal</name>
    <desc><![CDATA[Circuit au départ du supermarché Lidl de Darnétal avec un retour par l'église St Maclou de Rouen]]></desc>
  </metadata>
  <trk>
    <name><![CDATA[Randonnée Darnétal_1]]></name>
    <trkseg>
      <trkpt lat="49.43909" lon="1.1287">
        <ele>14</ele>
        <time>2017-12-19T11:48:58Z</time>
      </trkpt>
      <trkpt lat="49.43909" lon="1.1287">
        <ele>14</ele>
        <time>2017-12-19T11:48:58Z</time>
      </trkpt>
      <trkpt lat="49.4391" lon="1.12865">
        <ele>14</ele>
        <time>2017-12-19T11:48:58Z</time>
      </trkpt>
      <trkpt lat="49.43913" lon="1.12859">
        <ele>14</ele>
        <time>2017-12-19T11:48:58Z</time>
      </trkpt>
      <trkpt lat="49.43918" lon="1.1286">
        <ele>14</ele>
        <time>2017-12-19T11:48:59Z</time>
      </trkpt>
      <trkpt lat="49.43923" lon="1.12861">
        <ele>14</ele>
        <time>2017-12-19T11:49:14Z</time>
      </trkpt>
      <trkpt lat="49.43928" lon="1.12863">
        <ele>14</ele>
        <time>2017-12-19T11:49:14Z</time>
      </trkpt>
      <trkpt lat="49.43933" lon="1.12864">
        <ele>14</ele>
        <time>2017-12-19T11:49:14Z</time>
      </trkpt>
      <trkpt lat="49.43938" lon="1.12865">
        <ele>14</ele>
        <time>2017-12-19T11:49:15Z</time>
      </trkpt>
      <trkpt lat="49.43943" lon="1.12862">
        <ele>14</ele>
        <time>2017-12-19T11:49:30Z</time>
      </trkpt>
      <trkpt lat="49.43946" lon="1.12857">
        <ele>14</ele>
        <time>2017-12-19T11:49:30Z</time>
      </trkpt>
      <trkpt lat="49.43949" lon="1.12853">
        <ele>14</ele>
        <time>2017-12-19T11:49:31Z</time>
      </trkpt>
      <trkpt lat="49.43954" lon="1.12851">
        <ele>14</ele>
        <time>2017-12-19T11:49:31Z</time>
      </trkpt>
      <trkpt lat="49.43959" lon="1.12849">
        <ele>20</ele>
        <time>2017-12-19T11:49:46Z</time>
      </trkpt>
      <trkpt lat="49.43964" lon="1.12847">
        <ele>20</ele>
        <time>2017-12-19T11:49:46Z</time>
      </trkpt>
      <trkpt lat="49.43967" lon="1.12842">
        <ele>20</ele>
        <time>2017-12-19T11:49:47Z</time>
      </trkpt>
      <trkpt lat="49.43969" lon="1.12835">
        <ele>20</ele>
        <time>2017-12-19T11:49:47Z</time>
      </trkpt>
      <trkpt lat="49.43971" lon="1.12824">
        <ele>20</ele>
        <time>2017-12-19T11:50:38Z</time>
      </trkpt>
      <trkpt lat="49.43971" lon="1.12822">
        <ele>20</ele>
        <time>2017-12-19T11:50:38Z</time>
      </trkpt>
      <trkpt lat="49.4397" lon="1.12819">
        <ele>20</ele>
        <time>2017-12-19T11:50:39Z</time>
      </trkpt>
      <trkpt lat="49.43968" lon="1.12814">
        <ele>20</ele>
        <time>2017-12-19T11:50:39Z</time>
      </trkpt>
      <trkpt lat="49.43965" lon="1.12809">
        <ele>20</ele>
        <time>2017-12-19T11:50:39Z</time>
      </trkpt>
      <trkpt lat="49.43962" lon="1.12804">
        <ele>20</ele>
        <time>2017-12-19T11:50:54Z</time>
      </trkpt>
      <trkpt lat="49.43958" lon="1.12801">
        <ele>20</ele>
        <time>2017-12-19T11:50:54Z</time>
      </trkpt>
      <trkpt lat="49.43956" lon="1.128">
        <ele>14</ele>
        <time>2017-12-19T11:50:55Z</time>
      </trkpt>
      <trkpt lat="49.43952" lon="1.12799">
        <ele>14</ele>
        <time>2017-12-19T11:50:55Z</time>
      </trkpt>
      <trkpt lat="49.43947" lon="1.12796">
        <ele>14</ele>
        <time>2017-12-19T11:51:10Z</time>
      </trkpt>
      <trkpt lat="49.43942" lon="1.12792">
        <ele>14</ele>
        <time>2017-12-19T11:51:10Z</time>
      </trkpt>
      <trkpt lat="49.43937" lon="1.1279">
        <ele>13</ele>
        <time>2017-12-19T11:51:11Z</time>
      </trkpt>
      <trkpt lat="49.43933" lon="1.12786">
        <ele>13</ele>
        <time>2017-12-19T11:51:11Z</time>
      </trkpt>
      <trkpt lat="49.43927" lon="1.12783">
        <ele>13</ele>
        <time>2017-12-19T11:51:26Z</time>
      </trkpt>
      <trkpt lat="49.43922" lon="1.12779">
        <ele>13</ele>
        <time>2017-12-19T11:51:26Z</time>
      </trkpt>
      <trkpt lat="49.4392" lon="1.12777">
        <ele>13</ele>
        <time>2017-12-19T11:51:27Z</time>
      </trkpt>
      <trkpt lat="49.43917" lon="1.12775">
        <ele>13</ele>
        <time>2017-12-19T11:51:27Z</time>
      </trkpt>
      <trkpt lat="49.43912" lon="1.12775">
        <ele>13</ele>
        <time>2017-12-19T11:51:42Z</time>
      </trkpt>
      <trkpt lat="49.43908" lon="1.12773">
        <ele>13</ele>
        <time>2017-12-19T11:51:42Z</time>
      </trkpt>
      <trkpt lat="49.43902" lon="1.12769">
        <ele>13</ele>
        <time>2017-12-19T11:51:43Z</time>
      </trkpt>
      <trkpt lat="49.43898" lon="1.12771">
        <ele>13</ele>
        <time>2017-12-19T11:51:43Z</time>
      </trkpt>
      <trkpt lat="49.43896" lon="1.12778">
        <ele>13</ele>
        <time>2017-12-19T11:51:58Z</time>
      </trkpt>
      <trkpt lat="49.43892" lon="1.12785">
        <ele>13</ele>
        <time>2017-12-19T11:51:58Z</time>
      </trkpt>
      <trkpt lat="49.43889" lon="1.12792">
        <ele>14</ele>
        <time>2017-12-19T11:51:59Z</time>
      </trkpt>
      <trkpt lat="49.43886" lon="1.128">
        <ele>14</ele>
        <time>2017-12-19T11:51:59Z</time>
      </trkpt>
      <trkpt lat="49.43883" lon="1.12808">
        <ele>14</ele>
        <time>2017-12-19T11:52:14Z</time>
      </trkpt>
      <trkpt lat="49.43881" lon="1.12815">
        <ele>14</ele>
        <time>2017-12-19T11:52:14Z</time>
      </trkpt>
      <trkpt lat="49.43879" lon="1.12821">
        <ele>14</ele>
        <time>2017-12-19T11:52:15Z</time>
      </trkpt>
      <trkpt lat="49.43877" lon="1.12827">
        <ele>14</ele>
        <time>2017-12-19T11:52:15Z</time>
      </trkpt>
      <trkpt lat="49.43875" lon="1.12833">
        <ele>14</ele>
        <time>2017-12-19T11:52:30Z</time>
      </trkpt>
      <trkpt lat="49.43874" lon="1.1284">
        <ele>13</ele>
        <time>2017-12-19T11:52:30Z</time>
      </trkpt>
      <trkpt lat="49.43876" lon="1.12847">
        <ele>14</ele>
        <time>2017-12-19T11:52:31Z</time>
      </trkpt>
      <trkpt lat="49.43878" lon="1.12853">
        <ele>14</ele>
        <time>2017-12-19T11:52:31Z</time>
      </trkpt>
      <trkpt lat="49.4388" lon="1.1286">
        <ele>14</ele>
        <time>2017-12-19T11:52:46Z</time>
      </trkpt>
      <trkpt lat="49.43881" lon="1.12866">
        <ele>14</ele>
        <time>2017-12-19T11:52:46Z</time>
      </trkpt>
      <trkpt lat="49.43883" lon="1.12874">
        <ele>14</ele>
        <time>2017-12-19T11:52:47Z</time>
      </trkpt>
      <trkpt lat="49.43885" lon="1.12881">
        <ele>15</ele>
        <time>2017-12-19T11:52:47Z</time>
      </trkpt>
      <trkpt lat="49.43888" lon="1.12889">
        <ele>15</ele>
        <time>2017-12-19T11:53:02Z</time>
      </trkpt>
      <trkpt lat="49.43889" lon="1.12896">
        <ele>15</ele>
        <time>2017-12-19T11:53:02Z</time>
      </trkpt>
      <trkpt lat="49.43892" lon="1.12904">
        <ele>15</ele>
        <time>2017-12-19T11:53:03Z</time>
      </trkpt>
      <trkpt lat="49.43895" lon="1.1291">
        <ele>15</ele>
        <time>2017-12-19T11:53:03Z</time>
      </trkpt>
      <trkpt lat="49.43898" lon="1.12916">
        <ele>15</ele>
        <time>2017-12-19T11:53:18Z</time>
      </trkpt>
      <trkpt lat="49.43902" lon="1.12919">
        <ele>15</ele>
        <time>2017-12-19T11:53:18Z</time>
      </trkpt>
      <trkpt lat="49.43905" lon="1.12923">
        <ele>15</ele>
        <time>2017-12-19T11:53:18Z</time>
      </trkpt>
      <trkpt lat="49.4391" lon="1.12926">
        <ele>15</ele>
        <time>2017-12-19T11:53:18Z</time>
      </trkpt>
      <trkpt lat="49.43914" lon="1.1293">
        <ele>15</ele>
        <time>2017-12-19T11:53:34Z</time>
      </trkpt>
      <trkpt lat="49.43917" lon="1.12934">
        <ele>15</ele>
        <time>2017-12-19T11:53:35Z</time>
      </trkpt>
      <trkpt lat="49.43921" lon="1.1294">
        <ele>15</ele>
        <time>2017-12-19T11:53:35Z</time>
      </trkpt>
      <trkpt lat="49.43924" lon="1.12945">
        <ele>15</ele>
        <time>2017-12-19T11:53:35Z</time>
      </trkpt>
      <trkpt lat="49.43935" lon="1.12957">
        <ele>15</ele>
        <time>2017-12-19T11:54:34Z</time>
      </trkpt>
      <trkpt lat="49.43935" lon="1.12957">
        <ele>15</ele>
        <time>2017-12-19T11:54:35Z</time>
      </trkpt>
      <trkpt lat="49.43935" lon="1.12957">
        <ele>15</ele>
        <time>2017-12-19T11:54:35Z</time>
      </trkpt>
      <trkpt lat="49.43935" lon="1.12957">
        <ele>15</ele>
        <time>2017-12-19T11:54:35Z</time>
      </trkpt>
      <trkpt lat="49.43936" lon="1.12957">
        <ele>15</ele>
        <time>2017-12-19T11:54:35Z</time>
      </trkpt>
      <trkpt lat="49.43937" lon="1.12958">
        <ele>15</ele>
        <time>2017-12-19T11:54:50Z</time>
      </trkpt>
      <trkpt lat="49.4394" lon="1.12962">
        <ele>16</ele>
        <time>2017-12-19T11:54:50Z</time>
      </trkpt>
      <trkpt lat="49.43942" lon="1.12967">
        <ele>16</ele>
        <time>2017-12-19T11:54:51Z</time>
      </trkpt>
      <trkpt lat="49.43943" lon="1.12973">
        <ele>16</ele>
        <time>2017-12-19T11:54:51Z</time>
      </trkpt>
      <trkpt lat="49.43945" lon="1.12978">
        <ele>16</ele>
        <time>2017-12-19T11:55:06Z</time>
      </trkpt>
      <trkpt lat="49.43947" lon="1.12984">
        <ele>16</ele>
        <time>2017-12-19T11:55:06Z</time>
      </trkpt>
      <trkpt lat="49.43949" lon="1.12991">
        <ele>16</ele>
        <time>2017-12-19T11:55:07Z</time>
      </trkpt>
      <trkpt lat="49.4395" lon="1.12998">
        <ele>16</ele>
        <time>2017-12-19T11:55:07Z</time>
      </trkpt>
      <trkpt lat="49.4395" lon="1.13006">
        <ele>16</ele>
        <time>2017-12-19T11:55:22Z</time>
      </trkpt>
      <trkpt lat="49.4395" lon="1.13014">
        <ele>16</ele>
        <time>2017-12-19T11:55:22Z</time>
      </trkpt>
      <trkpt lat="49.4395" lon="1.13022">
        <ele>16</ele>
        <time>2017-12-19T11:55:23Z</time>
      </trkpt>
      <trkpt lat="49.4395" lon="1.13031">
        <ele>16</ele>
        <time>2017-12-19T11:55:23Z</time>
      </trkpt>
      <trkpt lat="49.4395" lon="1.13039">
        <ele>16</ele>
        <time>2017-12-19T11:55:38Z</time>
      </trkpt>
      <trkpt lat="49.4395" lon="1.13047">
        <ele>19</ele>
        <time>2017-12-19T11:55:38Z</time>
      </trkpt>
      <trkpt lat="49.43951" lon="1.13055">
        <ele>19</ele>
        <time>2017-12-19T11:55:39Z</time>
      </trkpt>
      <trkpt lat="49.43951" lon="1.13063">
        <ele>19</ele>
        <time>2017-12-19T11:55:39Z</time>
      </trkpt>
      <trkpt lat="49.43951" lon="1.1307">
        <ele>19</ele>
        <time>2017-12-19T11:55:54Z</time>
      </trkpt>
      <trkpt lat="49.43951" lon="1.13078">
        <ele>19</ele>
        <time>2017-12-19T11:55:54Z</time>
      </trkpt>
      <trkpt lat="49.4395" lon="1.13086">
        <ele>19</ele>
        <time>2017-12-19T11:55:55Z</time>
      </trkpt>
      <trkpt lat="49.43949" lon="1.13093">
        <ele>19</ele>
        <time>2017-12-19T11:55:55Z</time>
      </trkpt>
      <trkpt lat="49.43948" lon="1.131">
        <ele>19</ele>
        <time>2017-12-19T11:56:10Z</time>
      </trkpt>
      <trkpt lat="49.43947" lon="1.13108">
        <ele>19</ele>
        <time>2017-12-19T11:56:10Z</time>
      </trkpt>
      <trkpt lat="49.43946" lon="1.13114">
        <ele>19</ele>
        <time>2017-12-19T11:56:11Z</time>
      </trkpt>
      <trkpt lat="49.43945" lon="1.13122">
        <ele>19</ele>
        <time>2017-12-19T11:56:11Z</time>
      </trkpt>
      <trkpt lat="49.43943" lon="1.13129">
        <ele>18</ele>
        <time>2017-12-19T11:56:26Z</time>
      </trkpt>
      <trkpt lat="49.43942" lon="1.13136">
        <ele>18</ele>
        <time>2017-12-19T11:56:26Z</time>
      </trkpt>
      <trkpt lat="49.4394" lon="1.13143">
        <ele>18</ele>
        <time>2017-12-19T11:56:27Z</time>
      </trkpt>
      <trkpt lat="49.43937" lon="1.1315">
        <ele>18</ele>
        <time>2017-12-19T11:56:27Z</time>
      </trkpt>
      <trkpt lat="49.43934" lon="1.13157">
        <ele>18</ele>
        <time>2017-12-19T11:56:42Z</time>
      </trkpt>
      <trkpt lat="49.43932" lon="1.13164">
        <ele>18</ele>
        <time>2017-12-19T11:56:42Z</time>
      </trkpt>
      <trkpt lat="49.43929" lon="1.13171">
        <ele>18</ele>
        <time>2017-12-19T11:56:42Z</time>
      </trkpt>
      <trkpt lat="49.43926" lon="1.13179">
        <ele>18</ele>
        <time>2017-12-19T11:56:42Z</time>
      </trkpt>
      <trkpt lat="49.43924" lon="1.13186">
        <ele>18</ele>
        <time>2017-12-19T11:56:58Z</time>
      </trkpt>
      <trkpt lat="49.43921" lon="1.13192">
        <ele>18</ele>
        <time>2017-12-19T11:56:58Z</time>
      </trkpt>
      <trkpt lat="49.43919" lon="1.13198">
        <ele>18</ele>
        <time>2017-12-19T11:56:59Z</time>
      </trkpt>
      <trkpt lat="49.43916" lon="1.13203">
        <ele>18</ele>
        <time>2017-12-19T11:56:59Z</time>
      </trkpt>
      <trkpt lat="49.43914" lon="1.13208">
        <ele>18</ele>
        <time>2017-12-19T11:57:14Z</time>
      </trkpt>
      <trkpt lat="49.43911" lon="1.13213">
        <ele>18</ele>
        <time>2017-12-19T11:57:14Z</time>
      </trkpt>
      <trkpt lat="49.43909" lon="1.13219">
        <ele>18</ele>
        <time>2017-12-19T11:57:15Z</time>
      </trkpt>
      <trkpt lat="49.43906" lon="1.13224">
        <ele>18</ele>
        <time>2017-12-19T11:57:15Z</time>
      </trkpt>
      <trkpt lat="49.43904" lon="1.13229">
        <ele>18</ele>
        <time>2017-12-19T11:57:30Z</time>
      </trkpt>
      <trkpt lat="49.43902" lon="1.13236">
        <ele>18</ele>
        <time>2017-12-19T11:57:30Z</time>
      </trkpt>
      <trkpt lat="49.43899" lon="1.13244">
        <ele>18</ele>
        <time>2017-12-19T11:57:31Z</time>
      </trkpt>
      <trkpt lat="49.43896" lon="1.13251">
        <ele>18</ele>
        <time>2017-12-19T11:57:31Z</time>
      </trkpt>
      <trkpt lat="49.43893" lon="1.13257">
        <ele>18</ele>
        <time>2017-12-19T11:57:46Z</time>
      </trkpt>
      <trkpt lat="49.43891" lon="1.13264">
        <ele>18</ele>
        <time>2017-12-19T11:57:46Z</time>
      </trkpt>
      <trkpt lat="49.43888" lon="1.13271">
        <ele>18</ele>
        <time>2017-12-19T11:57:47Z</time>
      </trkpt>
      <trkpt lat="49.43886" lon="1.13279">
        <ele>18</ele>
        <time>2017-12-19T11:57:47Z</time>
      </trkpt>
      <trkpt lat="49.43884" lon="1.13287">
        <ele>18</ele>
        <time>2017-12-19T11:58:02Z</time>
      </trkpt>
      <trkpt lat="49.43881" lon="1.13294">
        <ele>23</ele>
        <time>2017-12-19T11:58:02Z</time>
      </trkpt>
      <trkpt lat="49.43879" lon="1.13301">
        <ele>23</ele>
        <time>2017-12-19T11:58:03Z</time>
      </trkpt>
      <trkpt lat="49.43877" lon="1.13309">
        <ele>23</ele>
        <time>2017-12-19T11:58:03Z</time>
      </trkpt>
      <trkpt lat="49.43875" lon="1.13315">
        <ele>15</ele>
        <time>2017-12-19T11:58:18Z</time>
      </trkpt>
      <trkpt lat="49.43873" lon="1.13323">
        <ele>15</ele>
        <time>2017-12-19T11:58:18Z</time>
      </trkpt>
      <trkpt lat="49.43871" lon="1.13329">
        <ele>15</ele>
        <time>2017-12-19T11:58:19Z</time>
      </trkpt>
      <trkpt lat="49.43869" lon="1.13336">
        <ele>15</ele>
        <time>2017-12-19T11:58:19Z</time>
      </trkpt>
      <trkpt lat="49.43868" lon="1.13344">
        <ele>15</ele>
        <time>2017-12-19T11:58:34Z</time>
      </trkpt>
      <trkpt lat="49.43866" lon="1.13351">
        <ele>15</ele>
        <time>2017-12-19T11:58:34Z</time>
      </trkpt>
      <trkpt lat="49.43864" lon="1.13358">
        <ele>15</ele>
        <time>2017-12-19T11:58:35Z</time>
      </trkpt>
      <trkpt lat="49.43862" lon="1.13364">
        <ele>15</ele>
        <time>2017-12-19T11:58:35Z</time>
      </trkpt>
      <trkpt lat="49.43859" lon="1.13371">
        <ele>15</ele>
        <time>2017-12-19T11:58:50Z</time>
      </trkpt>
      <trkpt lat="49.43856" lon="1.13379">
        <ele>16</ele>
        <time>2017-12-19T11:58:50Z</time>
      </trkpt>
      <trkpt lat="49.43854" lon="1.13386">
        <ele>16</ele>
        <time>2017-12-19T11:58:51Z</time>
      </trkpt>
      <trkpt lat="49.43851" lon="1.13393">
        <ele>16</ele>
        <time>2017-12-19T11:58:51Z</time>
      </trkpt>
      <trkpt lat="49.43849" lon="1.13407">
        <ele>16</ele>
        <time>2017-12-19T11:59:26Z</time>
      </trkpt>
      <trkpt lat="49.43852" lon="1.13412">
        <ele>16</ele>
        <time>2017-12-19T11:59:26Z</time>
      </trkpt>
      <trkpt lat="49.43851" lon="1.13419">
        <ele>16</ele>
        <time>2017-12-19T11:59:27Z</time>
      </trkpt>
      <trkpt lat="49.4385" lon="1.13426">
        <ele>16</ele>
        <time>2017-12-19T11:59:27Z</time>
      </trkpt>
      <trkpt lat="49.43848" lon="1.13434">
        <ele>16</ele>
        <time>2017-12-19T11:59:27Z</time>
      </trkpt>
      <trkpt lat="49.43846" lon="1.13441">
        <ele>16</ele>
        <time>2017-12-19T11:59:42Z</time>
      </trkpt>
      <trkpt lat="49.43845" lon="1.13448">
        <ele>16</ele>
        <time>2017-12-19T11:59:42Z</time>
      </trkpt>
      <trkpt lat="49.43843" lon="1.13455">
        <ele>16</ele>
        <time>2017-12-19T11:59:43Z</time>
      </trkpt>
      <trkpt lat="49.43842" lon="1.13462">
        <ele>18</ele>
        <time>2017-12-19T11:59:43Z</time>
      </trkpt>
      <trkpt lat="49.4384" lon="1.13469">
        <ele>18</ele>
        <time>2017-12-19T11:59:58Z</time>
      </trkpt>
      <trkpt lat="49.43837" lon="1.13476">
        <ele>18</ele>
        <time>2017-12-19T11:59:58Z</time>
      </trkpt>
      <trkpt lat="49.43834" lon="1.13482">
        <ele>18</ele>
        <time>2017-12-19T11:59:59Z</time>
      </trkpt>
      <trkpt lat="49.4383" lon="1.13487">
        <ele>18</ele>
        <time>2017-12-19T11:59:59Z</time>
      </trkpt>
      <trkpt lat="49.43826" lon="1.13493">
        <ele>18</ele>
        <time>2017-12-19T12:00:14Z</time>
      </trkpt>
      <trkpt lat="49.43823" lon="1.13497">
        <ele>18</ele>
        <time>2017-12-19T12:00:14Z</time>
      </trkpt>
      <trkpt lat="49.4382" lon="1.13503">
        <ele>18</ele>
        <time>2017-12-19T12:00:15Z</time>
      </trkpt>
      <trkpt lat="49.43817" lon="1.13508">
        <ele>18</ele>
        <time>2017-12-19T12:00:15Z</time>
      </trkpt>
      <trkpt lat="49.43814" lon="1.13513">
        <ele>18</ele>
        <time>2017-12-19T12:00:30Z</time>
      </trkpt>
      <trkpt lat="49.43811" lon="1.13518">
        <ele>18</ele>
        <time>2017-12-19T12:00:30Z</time>
      </trkpt>
      <trkpt lat="49.43808" lon="1.13524">
        <ele>18</ele>
        <time>2017-12-19T12:00:30Z</time>
      </trkpt>
      <trkpt lat="49.43805" lon="1.13531">
        <ele>18</ele>
        <time>2017-12-19T12:00:31Z</time>
      </trkpt>
      <trkpt lat="49.43803" lon="1.13538">
        <ele>18</ele>
        <time>2017-12-19T12:00:46Z</time>
      </trkpt>
      <trkpt lat="49.438" lon="1.13545">
        <ele>23</ele>
        <time>2017-12-19T12:00:46Z</time>
      </trkpt>
      <trkpt lat="49.43798" lon="1.13553">
        <ele>23</ele>
        <time>2017-12-19T12:00:46Z</time>
      </trkpt>
      <trkpt lat="49.43796" lon="1.13559">
        <ele>23</ele>
        <time>2017-12-19T12:00:47Z</time>
      </trkpt>
      <trkpt lat="49.43795" lon="1.13567">
        <ele>23</ele>
        <time>2017-12-19T12:01:02Z</time>
      </trkpt>
      <trkpt lat="49.43794" lon="1.13576">
        <ele>23</ele>
        <time>2017-12-19T12:01:02Z</time>
      </trkpt>
      <trkpt lat="49.43791" lon="1.13583">
        <ele>16</ele>
        <time>2017-12-19T12:01:02Z</time>
      </trkpt>
      <trkpt lat="49.43789" lon="1.1359">
        <ele>16</ele>
        <time>2017-12-19T12:01:03Z</time>
      </trkpt>
      <trkpt lat="49.43788" lon="1.13598">
        <ele>16</ele>
        <time>2017-12-19T12:01:18Z</time>
      </trkpt>
      <trkpt lat="49.43786" lon="1.13606">
        <ele>16</ele>
        <time>2017-12-19T12:01:18Z</time>
      </trkpt>
      <trkpt lat="49.43784" lon="1.13613">
        <ele>16</ele>
        <time>2017-12-19T12:01:18Z</time>
      </trkpt>
      <trkpt lat="49.43782" lon="1.13621">
        <ele>16</ele>
        <time>2017-12-19T12:01:19Z</time>
      </trkpt>
      <trkpt lat="49.4378" lon="1.13627">
        <ele>17</ele>
        <time>2017-12-19T12:01:34Z</time>
      </trkpt>
      <trkpt lat="49.43779" lon="1.13634">
        <ele>17</ele>
        <time>2017-12-19T12:01:34Z</time>
      </trkpt>
      <trkpt lat="49.43778" lon="1.13642">
        <ele>17</ele>
        <time>2017-12-19T12:01:35Z</time>
      </trkpt>
      <trkpt lat="49.43777" lon="1.13649">
        <ele>17</ele>
        <time>2017-12-19T12:01:35Z</time>
      </trkpt>
      <trkpt lat="49.43775" lon="1.13657">
        <ele>17</ele>
        <time>2017-12-19T12:01:50Z</time>
      </trkpt>
      <trkpt lat="49.43774" lon="1.13665">
        <ele>17</ele>
        <time>2017-12-19T12:01:50Z</time>
      </trkpt>
      <trkpt lat="49.43772" lon="1.13671">
        <ele>17</ele>
        <time>2017-12-19T12:01:51Z</time>
      </trkpt>
      <trkpt lat="49.43771" lon="1.13679">
        <ele>17</ele>
        <time>2017-12-19T12:01:51Z</time>
      </trkpt>
      <trkpt lat="49.43769" lon="1.13686">
        <ele>17</ele>
        <time>2017-12-19T12:02:06Z</time>
      </trkpt>
      <trkpt lat="49.43768" lon="1.13694">
        <ele>17</ele>
        <time>2017-12-19T12:02:07Z</time>
      </trkpt>
      <trkpt lat="49.43766" lon="1.13701">
        <ele>17</ele>
        <time>2017-12-19T12:02:07Z</time>
      </trkpt>
      <trkpt lat="49.43765" lon="1.13708">
        <ele>17</ele>
        <time>2017-12-19T12:02:07Z</time>
      </trkpt>
      <trkpt lat="49.43763" lon="1.13715">
        <ele>18</ele>
        <time>2017-12-19T12:02:22Z</time>
      </trkpt>
      <trkpt lat="49.43762" lon="1.13722">
        <ele>18</ele>
        <time>2017-12-19T12:02:22Z</time>
      </trkpt>
      <trkpt lat="49.4376" lon="1.13729">
        <ele>18</ele>
        <time>2017-12-19T12:02:23Z</time>
      </trkpt>
      <trkpt lat="49.43757" lon="1.13736">
        <ele>18</ele>
        <time>2017-12-19T12:02:23Z</time>
      </trkpt>
      <trkpt lat="49.43755" lon="1.13744">
        <ele>18</ele>
        <time>2017-12-19T12:02:38Z</time>
      </trkpt>
      <trkpt lat="49.43754" lon="1.13751">
        <ele>18</ele>
        <time>2017-12-19T12:02:38Z</time>
      </trkpt>
      <trkpt lat="49.43752" lon="1.13758">
        <ele>18</ele>
        <time>2017-12-19T12:02:39Z</time>
      </trkpt>
      <trkpt lat="49.4375" lon="1.13766">
        <ele>18</ele>
        <time>2017-12-19T12:02:39Z</time>
      </trkpt>
      <trkpt lat="49.43748" lon="1.13773">
        <ele>18</ele>
        <time>2017-12-19T12:02:54Z</time>
      </trkpt>
      <trkpt lat="49.43747" lon="1.13781">
        <ele>18</ele>
        <time>2017-12-19T12:02:54Z</time>
      </trkpt>
      <trkpt lat="49.43746" lon="1.13789">
        <ele>18</ele>
        <time>2017-12-19T12:02:55Z</time>
      </trkpt>
      <trkpt lat="49.43745" lon="1.13798">
        <ele>18</ele>
        <time>2017-12-19T12:02:55Z</time>
      </trkpt>
      <trkpt lat="49.43743" lon="1.13806">
        <ele>18</ele>
        <time>2017-12-19T12:03:10Z</time>
      </trkpt>
      <trkpt lat="49.43742" lon="1.13814">
        <ele>18</ele>
        <time>2017-12-19T12:03:10Z</time>
      </trkpt>
      <trkpt lat="49.4374" lon="1.13821">
        <ele>18</ele>
        <time>2017-12-19T12:03:10Z</time>
      </trkpt>
      <trkpt lat="49.43738" lon="1.13828">
        <ele>18</ele>
        <time>2017-12-19T12:03:11Z</time>
      </trkpt>
      <trkpt lat="49.43736" lon="1.13836">
        <ele>18</ele>
        <time>2017-12-19T12:03:26Z</time>
      </trkpt>
      <trkpt lat="49.43734" lon="1.13844">
        <ele>18</ele>
        <time>2017-12-19T12:03:26Z</time>
      </trkpt>
      <trkpt lat="49.43732" lon="1.13851">
        <ele>18</ele>
        <time>2017-12-19T12:03:26Z</time>
      </trkpt>
      <trkpt lat="49.4373" lon="1.13858">
        <ele>18</ele>
        <time>2017-12-19T12:03:27Z</time>
      </trkpt>
      <trkpt lat="49.43728" lon="1.13865">
        <ele>18</ele>
        <time>2017-12-19T12:03:42Z</time>
      </trkpt>
      <trkpt lat="49.43726" lon="1.13873">
        <ele>18</ele>
        <time>2017-12-19T12:03:42Z</time>
      </trkpt>
      <trkpt lat="49.43724" lon="1.1388">
        <ele>18</ele>
        <time>2017-12-19T12:03:42Z</time>
      </trkpt>
      <trkpt lat="49.43721" lon="1.13885">
        <ele>18</ele>
        <time>2017-12-19T12:03:43Z</time>
      </trkpt>
      <trkpt lat="49.4372" lon="1.13892">
        <ele>18</ele>
        <time>2017-12-19T12:03:58Z</time>
      </trkpt>
      <trkpt lat="49.43719" lon="1.139">
        <ele>18</ele>
        <time>2017-12-19T12:03:58Z</time>
      </trkpt>
      <trkpt lat="49.4372" lon="1.13908">
        <ele>18</ele>
        <time>2017-12-19T12:03:58Z</time>
      </trkpt>
      <trkpt lat="49.4372" lon="1.13915">
        <ele>18</ele>
        <time>2017-12-19T12:03:59Z</time>
      </trkpt>
      <trkpt lat="49.43723" lon="1.13923">
        <ele>18</ele>
        <time>2017-12-19T12:04:14Z</time>
      </trkpt>
      <trkpt lat="49.43724" lon="1.13931">
        <ele>18</ele>
        <time>2017-12-19T12:04:14Z</time>
      </trkpt>
      <trkpt lat="49.43727" lon="1.13938">
        <ele>18</ele>
        <time>2017-12-19T12:04:14Z</time>
      </trkpt>
      <trkpt lat="49.4373" lon="1.13945">
        <ele>18</ele>
        <time>2017-12-19T12:04:15Z</time>
      </trkpt>
      <trkpt lat="49.43733" lon="1.13951">
        <ele>18</ele>
        <time>2017-12-19T12:04:30Z</time>
      </trkpt>
      <trkpt lat="49.43736" lon="1.13957">
        <ele>18</ele>
        <time>2017-12-19T12:04:30Z</time>
      </trkpt>
      <trkpt lat="49.4374" lon="1.13963">
        <ele>18</ele>
        <time>2017-12-19T12:04:30Z</time>
      </trkpt>
      <trkpt lat="49.43744" lon="1.13968">
        <ele>18</ele>
        <time>2017-12-19T12:04:31Z</time>
      </trkpt>
      <trkpt lat="49.43747" lon="1.13973">
        <ele>18</ele>
        <time>2017-12-19T12:04:46Z</time>
      </trkpt>
      <trkpt lat="49.4375" lon="1.1398">
        <ele>18</ele>
        <time>2017-12-19T12:04:46Z</time>
      </trkpt>
      <trkpt lat="49.43753" lon="1.13985">
        <ele>18</ele>
        <time>2017-12-19T12:04:46Z</time>
      </trkpt>
      <trkpt lat="49.43757" lon="1.13988">
        <ele>18</ele>
        <time>2017-12-19T12:04:47Z</time>
      </trkpt>
      <trkpt lat="49.43761" lon="1.13991">
        <ele>18</ele>
        <time>2017-12-19T12:05:02Z</time>
      </trkpt>
      <trkpt lat="49.43763" lon="1.13995">
        <ele>18</ele>
        <time>2017-12-19T12:05:02Z</time>
      </trkpt>
      <trkpt lat="49.43766" lon="1.13997">
        <ele>18</ele>
        <time>2017-12-19T12:05:02Z</time>
      </trkpt>
      <trkpt lat="49.43771" lon="1.13999">
        <ele>18</ele>
        <time>2017-12-19T12:05:02Z</time>
      </trkpt>
      <trkpt lat="49.43774" lon="1.14003">
        <ele>18</ele>
        <time>2017-12-19T12:05:18Z</time>
      </trkpt>
      <trkpt lat="49.43775" lon="1.14008">
        <ele>18</ele>
        <time>2017-12-19T12:05:18Z</time>
      </trkpt>
      <trkpt lat="49.43774" lon="1.14014">
        <ele>18</ele>
        <time>2017-12-19T12:05:19Z</time>
      </trkpt>
      <trkpt lat="49.43772" lon="1.14021">
        <ele>18</ele>
        <time>2017-12-19T12:05:19Z</time>
      </trkpt>
      <trkpt lat="49.43771" lon="1.14028">
        <ele>18</ele>
        <time>2017-12-19T12:05:34Z</time>
      </trkpt>
      <trkpt lat="49.43769" lon="1.14035">
        <ele>18</ele>
        <time>2017-12-19T12:05:35Z</time>
      </trkpt>
      <trkpt lat="49.43768" lon="1.14043">
        <ele>17</ele>
        <time>2017-12-19T12:05:35Z</time>
      </trkpt>
      <trkpt lat="49.43766" lon="1.1405">
        <ele>17</ele>
        <time>2017-12-19T12:05:35Z</time>
      </trkpt>
      <trkpt lat="49.43764" lon="1.14057">
        <ele>17</ele>
        <time>2017-12-19T12:05:50Z</time>
      </trkpt>
      <trkpt lat="49.43763" lon="1.14064">
        <ele>17</ele>
        <time>2017-12-19T12:05:50Z</time>
      </trkpt>
      <trkpt lat="49.43761" lon="1.14071">
        <ele>17</ele>
        <time>2017-12-19T12:05:51Z</time>
      </trkpt>
      <trkpt lat="49.43759" lon="1.14078">
        <ele>17</ele>
        <time>2017-12-19T12:05:51Z</time>
      </trkpt>
      <trkpt lat="49.43757" lon="1.14085">
        <ele>17</ele>
        <time>2017-12-19T12:06:06Z</time>
      </trkpt>
      <trkpt lat="49.43756" lon="1.14092">
        <ele>17</ele>
        <time>2017-12-19T12:06:06Z</time>
      </trkpt>
      <trkpt lat="49.43755" lon="1.141">
        <ele>17</ele>
        <time>2017-12-19T12:06:07Z</time>
      </trkpt>
      <trkpt lat="49.43754" lon="1.14107">
        <ele>17</ele>
        <time>2017-12-19T12:06:07Z</time>
      </trkpt>
      <trkpt lat="49.43753" lon="1.14115">
        <ele>17</ele>
        <time>2017-12-19T12:06:22Z</time>
      </trkpt>
      <trkpt lat="49.43752" lon="1.14123">
        <ele>17</ele>
        <time>2017-12-19T12:06:22Z</time>
      </trkpt>
      <trkpt lat="49.43751" lon="1.14131">
        <ele>18</ele>
        <time>2017-12-19T12:06:23Z</time>
      </trkpt>
      <trkpt lat="49.4375" lon="1.14139">
        <ele>18</ele>
        <time>2017-12-19T12:06:23Z</time>
      </trkpt>
      <trkpt lat="49.43749" lon="1.14147">
        <ele>18</ele>
        <time>2017-12-19T12:06:38Z</time>
      </trkpt>
      <trkpt lat="49.43748" lon="1.14154">
        <ele>18</ele>
        <time>2017-12-19T12:06:39Z</time>
      </trkpt>
      <trkpt lat="49.43748" lon="1.14161">
        <ele>18</ele>
        <time>2017-12-19T12:06:39Z</time>
      </trkpt>
      <trkpt lat="49.43747" lon="1.14168">
        <ele>18</ele>
        <time>2017-12-19T12:06:39Z</time>
      </trkpt>
      <trkpt lat="49.43745" lon="1.14174">
        <ele>18</ele>
        <time>2017-12-19T12:06:54Z</time>
      </trkpt>
      <trkpt lat="49.43743" lon="1.1418">
        <ele>18</ele>
        <time>2017-12-19T12:06:54Z</time>
      </trkpt>
      <trkpt lat="49.43742" lon="1.14187">
        <ele>18</ele>
        <time>2017-12-19T12:06:55Z</time>
      </trkpt>
      <trkpt lat="49.4374" lon="1.14194">
        <ele>18</ele>
        <time>2017-12-19T12:06:55Z</time>
      </trkpt>
      <trkpt lat="49.43739" lon="1.14201">
        <ele>18</ele>
        <time>2017-12-19T12:07:10Z</time>
      </trkpt>
      <trkpt lat="49.43737" lon="1.14208">
        <ele>18</ele>
        <time>2017-12-19T12:07:11Z</time>
      </trkpt>
      <trkpt lat="49.43736" lon="1.14216">
        <ele>18</ele>
        <time>2017-12-19T12:07:11Z</time>
      </trkpt>
      <trkpt lat="49.43734" lon="1.14222">
        <ele>18</ele>
        <time>2017-12-19T12:07:11Z</time>
      </trkpt>
      <trkpt lat="49.43732" lon="1.14229">
        <ele>18</ele>
        <time>2017-12-19T12:07:26Z</time>
      </trkpt>
      <trkpt lat="49.4373" lon="1.14236">
        <ele>18</ele>
        <time>2017-12-19T12:07:26Z</time>
      </trkpt>
      <trkpt lat="49.43728" lon="1.14241">
        <ele>18</ele>
        <time>2017-12-19T12:07:27Z</time>
      </trkpt>
      <trkpt lat="49.43725" lon="1.14246">
        <ele>18</ele>
        <time>2017-12-19T12:07:27Z</time>
      </trkpt>
      <trkpt lat="49.43724" lon="1.14248">
        <ele>18</ele>
        <time>2017-12-19T12:08:38Z</time>
      </trkpt>
      <trkpt lat="49.43724" lon="1.14248">
        <ele>18</ele>
        <time>2017-12-19T12:08:38Z</time>
      </trkpt>
      <trkpt lat="49.43722" lon="1.14254">
        <ele>18</ele>
        <time>2017-12-19T12:08:39Z</time>
      </trkpt>
      <trkpt lat="49.43719" lon="1.14262">
        <ele>18</ele>
        <time>2017-12-19T12:08:39Z</time>
      </trkpt>
      <trkpt lat="49.43718" lon="1.1427">
        <ele>18</ele>
        <time>2017-12-19T12:08:39Z</time>
      </trkpt>
      <trkpt lat="49.4372" lon="1.14278">
        <ele>18</ele>
        <time>2017-12-19T12:08:54Z</time>
      </trkpt>
      <trkpt lat="49.43721" lon="1.14286">
        <ele>18</ele>
        <time>2017-12-19T12:08:54Z</time>
      </trkpt>
      <trkpt lat="49.43721" lon="1.14293">
        <ele>19</ele>
        <time>2017-12-19T12:08:54Z</time>
      </trkpt>
      <trkpt lat="49.43721" lon="1.143">
        <ele>19</ele>
        <time>2017-12-19T12:08:55Z</time>
      </trkpt>
      <trkpt lat="49.4372" lon="1.14306">
        <ele>19</ele>
        <time>2017-12-19T12:09:10Z</time>
      </trkpt>
      <trkpt lat="49.43718" lon="1.14312">
        <ele>19</ele>
        <time>2017-12-19T12:09:11Z</time>
      </trkpt>
      <trkpt lat="49.43714" lon="1.14316">
        <ele>19</ele>
        <time>2017-12-19T12:09:11Z</time>
      </trkpt>
      <trkpt lat="49.43711" lon="1.14315">
        <ele>19</ele>
        <time>2017-12-19T12:09:11Z</time>
      </trkpt>
      <trkpt lat="49.43707" lon="1.14316">
        <ele>18</ele>
        <time>2017-12-19T12:09:26Z</time>
      </trkpt>
      <trkpt lat="49.43702" lon="1.14317">
        <ele>18</ele>
        <time>2017-12-19T12:09:26Z</time>
      </trkpt>
      <trkpt lat="49.43698" lon="1.14322">
        <ele>18</ele>
        <time>2017-12-19T12:09:27Z</time>
      </trkpt>
      <trkpt lat="49.43693" lon="1.14327">
        <ele>18</ele>
        <time>2017-12-19T12:09:27Z</time>
      </trkpt>
      <trkpt lat="49.43688" lon="1.14333">
        <ele>18</ele>
        <time>2017-12-19T12:09:42Z</time>
      </trkpt>
      <trkpt lat="49.43684" lon="1.14338">
        <ele>18</ele>
        <time>2017-12-19T12:09:43Z</time>
      </trkpt>
      <trkpt lat="49.43681" lon="1.14342">
        <ele>18</ele>
        <time>2017-12-19T12:09:43Z</time>
      </trkpt>
      <trkpt lat="49.43677" lon="1.14345">
        <ele>18</ele>
        <time>2017-12-19T12:09:43Z</time>
      </trkpt>
      <trkpt lat="49.43673" lon="1.14345">
        <ele>18</ele>
        <time>2017-12-19T12:09:58Z</time>
      </trkpt>
      <trkpt lat="49.43669" lon="1.14346">
        <ele>18</ele>
        <time>2017-12-19T12:09:58Z</time>
      </trkpt>
      <trkpt lat="49.43665" lon="1.14348">
        <ele>18</ele>
        <time>2017-12-19T12:09:59Z</time>
      </trkpt>
      <trkpt lat="49.4366" lon="1.14351">
        <ele>18</ele>
        <time>2017-12-19T12:09:59Z</time>
      </trkpt>
      <trkpt lat="49.43657" lon="1.14356">
        <ele>18</ele>
        <time>2017-12-19T12:10:14Z</time>
      </trkpt>
      <trkpt lat="49.43652" lon="1.14359">
        <ele>18</ele>
        <time>2017-12-19T12:10:14Z</time>
      </trkpt>
      <trkpt lat="49.43648" lon="1.14363">
        <ele>18</ele>
        <time>2017-12-19T12:10:15Z</time>
      </trkpt>
      <trkpt lat="49.43643" lon="1.14369">
        <ele>18</ele>
        <time>2017-12-19T12:10:15Z</time>
      </trkpt>
      <trkpt lat="49.43639" lon="1.14374">
        <ele>18</ele>
        <time>2017-12-19T12:10:30Z</time>
      </trkpt>
      <trkpt lat="49.43634" lon="1.14379">
        <ele>19</ele>
        <time>2017-12-19T12:10:30Z</time>
      </trkpt>
      <trkpt lat="49.43631" lon="1.14385">
        <ele>19</ele>
        <time>2017-12-19T12:10:31Z</time>
      </trkpt>
      <trkpt lat="49.43628" lon="1.14392">
        <ele>19</ele>
        <time>2017-12-19T12:10:31Z</time>
      </trkpt>
      <trkpt lat="49.43625" lon="1.14399">
        <ele>19</ele>
        <time>2017-12-19T12:10:46Z</time>
      </trkpt>
      <trkpt lat="49.43623" lon="1.14406">
        <ele>18</ele>
        <time>2017-12-19T12:10:46Z</time>
      </trkpt>
      <trkpt lat="49.4362" lon="1.14413">
        <ele>18</ele>
        <time>2017-12-19T12:10:46Z</time>
      </trkpt>
      <trkpt lat="49.43618" lon="1.14421">
        <ele>18</ele>
        <time>2017-12-19T12:10:47Z</time>
      </trkpt>
      <trkpt lat="49.43616" lon="1.14428">
        <ele>18</ele>
        <time>2017-12-19T12:11:02Z</time>
      </trkpt>
      <trkpt lat="49.43614" lon="1.14435">
        <ele>18</ele>
        <time>2017-12-19T12:11:02Z</time>
      </trkpt>
      <trkpt lat="49.43611" lon="1.14442">
        <ele>18</ele>
        <time>2017-12-19T12:11:03Z</time>
      </trkpt>
      <trkpt lat="49.43608" lon="1.14448">
        <ele>18</ele>
        <time>2017-12-19T12:11:03Z</time>
      </trkpt>
      <trkpt lat="49.43605" lon="1.14454">
        <ele>18</ele>
        <time>2017-12-19T12:11:18Z</time>
      </trkpt>
      <trkpt lat="49.43603" lon="1.14461">
        <ele>20</ele>
        <time>2017-12-19T12:11:18Z</time>
      </trkpt>
      <trkpt lat="49.436" lon="1.14467">
        <ele>20</ele>
        <time>2017-12-19T12:11:19Z</time>
      </trkpt>
      <trkpt lat="49.43598" lon="1.14474">
        <ele>20</ele>
        <time>2017-12-19T12:11:19Z</time>
      </trkpt>
      <trkpt lat="49.43594" lon="1.14479">
        <ele>20</ele>
        <time>2017-12-19T12:11:34Z</time>
      </trkpt>
      <trkpt lat="49.43591" lon="1.14485">
        <ele>20</ele>
        <time>2017-12-19T12:11:34Z</time>
      </trkpt>
      <trkpt lat="49.43588" lon="1.14491">
        <ele>20</ele>
        <time>2017-12-19T12:11:35Z</time>
      </trkpt>
      <trkpt lat="49.43586" lon="1.14497">
        <ele>20</ele>
        <time>2017-12-19T12:11:35Z</time>
      </trkpt>
      <trkpt lat="49.43582" lon="1.14503">
        <ele>20</ele>
        <time>2017-12-19T12:11:54Z</time>
      </trkpt>
      <trkpt lat="49.43579" lon="1.14509">
        <ele>20</ele>
        <time>2017-12-19T12:11:55Z</time>
      </trkpt>
      <trkpt lat="49.43578" lon="1.14512">
        <ele>20</ele>
        <time>2017-12-19T12:11:55Z</time>
      </trkpt>
      <trkpt lat="49.43578" lon="1.14513">
        <ele>20</ele>
        <time>2017-12-19T12:11:55Z</time>
      </trkpt>
      <trkpt lat="49.43578" lon="1.14521">
        <ele>20</ele>
        <time>2017-12-19T12:11:55Z</time>
      </trkpt>
      <trkpt lat="49.43576" lon="1.14529">
        <ele>20</ele>
        <time>2017-12-19T12:12:10Z</time>
      </trkpt>
      <trkpt lat="49.43572" lon="1.14536">
        <ele>20</ele>
        <time>2017-12-19T12:12:10Z</time>
      </trkpt>
      <trkpt lat="49.43569" lon="1.14542">
        <ele>23</ele>
        <time>2017-12-19T12:12:11Z</time>
      </trkpt>
      <trkpt lat="49.43567" lon="1.14548">
        <ele>23</ele>
        <time>2017-12-19T12:12:11Z</time>
      </trkpt>
      <trkpt lat="49.43564" lon="1.14554">
        <ele>23</ele>
        <time>2017-12-19T12:12:26Z</time>
      </trkpt>
      <trkpt lat="49.4356" lon="1.1456">
        <ele>23</ele>
        <time>2017-12-19T12:12:26Z</time>
      </trkpt>
      <trkpt lat="49.43558" lon="1.14568">
        <ele>23</ele>
        <time>2017-12-19T12:12:27Z</time>
      </trkpt>
      <trkpt lat="49.43556" lon="1.14574">
        <ele>23</ele>
        <time>2017-12-19T12:12:27Z</time>
      </trkpt>
      <trkpt lat="49.43554" lon="1.14579">
        <ele>23</ele>
        <time>2017-12-19T12:12:42Z</time>
      </trkpt>
      <trkpt lat="49.43549" lon="1.14575">
        <ele>23</ele>
        <time>2017-12-19T12:12:42Z</time>
      </trkpt>
      <trkpt lat="49.43544" lon="1.14571">
        <ele>23</ele>
        <time>2017-12-19T12:12:43Z</time>
      </trkpt>
      <trkpt lat="49.43543" lon="1.1457">
        <ele>23</ele>
        <time>2017-12-19T12:12:43Z</time>
      </trkpt>
      <trkpt lat="49.4354" lon="1.14567">
        <ele>34</ele>
        <time>2017-12-19T12:12:58Z</time>
      </trkpt>
      <trkpt lat="49.43537" lon="1.14565">
        <ele>34</ele>
        <time>2017-12-19T12:12:58Z</time>
      </trkpt>
      <trkpt lat="49.43533" lon="1.14561">
        <ele>34</ele>
        <time>2017-12-19T12:12:59Z</time>
      </trkpt>
      <trkpt lat="49.4353" lon="1.14558">
        <ele>34</ele>
        <time>2017-12-19T12:12:59Z</time>
      </trkpt>
      <trkpt lat="49.43525" lon="1.14556">
        <ele>34</ele>
        <time>2017-12-19T12:13:14Z</time>
      </trkpt>
      <trkpt lat="49.43521" lon="1.14553">
        <ele>34</ele>
        <time>2017-12-19T12:13:14Z</time>
      </trkpt>
      <trkpt lat="49.43517" lon="1.1455">
        <ele>34</ele>
        <time>2017-12-19T12:13:15Z</time>
      </trkpt>
      <trkpt lat="49.43512" lon="1.14546">
        <ele>34</ele>
        <time>2017-12-19T12:13:15Z</time>
      </trkpt>
      <trkpt lat="49.43509" lon="1.14542">
        <ele>29</ele>
        <time>2017-12-19T12:13:30Z</time>
      </trkpt>
      <trkpt lat="49.43505" lon="1.14537">
        <ele>29</ele>
        <time>2017-12-19T12:13:30Z</time>
      </trkpt>
      <trkpt lat="49.43501" lon="1.14534">
        <ele>29</ele>
        <time>2017-12-19T12:13:31Z</time>
      </trkpt>
      <trkpt lat="49.43496" lon="1.14531">
        <ele>29</ele>
        <time>2017-12-19T12:13:31Z</time>
      </trkpt>
      <trkpt lat="49.43491" lon="1.14528">
        <ele>29</ele>
        <time>2017-12-19T12:13:46Z</time>
      </trkpt>
      <trkpt lat="49.43488" lon="1.14525">
        <ele>29</ele>
        <time>2017-12-19T12:13:46Z</time>
      </trkpt>
      <trkpt lat="49.43485" lon="1.14524">
        <ele>29</ele>
        <time>2017-12-19T12:13:46Z</time>
      </trkpt>
      <trkpt lat="49.43482" lon="1.14519">
        <ele>29</ele>
        <time>2017-12-19T12:13:46Z</time>
      </trkpt>
      <trkpt lat="49.43478" lon="1.14513">
        <ele>29</ele>
        <time>2017-12-19T12:14:02Z</time>
      </trkpt>
      <trkpt lat="49.43475" lon="1.14507">
        <ele>29</ele>
        <time>2017-12-19T12:14:02Z</time>
      </trkpt>
      <trkpt lat="49.43471" lon="1.145">
        <ele>29</ele>
        <time>2017-12-19T12:14:03Z</time>
      </trkpt>
      <trkpt lat="49.43468" lon="1.14494">
        <ele>29</ele>
        <time>2017-12-19T12:14:03Z</time>
      </trkpt>
      <trkpt lat="49.43465" lon="1.14487">
        <ele>29</ele>
        <time>2017-12-19T12:14:18Z</time>
      </trkpt>
      <trkpt lat="49.43463" lon="1.14481">
        <ele>29</ele>
        <time>2017-12-19T12:14:18Z</time>
      </trkpt>
      <trkpt lat="49.4346" lon="1.14475">
        <ele>29</ele>
        <time>2017-12-19T12:14:19Z</time>
      </trkpt>
      <trkpt lat="49.43457" lon="1.14469">
        <ele>51</ele>
        <time>2017-12-19T12:14:19Z</time>
      </trkpt>
      <trkpt lat="49.43455" lon="1.14464">
        <ele>51</ele>
        <time>2017-12-19T12:14:34Z</time>
      </trkpt>
      <trkpt lat="49.43452" lon="1.14459">
        <ele>51</ele>
        <time>2017-12-19T12:14:34Z</time>
      </trkpt>
      <trkpt lat="49.43449" lon="1.14455">
        <ele>40</ele>
        <time>2017-12-19T12:14:35Z</time>
      </trkpt>
      <trkpt lat="49.43447" lon="1.14453">
        <ele>40</ele>
        <time>2017-12-19T12:14:35Z</time>
      </trkpt>
      <trkpt lat="49.43445" lon="1.14451">
        <ele>40</ele>
        <time>2017-12-19T12:14:54Z</time>
      </trkpt>
      <trkpt lat="49.43443" lon="1.1445">
        <ele>40</ele>
        <time>2017-12-19T12:14:54Z</time>
      </trkpt>
      <trkpt lat="49.4344" lon="1.14449">
        <ele>40</ele>
        <time>2017-12-19T12:14:55Z</time>
      </trkpt>
      <trkpt lat="49.43438" lon="1.14447">
        <ele>40</ele>
        <time>2017-12-19T12:14:55Z</time>
      </trkpt>
      <trkpt lat="49.43434" lon="1.14445">
        <ele>40</ele>
        <time>2017-12-19T12:14:55Z</time>
      </trkpt>
      <trkpt lat="49.43431" lon="1.14445">
        <ele>40</ele>
        <time>2017-12-19T12:15:10Z</time>
      </trkpt>
      <trkpt lat="49.43427" lon="1.14445">
        <ele>40</ele>
        <time>2017-12-19T12:15:10Z</time>
      </trkpt>
      <trkpt lat="49.43424" lon="1.14447">
        <ele>40</ele>
        <time>2017-12-19T12:15:11Z</time>
      </trkpt>
      <trkpt lat="49.43421" lon="1.14446">
        <ele>40</ele>
        <time>2017-12-19T12:15:11Z</time>
      </trkpt>
      <trkpt lat="49.43418" lon="1.14447">
        <ele>40</ele>
        <time>2017-12-19T12:15:26Z</time>
      </trkpt>
      <trkpt lat="49.43414" lon="1.14447">
        <ele>40</ele>
        <time>2017-12-19T12:15:26Z</time>
      </trkpt>
      <trkpt lat="49.43411" lon="1.14448">
        <ele>40</ele>
        <time>2017-12-19T12:15:27Z</time>
      </trkpt>
      <trkpt lat="49.43408" lon="1.14448">
        <ele>40</ele>
        <time>2017-12-19T12:15:27Z</time>
      </trkpt>
      <trkpt lat="49.43404" lon="1.14447">
        <ele>40</ele>
        <time>2017-12-19T12:15:42Z</time>
      </trkpt>
      <trkpt lat="49.434" lon="1.14446">
        <ele>40</ele>
        <time>2017-12-19T12:15:42Z</time>
      </trkpt>
      <trkpt lat="49.43396" lon="1.14446">
        <ele>40</ele>
        <time>2017-12-19T12:15:43Z</time>
      </trkpt>
      <trkpt lat="49.43393" lon="1.14446">
        <ele>40</ele>
        <time>2017-12-19T12:15:43Z</time>
      </trkpt>
      <trkpt lat="49.43391" lon="1.14446">
        <ele>40</ele>
        <time>2017-12-19T12:15:58Z</time>
      </trkpt>
      <trkpt lat="49.43388" lon="1.14446">
        <ele>40</ele>
        <time>2017-12-19T12:15:58Z</time>
      </trkpt>
      <trkpt lat="49.43385" lon="1.14446">
        <ele>40</ele>
        <time>2017-12-19T12:15:59Z</time>
      </trkpt>
      <trkpt lat="49.43381" lon="1.14444">
        <ele>40</ele>
        <time>2017-12-19T12:15:59Z</time>
      </trkpt>
      <trkpt lat="49.43379" lon="1.14439">
        <ele>40</ele>
        <time>2017-12-19T12:16:14Z</time>
      </trkpt>
      <trkpt lat="49.43377" lon="1.14433">
        <ele>40</ele>
        <time>2017-12-19T12:16:14Z</time>
      </trkpt>
      <trkpt lat="49.43375" lon="1.14427">
        <ele>40</ele>
        <time>2017-12-19T12:16:15Z</time>
      </trkpt>
      <trkpt lat="49.43374" lon="1.14421">
        <ele>54</ele>
        <time>2017-12-19T12:16:15Z</time>
      </trkpt>
      <trkpt lat="49.43373" lon="1.14415">
        <ele>54</ele>
        <time>2017-12-19T12:16:30Z</time>
      </trkpt>
      <trkpt lat="49.43373" lon="1.1441">
        <ele>54</ele>
        <time>2017-12-19T12:16:30Z</time>
      </trkpt>
      <trkpt lat="49.43372" lon="1.14405">
        <ele>54</ele>
        <time>2017-12-19T12:16:31Z</time>
      </trkpt>
      <trkpt lat="49.43371" lon="1.144">
        <ele>54</ele>
        <time>2017-12-19T12:16:31Z</time>
      </trkpt>
      <trkpt lat="49.4337" lon="1.14395">
        <ele>54</ele>
        <time>2017-12-19T12:16:46Z</time>
      </trkpt>
      <trkpt lat="49.4337" lon="1.1439">
        <ele>54</ele>
        <time>2017-12-19T12:16:47Z</time>
      </trkpt>
      <trkpt lat="49.43371" lon="1.14384">
        <ele>54</ele>
        <time>2017-12-19T12:16:47Z</time>
      </trkpt>
      <trkpt lat="49.43372" lon="1.14378">
        <ele>54</ele>
        <time>2017-12-19T12:16:47Z</time>
      </trkpt>
      <trkpt lat="49.43369" lon="1.14369">
        <ele>54</ele>
        <time>2017-12-19T12:17:22Z</time>
      </trkpt>
      <trkpt lat="49.43365" lon="1.14371">
        <ele>54</ele>
        <time>2017-12-19T12:17:22Z</time>
      </trkpt>
      <trkpt lat="49.43362" lon="1.14374">
        <ele>54</ele>
        <time>2017-12-19T12:17:23Z</time>
      </trkpt>
      <trkpt lat="49.43359" lon="1.14378">
        <ele>54</ele>
        <time>2017-12-19T12:17:23Z</time>
      </trkpt>
      <trkpt lat="49.43356" lon="1.14381">
        <ele>54</ele>
        <time>2017-12-19T12:17:23Z</time>
      </trkpt>
      <trkpt lat="49.43352" lon="1.14383">
        <ele>54</ele>
        <time>2017-12-19T12:17:42Z</time>
      </trkpt>
      <trkpt lat="49.43349" lon="1.14386">
        <ele>54</ele>
        <time>2017-12-19T12:17:42Z</time>
      </trkpt>
      <trkpt lat="49.43348" lon="1.14387">
        <ele>54</ele>
        <time>2017-12-19T12:17:43Z</time>
      </trkpt>
      <trkpt lat="49.43345" lon="1.14388">
        <ele>54</ele>
        <time>2017-12-19T12:17:43Z</time>
      </trkpt>
      <trkpt lat="49.4334" lon="1.14391">
        <ele>54</ele>
        <time>2017-12-19T12:17:43Z</time>
      </trkpt>
      <trkpt lat="49.43335" lon="1.14391">
        <ele>54</ele>
        <time>2017-12-19T12:17:58Z</time>
      </trkpt>
      <trkpt lat="49.43331" lon="1.14394">
        <ele>54</ele>
        <time>2017-12-19T12:17:58Z</time>
      </trkpt>
      <trkpt lat="49.43327" lon="1.14397">
        <ele>54</ele>
        <time>2017-12-19T12:17:59Z</time>
      </trkpt>
      <trkpt lat="49.43323" lon="1.144">
        <ele>54</ele>
        <time>2017-12-19T12:17:59Z</time>
      </trkpt>
      <trkpt lat="49.4332" lon="1.14403">
        <ele>54</ele>
        <time>2017-12-19T12:18:14Z</time>
      </trkpt>
      <trkpt lat="49.43317" lon="1.14404">
        <ele>54</ele>
        <time>2017-12-19T12:18:14Z</time>
      </trkpt>
      <trkpt lat="49.43314" lon="1.14405">
        <ele>54</ele>
        <time>2017-12-19T12:18:15Z</time>
      </trkpt>
      <trkpt lat="49.43311" lon="1.14409">
        <ele>54</ele>
        <time>2017-12-19T12:18:15Z</time>
      </trkpt>
      <trkpt lat="49.43308" lon="1.14415">
        <ele>54</ele>
        <time>2017-12-19T12:18:30Z</time>
      </trkpt>
      <trkpt lat="49.43307" lon="1.14424">
        <ele>54</ele>
        <time>2017-12-19T12:18:31Z</time>
      </trkpt>
      <trkpt lat="49.43306" lon="1.14432">
        <ele>54</ele>
        <time>2017-12-19T12:18:31Z</time>
      </trkpt>
      <trkpt lat="49.43305" lon="1.1444">
        <ele>54</ele>
        <time>2017-12-19T12:18:31Z</time>
      </trkpt>
      <trkpt lat="49.43305" lon="1.14448">
        <ele>54</ele>
        <time>2017-12-19T12:18:46Z</time>
      </trkpt>
      <trkpt lat="49.43307" lon="1.14454">
        <ele>54</ele>
        <time>2017-12-19T12:18:46Z</time>
      </trkpt>
      <trkpt lat="49.43309" lon="1.1446">
        <ele>60</ele>
        <time>2017-12-19T12:18:47Z</time>
      </trkpt>
      <trkpt lat="49.43311" lon="1.14466">
        <ele>60</ele>
        <time>2017-12-19T12:18:47Z</time>
      </trkpt>
      <trkpt lat="49.43313" lon="1.14471">
        <ele>60</ele>
        <time>2017-12-19T12:19:02Z</time>
      </trkpt>
      <trkpt lat="49.43315" lon="1.14478">
        <ele>60</ele>
        <time>2017-12-19T12:19:02Z</time>
      </trkpt>
      <trkpt lat="49.43315" lon="1.14485">
        <ele>60</ele>
        <time>2017-12-19T12:19:03Z</time>
      </trkpt>
      <trkpt lat="49.43313" lon="1.14491">
        <ele>60</ele>
        <time>2017-12-19T12:19:03Z</time>
      </trkpt>
      <trkpt lat="49.4331" lon="1.14496">
        <ele>60</ele>
        <time>2017-12-19T12:19:18Z</time>
      </trkpt>
      <trkpt lat="49.43306" lon="1.145">
        <ele>60</ele>
        <time>2017-12-19T12:19:18Z</time>
      </trkpt>
      <trkpt lat="49.43301" lon="1.145">
        <ele>60</ele>
        <time>2017-12-19T12:19:19Z</time>
      </trkpt>
      <trkpt lat="49.43298" lon="1.14498">
        <ele>60</ele>
        <time>2017-12-19T12:19:19Z</time>
      </trkpt>
      <trkpt lat="49.43294" lon="1.14494">
        <ele>60</ele>
        <time>2017-12-19T12:19:34Z</time>
      </trkpt>
      <trkpt lat="49.43291" lon="1.14489">
        <ele>64</ele>
        <time>2017-12-19T12:19:34Z</time>
      </trkpt>
      <trkpt lat="49.43287" lon="1.14484">
        <ele>64</ele>
        <time>2017-12-19T12:19:35Z</time>
      </trkpt>
      <trkpt lat="49.43284" lon="1.1448">
        <ele>64</ele>
        <time>2017-12-19T12:19:35Z</time>
      </trkpt>
      <trkpt lat="49.4328" lon="1.14477">
        <ele>64</ele>
        <time>2017-12-19T12:19:50Z</time>
      </trkpt>
      <trkpt lat="49.43276" lon="1.14473">
        <ele>64</ele>
        <time>2017-12-19T12:19:51Z</time>
      </trkpt>
      <trkpt lat="49.43272" lon="1.1447">
        <ele>64</ele>
        <time>2017-12-19T12:19:51Z</time>
      </trkpt>
      <trkpt lat="49.43268" lon="1.14466">
        <ele>64</ele>
        <time>2017-12-19T12:19:51Z</time>
      </trkpt>
      <trkpt lat="49.43263" lon="1.14464">
        <ele>64</ele>
        <time>2017-12-19T12:20:06Z</time>
      </trkpt>
      <trkpt lat="49.43259" lon="1.14463">
        <ele>64</ele>
        <time>2017-12-19T12:20:06Z</time>
      </trkpt>
      <trkpt lat="49.43254" lon="1.14463">
        <ele>64</ele>
        <time>2017-12-19T12:20:07Z</time>
      </trkpt>
      <trkpt lat="49.4325" lon="1.14464">
        <ele>64</ele>
        <time>2017-12-19T12:20:07Z</time>
      </trkpt>
      <trkpt lat="49.43246" lon="1.14466">
        <ele>64</ele>
        <time>2017-12-19T12:20:22Z</time>
      </trkpt>
      <trkpt lat="49.43242" lon="1.14465">
        <ele>64</ele>
        <time>2017-12-19T12:20:22Z</time>
      </trkpt>
      <trkpt lat="49.43238" lon="1.14464">
        <ele>64</ele>
        <time>2017-12-19T12:20:23Z</time>
      </trkpt>
      <trkpt lat="49.43235" lon="1.14462">
        <ele>64</ele>
        <time>2017-12-19T12:20:23Z</time>
      </trkpt>
      <trkpt lat="49.43232" lon="1.14459">
        <ele>64</ele>
        <time>2017-12-19T12:20:38Z</time>
      </trkpt>
      <trkpt lat="49.43229" lon="1.14457">
        <ele>66</ele>
        <time>2017-12-19T12:20:38Z</time>
      </trkpt>
      <trkpt lat="49.43227" lon="1.14453">
        <ele>66</ele>
        <time>2017-12-19T12:20:39Z</time>
      </trkpt>
      <trkpt lat="49.43223" lon="1.14451">
        <ele>66</ele>
        <time>2017-12-19T12:20:39Z</time>
      </trkpt>
      <trkpt lat="49.4322" lon="1.14448">
        <ele>66</ele>
        <time>2017-12-19T12:20:54Z</time>
      </trkpt>
      <trkpt lat="49.43218" lon="1.14445">
        <ele>66</ele>
        <time>2017-12-19T12:20:54Z</time>
      </trkpt>
      <trkpt lat="49.43215" lon="1.14443">
        <ele>66</ele>
        <time>2017-12-19T12:20:55Z</time>
      </trkpt>
      <trkpt lat="49.43212" lon="1.1444">
        <ele>66</ele>
        <time>2017-12-19T12:20:55Z</time>
      </trkpt>
      <trkpt lat="49.43209" lon="1.14437">
        <ele>66</ele>
        <time>2017-12-19T12:21:10Z</time>
      </trkpt>
      <trkpt lat="49.43206" lon="1.14434">
        <ele>77</ele>
        <time>2017-12-19T12:21:10Z</time>
      </trkpt>
      <trkpt lat="49.43203" lon="1.14432">
        <ele>77</ele>
        <time>2017-12-19T12:21:11Z</time>
      </trkpt>
      <trkpt lat="49.432" lon="1.1443">
        <ele>77</ele>
        <time>2017-12-19T12:21:11Z</time>
      </trkpt>
      <trkpt lat="49.43197" lon="1.14428">
        <ele>77</ele>
        <time>2017-12-19T12:21:26Z</time>
      </trkpt>
      <trkpt lat="49.43195" lon="1.14426">
        <ele>77</ele>
        <time>2017-12-19T12:21:26Z</time>
      </trkpt>
      <trkpt lat="49.43192" lon="1.14423">
        <ele>77</ele>
        <time>2017-12-19T12:21:27Z</time>
      </trkpt>
      <trkpt lat="49.43189" lon="1.14421">
        <ele>77</ele>
        <time>2017-12-19T12:21:27Z</time>
      </trkpt>
      <trkpt lat="49.43186" lon="1.14418">
        <ele>77</ele>
        <time>2017-12-19T12:21:42Z</time>
      </trkpt>
      <trkpt lat="49.43184" lon="1.14416">
        <ele>77</ele>
        <time>2017-12-19T12:21:42Z</time>
      </trkpt>
      <trkpt lat="49.43181" lon="1.14414">
        <ele>77</ele>
        <time>2017-12-19T12:21:43Z</time>
      </trkpt>
      <trkpt lat="49.43179" lon="1.14411">
        <ele>77</ele>
        <time>2017-12-19T12:21:43Z</time>
      </trkpt>
      <trkpt lat="49.43176" lon="1.14409">
        <ele>77</ele>
        <time>2017-12-19T12:21:58Z</time>
      </trkpt>
      <trkpt lat="49.43173" lon="1.14407">
        <ele>77</ele>
        <time>2017-12-19T12:21:58Z</time>
      </trkpt>
      <trkpt lat="49.4317" lon="1.14405">
        <ele>77</ele>
        <time>2017-12-19T12:21:58Z</time>
      </trkpt>
      <trkpt lat="49.43167" lon="1.14404">
        <ele>77</ele>
        <time>2017-12-19T12:21:58Z</time>
      </trkpt>
      <trkpt lat="49.43164" lon="1.14401">
        <ele>77</ele>
        <time>2017-12-19T12:22:14Z</time>
      </trkpt>
      <trkpt lat="49.43162" lon="1.14399">
        <ele>77</ele>
        <time>2017-12-19T12:22:14Z</time>
      </trkpt>
      <trkpt lat="49.43159" lon="1.14397">
        <ele>77</ele>
        <time>2017-12-19T12:22:15Z</time>
      </trkpt>
      <trkpt lat="49.43157" lon="1.14394">
        <ele>77</ele>
        <time>2017-12-19T12:22:15Z</time>
      </trkpt>
      <trkpt lat="49.43154" lon="1.14391">
        <ele>77</ele>
        <time>2017-12-19T12:22:34Z</time>
      </trkpt>
      <trkpt lat="49.43153" lon="1.14386">
        <ele>77</ele>
        <time>2017-12-19T12:22:35Z</time>
      </trkpt>
      <trkpt lat="49.4315" lon="1.14384">
        <ele>77</ele>
        <time>2017-12-19T12:22:35Z</time>
      </trkpt>
      <trkpt lat="49.43148" lon="1.14382">
        <ele>77</ele>
        <time>2017-12-19T12:22:35Z</time>
      </trkpt>
      <trkpt lat="49.43145" lon="1.14379">
        <ele>77</ele>
        <time>2017-12-19T12:22:35Z</time>
      </trkpt>
      <trkpt lat="49.43143" lon="1.14376">
        <ele>77</ele>
        <time>2017-12-19T12:22:54Z</time>
      </trkpt>
      <trkpt lat="49.43141" lon="1.14372">
        <ele>89</ele>
        <time>2017-12-19T12:22:54Z</time>
      </trkpt>
      <trkpt lat="49.43139" lon="1.14369">
        <ele>89</ele>
        <time>2017-12-19T12:22:55Z</time>
      </trkpt>
      <trkpt lat="49.43138" lon="1.14366">
        <ele>89</ele>
        <time>2017-12-19T12:22:55Z</time>
      </trkpt>
      <trkpt lat="49.43136" lon="1.14363">
        <ele>89</ele>
        <time>2017-12-19T12:22:55Z</time>
      </trkpt>
      <trkpt lat="49.43134" lon="1.1436">
        <ele>89</ele>
        <time>2017-12-19T12:23:14Z</time>
      </trkpt>
      <trkpt lat="49.43131" lon="1.14357">
        <ele>89</ele>
        <time>2017-12-19T12:23:14Z</time>
      </trkpt>
      <trkpt lat="49.43129" lon="1.14355">
        <ele>89</ele>
        <time>2017-12-19T12:23:15Z</time>
      </trkpt>
      <trkpt lat="49.43127" lon="1.14352">
        <ele>89</ele>
        <time>2017-12-19T12:23:15Z</time>
      </trkpt>
      <trkpt lat="49.43126" lon="1.14348">
        <ele>89</ele>
        <time>2017-12-19T12:23:15Z</time>
      </trkpt>
      <trkpt lat="49.43124" lon="1.14345">
        <ele>99</ele>
        <time>2017-12-19T12:23:34Z</time>
      </trkpt>
      <trkpt lat="49.43122" lon="1.14342">
        <ele>99</ele>
        <time>2017-12-19T12:23:34Z</time>
      </trkpt>
      <trkpt lat="49.4312" lon="1.1434">
        <ele>99</ele>
        <time>2017-12-19T12:23:35Z</time>
      </trkpt>
      <trkpt lat="49.43118" lon="1.14338">
        <ele>99</ele>
        <time>2017-12-19T12:23:35Z</time>
      </trkpt>
      <trkpt lat="49.43115" lon="1.14337">
        <ele>99</ele>
        <time>2017-12-19T12:23:35Z</time>
      </trkpt>
      <trkpt lat="49.43113" lon="1.14336">
        <ele>99</ele>
        <time>2017-12-19T12:23:54Z</time>
      </trkpt>
      <trkpt lat="49.4311" lon="1.14334">
        <ele>99</ele>
        <time>2017-12-19T12:23:54Z</time>
      </trkpt>
      <trkpt lat="49.43108" lon="1.14331">
        <ele>99</ele>
        <time>2017-12-19T12:23:55Z</time>
      </trkpt>
      <trkpt lat="49.43105" lon="1.14328">
        <ele>99</ele>
        <time>2017-12-19T12:23:55Z</time>
      </trkpt>
      <trkpt lat="49.43103" lon="1.14326">
        <ele>99</ele>
        <time>2017-12-19T12:23:55Z</time>
      </trkpt>
      <trkpt lat="49.43101" lon="1.14324">
        <ele>99</ele>
        <time>2017-12-19T12:24:14Z</time>
      </trkpt>
      <trkpt lat="49.43098" lon="1.14323">
        <ele>99</ele>
        <time>2017-12-19T12:24:14Z</time>
      </trkpt>
      <trkpt lat="49.43096" lon="1.14321">
        <ele>99</ele>
        <time>2017-12-19T12:24:15Z</time>
      </trkpt>
      <trkpt lat="49.43093" lon="1.14319">
        <ele>99</ele>
        <time>2017-12-19T12:24:15Z</time>
      </trkpt>
      <trkpt lat="49.43091" lon="1.14317">
        <ele>99</ele>
        <time>2017-12-19T12:24:15Z</time>
      </trkpt>
      <trkpt lat="49.43089" lon="1.14314">
        <ele>99</ele>
        <time>2017-12-19T12:24:30Z</time>
      </trkpt>
      <trkpt lat="49.43086" lon="1.14312">
        <ele>99</ele>
        <time>2017-12-19T12:24:30Z</time>
      </trkpt>
      <trkpt lat="49.43084" lon="1.14307">
        <ele>99</ele>
        <time>2017-12-19T12:24:31Z</time>
      </trkpt>
      <trkpt lat="49.43082" lon="1.14305">
        <ele>99</ele>
        <time>2017-12-19T12:24:31Z</time>
      </trkpt>
      <trkpt lat="49.43079" lon="1.14301">
        <ele>99</ele>
        <time>2017-12-19T12:24:46Z</time>
      </trkpt>
      <trkpt lat="49.43077" lon="1.14298">
        <ele>99</ele>
        <time>2017-12-19T12:24:46Z</time>
      </trkpt>
      <trkpt lat="49.43075" lon="1.14295">
        <ele>99</ele>
        <time>2017-12-19T12:24:47Z</time>
      </trkpt>
      <trkpt lat="49.43072" lon="1.14293">
        <ele>99</ele>
        <time>2017-12-19T12:24:47Z</time>
      </trkpt>
      <trkpt lat="49.43069" lon="1.14289">
        <ele>120</ele>
        <time>2017-12-19T12:25:06Z</time>
      </trkpt>
      <trkpt lat="49.43067" lon="1.14288">
        <ele>120</ele>
        <time>2017-12-19T12:25:06Z</time>
      </trkpt>
      <trkpt lat="49.43065" lon="1.14285">
        <ele>120</ele>
        <time>2017-12-19T12:25:07Z</time>
      </trkpt>
      <trkpt lat="49.43064" lon="1.14282">
        <ele>120</ele>
        <time>2017-12-19T12:25:07Z</time>
      </trkpt>
      <trkpt lat="49.43061" lon="1.14281">
        <ele>120</ele>
        <time>2017-12-19T12:25:07Z</time>
      </trkpt>
      <trkpt lat="49.43059" lon="1.14279">
        <ele>120</ele>
        <time>2017-12-19T12:25:26Z</time>
      </trkpt>
      <trkpt lat="49.43057" lon="1.14276">
        <ele>120</ele>
        <time>2017-12-19T12:25:26Z</time>
      </trkpt>
      <trkpt lat="49.43055" lon="1.14273">
        <ele>120</ele>
        <time>2017-12-19T12:25:27Z</time>
      </trkpt>
      <trkpt lat="49.43053" lon="1.1427">
        <ele>120</ele>
        <time>2017-12-19T12:25:27Z</time>
      </trkpt>
      <trkpt lat="49.4305" lon="1.14268">
        <ele>120</ele>
        <time>2017-12-19T12:25:27Z</time>
      </trkpt>
      <trkpt lat="49.43048" lon="1.14266">
        <ele>120</ele>
        <time>2017-12-19T12:25:46Z</time>
      </trkpt>
      <trkpt lat="49.43045" lon="1.14264">
        <ele>120</ele>
        <time>2017-12-19T12:25:46Z</time>
      </trkpt>
      <trkpt lat="49.43043" lon="1.14262">
        <ele>120</ele>
        <time>2017-12-19T12:25:47Z</time>
      </trkpt>
      <trkpt lat="49.4304" lon="1.1426">
        <ele>125</ele>
        <time>2017-12-19T12:25:47Z</time>
      </trkpt>
      <trkpt lat="49.43038" lon="1.14257">
        <ele>125</ele>
        <time>2017-12-19T12:25:47Z</time>
      </trkpt>
      <trkpt lat="49.43035" lon="1.14254">
        <ele>125</ele>
        <time>2017-12-19T12:26:02Z</time>
      </trkpt>
      <trkpt lat="49.43032" lon="1.14251">
        <ele>125</ele>
        <time>2017-12-19T12:26:02Z</time>
      </trkpt>
      <trkpt lat="49.4303" lon="1.14248">
        <ele>125</ele>
        <time>2017-12-19T12:26:03Z</time>
      </trkpt>
      <trkpt lat="49.43027" lon="1.14244">
        <ele>125</ele>
        <time>2017-12-19T12:26:03Z</time>
      </trkpt>
      <trkpt lat="49.43025" lon="1.1424">
        <ele>125</ele>
        <time>2017-12-19T12:26:18Z</time>
      </trkpt>
      <trkpt lat="49.43023" lon="1.14237">
        <ele>125</ele>
        <time>2017-12-19T12:26:18Z</time>
      </trkpt>
      <trkpt lat="49.4302" lon="1.14234">
        <ele>125</ele>
        <time>2017-12-19T12:26:19Z</time>
      </trkpt>
      <trkpt lat="49.43018" lon="1.1423">
        <ele>125</ele>
        <time>2017-12-19T12:26:19Z</time>
      </trkpt>
      <trkpt lat="49.43015" lon="1.14227">
        <ele>125</ele>
        <time>2017-12-19T12:26:34Z</time>
      </trkpt>
      <trkpt lat="49.43012" lon="1.14224">
        <ele>125</ele>
        <time>2017-12-19T12:26:35Z</time>
      </trkpt>
      <trkpt lat="49.4301" lon="1.1422">
        <ele>125</ele>
        <time>2017-12-19T12:26:35Z</time>
      </trkpt>
      <trkpt lat="49.43008" lon="1.14216">
        <ele>125</ele>
        <time>2017-12-19T12:26:35Z</time>
      </trkpt>
      <trkpt lat="49.43006" lon="1.14213">
        <ele>125</ele>
        <time>2017-12-19T12:26:50Z</time>
      </trkpt>
      <trkpt lat="49.43004" lon="1.14209">
        <ele>125</ele>
        <time>2017-12-19T12:26:50Z</time>
      </trkpt>
      <trkpt lat="49.43002" lon="1.14205">
        <ele>137</ele>
        <time>2017-12-19T12:26:51Z</time>
      </trkpt>
      <trkpt lat="49.42999" lon="1.14202">
        <ele>137</ele>
        <time>2017-12-19T12:26:51Z</time>
      </trkpt>
      <trkpt lat="49.42996" lon="1.14199">
        <ele>137</ele>
        <time>2017-12-19T12:27:06Z</time>
      </trkpt>
      <trkpt lat="49.42993" lon="1.14196">
        <ele>137</ele>
        <time>2017-12-19T12:27:06Z</time>
      </trkpt>
      <trkpt lat="49.42989" lon="1.14193">
        <ele>137</ele>
        <time>2017-12-19T12:27:07Z</time>
      </trkpt>
      <trkpt lat="49.42986" lon="1.1419">
        <ele>137</ele>
        <time>2017-12-19T12:27:07Z</time>
      </trkpt>
      <trkpt lat="49.42983" lon="1.14187">
        <ele>137</ele>
        <time>2017-12-19T12:27:22Z</time>
      </trkpt>
      <trkpt lat="49.4298" lon="1.14184">
        <ele>137</ele>
        <time>2017-12-19T12:27:22Z</time>
      </trkpt>
      <trkpt lat="49.42978" lon="1.14181">
        <ele>137</ele>
        <time>2017-12-19T12:27:23Z</time>
      </trkpt>
      <trkpt lat="49.42976" lon="1.14177">
        <ele>137</ele>
        <time>2017-12-19T12:27:23Z</time>
      </trkpt>
      <trkpt lat="49.42973" lon="1.14174">
        <ele>137</ele>
        <time>2017-12-19T12:27:38Z</time>
      </trkpt>
      <trkpt lat="49.42971" lon="1.1417">
        <ele>137</ele>
        <time>2017-12-19T12:27:39Z</time>
      </trkpt>
      <trkpt lat="49.42968" lon="1.14166">
        <ele>137</ele>
        <time>2017-12-19T12:27:39Z</time>
      </trkpt>
      <trkpt lat="49.42965" lon="1.14163">
        <ele>137</ele>
        <time>2017-12-19T12:27:39Z</time>
      </trkpt>
      <trkpt lat="49.42962" lon="1.14159">
        <ele>137</ele>
        <time>2017-12-19T12:27:54Z</time>
      </trkpt>
      <trkpt lat="49.42958" lon="1.14154">
        <ele>135</ele>
        <time>2017-12-19T12:27:54Z</time>
      </trkpt>
      <trkpt lat="49.42955" lon="1.14151">
        <ele>135</ele>
        <time>2017-12-19T12:27:55Z</time>
      </trkpt>
      <trkpt lat="49.42952" lon="1.14147">
        <ele>135</ele>
        <time>2017-12-19T12:27:55Z</time>
      </trkpt>
      <trkpt lat="49.42949" lon="1.14142">
        <ele>135</ele>
        <time>2017-12-19T12:28:10Z</time>
      </trkpt>
      <trkpt lat="49.42947" lon="1.14137">
        <ele>135</ele>
        <time>2017-12-19T12:28:10Z</time>
      </trkpt>
      <trkpt lat="49.42944" lon="1.14133">
        <ele>135</ele>
        <time>2017-12-19T12:28:11Z</time>
      </trkpt>
      <trkpt lat="49.42941" lon="1.14129">
        <ele>135</ele>
        <time>2017-12-19T12:28:11Z</time>
      </trkpt>
      <trkpt lat="49.42939" lon="1.14124">
        <ele>137</ele>
        <time>2017-12-19T12:28:26Z</time>
      </trkpt>
      <trkpt lat="49.42935" lon="1.1412">
        <ele>137</ele>
        <time>2017-12-19T12:28:27Z</time>
      </trkpt>
      <trkpt lat="49.42931" lon="1.14116">
        <ele>137</ele>
        <time>2017-12-19T12:28:27Z</time>
      </trkpt>
      <trkpt lat="49.42927" lon="1.14112">
        <ele>137</ele>
        <time>2017-12-19T12:28:27Z</time>
      </trkpt>
      <trkpt lat="49.42924" lon="1.14108">
        <ele>137</ele>
        <time>2017-12-19T12:28:42Z</time>
      </trkpt>
      <trkpt lat="49.42921" lon="1.14105">
        <ele>137</ele>
        <time>2017-12-19T12:28:42Z</time>
      </trkpt>
      <trkpt lat="49.42918" lon="1.141">
        <ele>137</ele>
        <time>2017-12-19T12:28:42Z</time>
      </trkpt>
      <trkpt lat="49.42916" lon="1.14094">
        <ele>137</ele>
        <time>2017-12-19T12:28:42Z</time>
      </trkpt>
      <trkpt lat="49.42917" lon="1.14087">
        <ele>137</ele>
        <time>2017-12-19T12:29:18Z</time>
      </trkpt>
      <trkpt lat="49.42914" lon="1.14087">
        <ele>137</ele>
        <time>2017-12-19T12:29:18Z</time>
      </trkpt>
      <trkpt lat="49.42909" lon="1.14087">
        <ele>137</ele>
        <time>2017-12-19T12:29:19Z</time>
      </trkpt>
      <trkpt lat="49.42905" lon="1.14089">
        <ele>137</ele>
        <time>2017-12-19T12:29:19Z</time>
      </trkpt>
      <trkpt lat="49.42904" lon="1.14091">
        <ele>137</ele>
        <time>2017-12-19T12:29:19Z</time>
      </trkpt>
      <trkpt lat="49.42904" lon="1.14089">
        <ele>137</ele>
        <time>2017-12-19T12:30:30Z</time>
      </trkpt>
      <trkpt lat="49.42905" lon="1.14087">
        <ele>137</ele>
        <time>2017-12-19T12:30:31Z</time>
      </trkpt>
      <trkpt lat="49.42907" lon="1.14086">
        <ele>137</ele>
        <time>2017-12-19T12:30:31Z</time>
      </trkpt>
      <trkpt lat="49.42909" lon="1.14083">
        <ele>137</ele>
        <time>2017-12-19T12:30:31Z</time>
      </trkpt>
      <trkpt lat="49.42912" lon="1.14081">
        <ele>137</ele>
        <time>2017-12-19T12:30:31Z</time>
      </trkpt>
      <trkpt lat="49.42915" lon="1.14071">
        <ele>137</ele>
        <time>2017-12-19T12:33:38Z</time>
      </trkpt>
      <trkpt lat="49.42915" lon="1.14071">
        <ele>137</ele>
        <time>2017-12-19T12:33:38Z</time>
      </trkpt>
      <trkpt lat="49.42917" lon="1.1407">
        <ele>137</ele>
        <time>2017-12-19T12:33:38Z</time>
      </trkpt>
      <trkpt lat="49.42918" lon="1.14068">
        <ele>137</ele>
        <time>2017-12-19T12:33:38Z</time>
      </trkpt>
      <trkpt lat="49.4292" lon="1.14066">
        <ele>137</ele>
        <time>2017-12-19T12:33:38Z</time>
      </trkpt>
      <trkpt lat="49.42923" lon="1.14063">
        <ele>137</ele>
        <time>2017-12-19T12:33:54Z</time>
      </trkpt>
      <trkpt lat="49.42928" lon="1.1406">
        <ele>137</ele>
        <time>2017-12-19T12:33:54Z</time>
      </trkpt>
      <trkpt lat="49.42935" lon="1.14058">
        <ele>137</ele>
        <time>2017-12-19T12:33:54Z</time>
      </trkpt>
      <trkpt lat="49.4294" lon="1.14057">
        <ele>137</ele>
        <time>2017-12-19T12:33:54Z</time>
      </trkpt>
      <trkpt lat="49.42944" lon="1.14053">
        <ele>137</ele>
        <time>2017-12-19T12:34:10Z</time>
      </trkpt>
      <trkpt lat="49.42948" lon="1.14049">
        <ele>137</ele>
        <time>2017-12-19T12:34:10Z</time>
      </trkpt>
      <trkpt lat="49.4295" lon="1.14044">
        <ele>137</ele>
        <time>2017-12-19T12:34:10Z</time>
      </trkpt>
      <trkpt lat="49.42952" lon="1.14041">
        <ele>136</ele>
        <time>2017-12-19T12:34:11Z</time>
      </trkpt>
      <trkpt lat="49.42955" lon="1.14039">
        <ele>136</ele>
        <time>2017-12-19T12:34:26Z</time>
      </trkpt>
      <trkpt lat="49.42958" lon="1.14039">
        <ele>136</ele>
        <time>2017-12-19T12:34:26Z</time>
      </trkpt>
      <trkpt lat="49.42962" lon="1.14038">
        <ele>141</ele>
        <time>2017-12-19T12:34:26Z</time>
      </trkpt>
      <trkpt lat="49.42966" lon="1.14038">
        <ele>141</ele>
        <time>2017-12-19T12:34:26Z</time>
      </trkpt>
      <trkpt lat="49.4297" lon="1.14036">
        <ele>141</ele>
        <time>2017-12-19T12:34:42Z</time>
      </trkpt>
      <trkpt lat="49.42975" lon="1.14035">
        <ele>141</ele>
        <time>2017-12-19T12:34:42Z</time>
      </trkpt>
      <trkpt lat="49.42978" lon="1.14031">
        <ele>141</ele>
        <time>2017-12-19T12:34:42Z</time>
      </trkpt>
      <trkpt lat="49.42982" lon="1.14028">
        <ele>141</ele>
        <time>2017-12-19T12:34:42Z</time>
      </trkpt>
      <trkpt lat="49.42987" lon="1.14027">
        <ele>141</ele>
        <time>2017-12-19T12:34:58Z</time>
      </trkpt>
      <trkpt lat="49.42991" lon="1.14025">
        <ele>141</ele>
        <time>2017-12-19T12:34:58Z</time>
      </trkpt>
      <trkpt lat="49.42995" lon="1.14023">
        <ele>141</ele>
        <time>2017-12-19T12:34:58Z</time>
      </trkpt>
      <trkpt lat="49.43" lon="1.14022">
        <ele>141</ele>
        <time>2017-12-19T12:34:58Z</time>
      </trkpt>
      <trkpt lat="49.43004" lon="1.14019">
        <ele>141</ele>
        <time>2017-12-19T12:35:14Z</time>
      </trkpt>
      <trkpt lat="49.43007" lon="1.14013">
        <ele>141</ele>
        <time>2017-12-19T12:35:14Z</time>
      </trkpt>
      <trkpt lat="49.43009" lon="1.14006">
        <ele>141</ele>
        <time>2017-12-19T12:35:14Z</time>
      </trkpt>
      <trkpt lat="49.43012" lon="1.14">
        <ele>141</ele>
        <time>2017-12-19T12:35:14Z</time>
      </trkpt>
      <trkpt lat="49.43014" lon="1.13993">
        <ele>141</ele>
        <time>2017-12-19T12:35:30Z</time>
      </trkpt>
      <trkpt lat="49.43017" lon="1.13988">
        <ele>141</ele>
        <time>2017-12-19T12:35:30Z</time>
      </trkpt>
      <trkpt lat="49.4302" lon="1.13983">
        <ele>141</ele>
        <time>2017-12-19T12:35:30Z</time>
      </trkpt>
      <trkpt lat="49.43024" lon="1.13979">
        <ele>141</ele>
        <time>2017-12-19T12:35:30Z</time>
      </trkpt>
      <trkpt lat="49.43028" lon="1.13978">
        <ele>141</ele>
        <time>2017-12-19T12:35:46Z</time>
      </trkpt>
      <trkpt lat="49.43033" lon="1.13977">
        <ele>141</ele>
        <time>2017-12-19T12:35:46Z</time>
      </trkpt>
      <trkpt lat="49.43038" lon="1.13975">
        <ele>141</ele>
        <time>2017-12-19T12:35:46Z</time>
      </trkpt>
      <trkpt lat="49.43042" lon="1.13972">
        <ele>140</ele>
        <time>2017-12-19T12:35:46Z</time>
      </trkpt>
      <trkpt lat="49.43044" lon="1.13967">
        <ele>140</ele>
        <time>2017-12-19T12:36:02Z</time>
      </trkpt>
      <trkpt lat="49.43045" lon="1.13962">
        <ele>140</ele>
        <time>2017-12-19T12:36:02Z</time>
      </trkpt>
      <trkpt lat="49.43045" lon="1.13955">
        <ele>141</ele>
        <time>2017-12-19T12:36:02Z</time>
      </trkpt>
      <trkpt lat="49.43045" lon="1.13949">
        <ele>141</ele>
        <time>2017-12-19T12:36:02Z</time>
      </trkpt>
      <trkpt lat="49.43045" lon="1.13942">
        <ele>141</ele>
        <time>2017-12-19T12:36:18Z</time>
      </trkpt>
      <trkpt lat="49.43045" lon="1.13935">
        <ele>141</ele>
        <time>2017-12-19T12:36:18Z</time>
      </trkpt>
      <trkpt lat="49.43042" lon="1.1393">
        <ele>141</ele>
        <time>2017-12-19T12:36:18Z</time>
      </trkpt>
      <trkpt lat="49.4304" lon="1.13923">
        <ele>141</ele>
        <time>2017-12-19T12:36:18Z</time>
      </trkpt>
      <trkpt lat="49.43039" lon="1.13916">
        <ele>141</ele>
        <time>2017-12-19T12:36:34Z</time>
      </trkpt>
      <trkpt lat="49.43037" lon="1.13908">
        <ele>141</ele>
        <time>2017-12-19T12:36:34Z</time>
      </trkpt>
      <trkpt lat="49.43035" lon="1.13901">
        <ele>141</ele>
        <time>2017-12-19T12:36:34Z</time>
      </trkpt>
      <trkpt lat="49.43033" lon="1.13897">
        <ele>141</ele>
        <time>2017-12-19T12:36:34Z</time>
      </trkpt>
      <trkpt lat="49.43032" lon="1.13892">
        <ele>141</ele>
        <time>2017-12-19T12:36:50Z</time>
      </trkpt>
      <trkpt lat="49.4303" lon="1.13886">
        <ele>141</ele>
        <time>2017-12-19T12:36:50Z</time>
      </trkpt>
      <trkpt lat="49.43027" lon="1.13881">
        <ele>141</ele>
        <time>2017-12-19T12:36:50Z</time>
      </trkpt>
      <trkpt lat="49.43025" lon="1.13875">
        <ele>144</ele>
        <time>2017-12-19T12:36:50Z</time>
      </trkpt>
      <trkpt lat="49.43023" lon="1.13868">
        <ele>144</ele>
        <time>2017-12-19T12:37:06Z</time>
      </trkpt>
      <trkpt lat="49.4302" lon="1.13861">
        <ele>144</ele>
        <time>2017-12-19T12:37:07Z</time>
      </trkpt>
      <trkpt lat="49.43017" lon="1.13856">
        <ele>144</ele>
        <time>2017-12-19T12:37:07Z</time>
      </trkpt>
      <trkpt lat="49.43014" lon="1.13851">
        <ele>144</ele>
        <time>2017-12-19T12:37:07Z</time>
      </trkpt>
      <trkpt lat="49.43011" lon="1.13845">
        <ele>144</ele>
        <time>2017-12-19T12:37:22Z</time>
      </trkpt>
      <trkpt lat="49.43009" lon="1.1384">
        <ele>144</ele>
        <time>2017-12-19T12:37:22Z</time>
      </trkpt>
      <trkpt lat="49.43008" lon="1.13834">
        <ele>144</ele>
        <time>2017-12-19T12:37:23Z</time>
      </trkpt>
      <trkpt lat="49.43004" lon="1.13829">
        <ele>144</ele>
        <time>2017-12-19T12:37:23Z</time>
      </trkpt>
      <trkpt lat="49.43002" lon="1.13825">
        <ele>144</ele>
        <time>2017-12-19T12:37:38Z</time>
      </trkpt>
      <trkpt lat="49.43" lon="1.1382">
        <ele>144</ele>
        <time>2017-12-19T12:37:38Z</time>
      </trkpt>
      <trkpt lat="49.42997" lon="1.13814">
        <ele>144</ele>
        <time>2017-12-19T12:37:38Z</time>
      </trkpt>
      <trkpt lat="49.42996" lon="1.13805">
        <ele>144</ele>
        <time>2017-12-19T12:37:38Z</time>
      </trkpt>
      <trkpt lat="49.42996" lon="1.138">
        <ele>144</ele>
        <time>2017-12-19T12:37:54Z</time>
      </trkpt>
      <trkpt lat="49.42995" lon="1.13794">
        <ele>144</ele>
        <time>2017-12-19T12:37:54Z</time>
      </trkpt>
      <trkpt lat="49.42996" lon="1.1379">
        <ele>144</ele>
        <time>2017-12-19T12:37:54Z</time>
      </trkpt>
      <trkpt lat="49.42996" lon="1.13785">
        <ele>144</ele>
        <time>2017-12-19T12:37:54Z</time>
      </trkpt>
      <trkpt lat="49.42996" lon="1.1378">
        <ele>144</ele>
        <time>2017-12-19T12:38:10Z</time>
      </trkpt>
      <trkpt lat="49.42998" lon="1.13774">
        <ele>144</ele>
        <time>2017-12-19T12:38:10Z</time>
      </trkpt>
      <trkpt lat="49.42999" lon="1.13768">
        <ele>144</ele>
        <time>2017-12-19T12:38:10Z</time>
      </trkpt>
      <trkpt lat="49.43001" lon="1.13762">
        <ele>144</ele>
        <time>2017-12-19T12:38:10Z</time>
      </trkpt>
      <trkpt lat="49.43005" lon="1.13756">
        <ele>144</ele>
        <time>2017-12-19T12:38:26Z</time>
      </trkpt>
      <trkpt lat="49.43009" lon="1.13754">
        <ele>144</ele>
        <time>2017-12-19T12:38:26Z</time>
      </trkpt>
      <trkpt lat="49.43013" lon="1.13753">
        <ele>144</ele>
        <time>2017-12-19T12:38:26Z</time>
      </trkpt>
      <trkpt lat="49.43018" lon="1.13752">
        <ele>144</ele>
        <time>2017-12-19T12:38:26Z</time>
      </trkpt>
      <trkpt lat="49.43022" lon="1.13752">
        <ele>144</ele>
        <time>2017-12-19T12:38:42Z</time>
      </trkpt>
      <trkpt lat="49.43027" lon="1.13751">
        <ele>144</ele>
        <time>2017-12-19T12:38:42Z</time>
      </trkpt>
      <trkpt lat="49.43031" lon="1.1375">
        <ele>144</ele>
        <time>2017-12-19T12:38:42Z</time>
      </trkpt>
      <trkpt lat="49.43034" lon="1.13748">
        <ele>144</ele>
        <time>2017-12-19T12:38:42Z</time>
      </trkpt>
      <trkpt lat="49.43037" lon="1.13748">
        <ele>144</ele>
        <time>2017-12-19T12:38:58Z</time>
      </trkpt>
      <trkpt lat="49.4304" lon="1.13751">
        <ele>144</ele>
        <time>2017-12-19T12:38:58Z</time>
      </trkpt>
      <trkpt lat="49.43044" lon="1.13753">
        <ele>139</ele>
        <time>2017-12-19T12:38:58Z</time>
      </trkpt>
      <trkpt lat="49.43049" lon="1.13753">
        <ele>139</ele>
        <time>2017-12-19T12:38:58Z</time>
      </trkpt>
      <trkpt lat="49.43054" lon="1.13752">
        <ele>139</ele>
        <time>2017-12-19T12:39:14Z</time>
      </trkpt>
      <trkpt lat="49.43058" lon="1.13748">
        <ele>139</ele>
        <time>2017-12-19T12:39:14Z</time>
      </trkpt>
      <trkpt lat="49.4306" lon="1.13743">
        <ele>139</ele>
        <time>2017-12-19T12:39:14Z</time>
      </trkpt>
      <trkpt lat="49.43059" lon="1.13736">
        <ele>139</ele>
        <time>2017-12-19T12:39:14Z</time>
      </trkpt>
      <trkpt lat="49.43058" lon="1.1373">
        <ele>139</ele>
        <time>2017-12-19T12:39:30Z</time>
      </trkpt>
      <trkpt lat="49.43057" lon="1.13724">
        <ele>139</ele>
        <time>2017-12-19T12:39:30Z</time>
      </trkpt>
      <trkpt lat="49.43056" lon="1.13718">
        <ele>139</ele>
        <time>2017-12-19T12:39:30Z</time>
      </trkpt>
      <trkpt lat="49.43057" lon="1.13712">
        <ele>139</ele>
        <time>2017-12-19T12:39:30Z</time>
      </trkpt>
      <trkpt lat="49.43059" lon="1.13706">
        <ele>138</ele>
        <time>2017-12-19T12:39:46Z</time>
      </trkpt>
      <trkpt lat="49.43059" lon="1.137">
        <ele>138</ele>
        <time>2017-12-19T12:39:46Z</time>
      </trkpt>
      <trkpt lat="49.43058" lon="1.13693">
        <ele>138</ele>
        <time>2017-12-19T12:39:46Z</time>
      </trkpt>
      <trkpt lat="49.43057" lon="1.13685">
        <ele>138</ele>
        <time>2017-12-19T12:39:46Z</time>
      </trkpt>
      <trkpt lat="49.43056" lon="1.13679">
        <ele>138</ele>
        <time>2017-12-19T12:40:02Z</time>
      </trkpt>
      <trkpt lat="49.43055" lon="1.13671">
        <ele>138</ele>
        <time>2017-12-19T12:40:02Z</time>
      </trkpt>
      <trkpt lat="49.43055" lon="1.13665">
        <ele>138</ele>
        <time>2017-12-19T12:40:02Z</time>
      </trkpt>
      <trkpt lat="49.43055" lon="1.13659">
        <ele>138</ele>
        <time>2017-12-19T12:40:02Z</time>
      </trkpt>
      <trkpt lat="49.43058" lon="1.13654">
        <ele>138</ele>
        <time>2017-12-19T12:40:18Z</time>
      </trkpt>
      <trkpt lat="49.43062" lon="1.13648">
        <ele>138</ele>
        <time>2017-12-19T12:40:18Z</time>
      </trkpt>
      <trkpt lat="49.43065" lon="1.13646">
        <ele>138</ele>
        <time>2017-12-19T12:40:18Z</time>
      </trkpt>
      <trkpt lat="49.43069" lon="1.13642">
        <ele>138</ele>
        <time>2017-12-19T12:40:18Z</time>
      </trkpt>
      <trkpt lat="49.43071" lon="1.13637">
        <ele>138</ele>
        <time>2017-12-19T12:40:34Z</time>
      </trkpt>
      <trkpt lat="49.43075" lon="1.13633">
        <ele>138</ele>
        <time>2017-12-19T12:40:34Z</time>
      </trkpt>
      <trkpt lat="49.43079" lon="1.1363">
        <ele>138</ele>
        <time>2017-12-19T12:40:34Z</time>
      </trkpt>
      <trkpt lat="49.43083" lon="1.13629">
        <ele>138</ele>
        <time>2017-12-19T12:40:34Z</time>
      </trkpt>
      <trkpt lat="49.43092" lon="1.13621">
        <ele>136</ele>
        <time>2017-12-19T12:41:06Z</time>
      </trkpt>
      <trkpt lat="49.43092" lon="1.13621">
        <ele>136</ele>
        <time>2017-12-19T12:41:06Z</time>
      </trkpt>
      <trkpt lat="49.43091" lon="1.13619">
        <ele>136</ele>
        <time>2017-12-19T12:41:06Z</time>
      </trkpt>
      <trkpt lat="49.43092" lon="1.13618">
        <ele>136</ele>
        <time>2017-12-19T12:41:06Z</time>
      </trkpt>
      <trkpt lat="49.43095" lon="1.13618">
        <ele>136</ele>
        <time>2017-12-19T12:41:06Z</time>
      </trkpt>
      <trkpt lat="49.43096" lon="1.13611">
        <ele>136</ele>
        <time>2017-12-19T12:42:38Z</time>
      </trkpt>
      <trkpt lat="49.43096" lon="1.13611">
        <ele>136</ele>
        <time>2017-12-19T12:42:38Z</time>
      </trkpt>
      <trkpt lat="49.43097" lon="1.13611">
        <ele>136</ele>
        <time>2017-12-19T12:42:39Z</time>
      </trkpt>
      <trkpt lat="49.431" lon="1.13611">
        <ele>136</ele>
        <time>2017-12-19T12:42:39Z</time>
      </trkpt>
      <trkpt lat="49.43103" lon="1.13609">
        <ele>136</ele>
        <time>2017-12-19T12:42:39Z</time>
      </trkpt>
      <trkpt lat="49.43108" lon="1.13603">
        <ele>136</ele>
        <time>2017-12-19T12:43:06Z</time>
      </trkpt>
      <trkpt lat="49.43108" lon="1.13602">
        <ele>136</ele>
        <time>2017-12-19T12:43:06Z</time>
      </trkpt>
      <trkpt lat="49.4311" lon="1.13601">
        <ele>136</ele>
        <time>2017-12-19T12:43:07Z</time>
      </trkpt>
      <trkpt lat="49.43111" lon="1.13598">
        <ele>136</ele>
        <time>2017-12-19T12:43:07Z</time>
      </trkpt>
      <trkpt lat="49.43113" lon="1.13595">
        <ele>136</ele>
        <time>2017-12-19T12:43:07Z</time>
      </trkpt>
      <trkpt lat="49.43116" lon="1.13591">
        <ele>136</ele>
        <time>2017-12-19T12:43:26Z</time>
      </trkpt>
      <trkpt lat="49.43119" lon="1.13588">
        <ele>136</ele>
        <time>2017-12-19T12:43:26Z</time>
      </trkpt>
      <trkpt lat="49.43118" lon="1.13583">
        <ele>136</ele>
        <time>2017-12-19T12:43:27Z</time>
      </trkpt>
      <trkpt lat="49.43117" lon="1.13578">
        <ele>136</ele>
        <time>2017-12-19T12:43:27Z</time>
      </trkpt>
      <trkpt lat="49.43116" lon="1.13574">
        <ele>136</ele>
        <time>2017-12-19T12:43:27Z</time>
      </trkpt>
      <trkpt lat="49.43114" lon="1.13569">
        <ele>136</ele>
        <time>2017-12-19T12:43:42Z</time>
      </trkpt>
      <trkpt lat="49.43111" lon="1.13565">
        <ele>136</ele>
        <time>2017-12-19T12:43:42Z</time>
      </trkpt>
      <trkpt lat="49.43109" lon="1.1356">
        <ele>136</ele>
        <time>2017-12-19T12:43:43Z</time>
      </trkpt>
      <trkpt lat="49.43107" lon="1.13553">
        <ele>136</ele>
        <time>2017-12-19T12:43:43Z</time>
      </trkpt>
      <trkpt lat="49.43105" lon="1.13546">
        <ele>136</ele>
        <time>2017-12-19T12:43:58Z</time>
      </trkpt>
      <trkpt lat="49.43103" lon="1.13541">
        <ele>134</ele>
        <time>2017-12-19T12:43:58Z</time>
      </trkpt>
      <trkpt lat="49.43102" lon="1.13534">
        <ele>134</ele>
        <time>2017-12-19T12:43:59Z</time>
      </trkpt>
      <trkpt lat="49.431" lon="1.13528">
        <ele>134</ele>
        <time>2017-12-19T12:43:59Z</time>
      </trkpt>
      <trkpt lat="49.43098" lon="1.13522">
        <ele>134</ele>
        <time>2017-12-19T12:44:14Z</time>
      </trkpt>
      <trkpt lat="49.43096" lon="1.13517">
        <ele>134</ele>
        <time>2017-12-19T12:44:14Z</time>
      </trkpt>
      <trkpt lat="49.43095" lon="1.1351">
        <ele>134</ele>
        <time>2017-12-19T12:44:15Z</time>
      </trkpt>
      <trkpt lat="49.43094" lon="1.13504">
        <ele>134</ele>
        <time>2017-12-19T12:44:15Z</time>
      </trkpt>
      <trkpt lat="49.43092" lon="1.13497">
        <ele>134</ele>
        <time>2017-12-19T12:44:30Z</time>
      </trkpt>
      <trkpt lat="49.43091" lon="1.13492">
        <ele>134</ele>
        <time>2017-12-19T12:44:30Z</time>
      </trkpt>
      <trkpt lat="49.4309" lon="1.13486">
        <ele>134</ele>
        <time>2017-12-19T12:44:30Z</time>
      </trkpt>
      <trkpt lat="49.43088" lon="1.13481">
        <ele>134</ele>
        <time>2017-12-19T12:44:30Z</time>
      </trkpt>
      <trkpt lat="49.43086" lon="1.13476">
        <ele>134</ele>
        <time>2017-12-19T12:44:46Z</time>
      </trkpt>
      <trkpt lat="49.43082" lon="1.13471">
        <ele>134</ele>
        <time>2017-12-19T12:44:47Z</time>
      </trkpt>
      <trkpt lat="49.4308" lon="1.13467">
        <ele>134</ele>
        <time>2017-12-19T12:44:47Z</time>
      </trkpt>
      <trkpt lat="49.43077" lon="1.13462">
        <ele>134</ele>
        <time>2017-12-19T12:44:47Z</time>
      </trkpt>
      <trkpt lat="49.43074" lon="1.13456">
        <ele>129</ele>
        <time>2017-12-19T12:45:02Z</time>
      </trkpt>
      <trkpt lat="49.43071" lon="1.13451">
        <ele>129</ele>
        <time>2017-12-19T12:45:02Z</time>
      </trkpt>
      <trkpt lat="49.43068" lon="1.13446">
        <ele>129</ele>
        <time>2017-12-19T12:45:03Z</time>
      </trkpt>
      <trkpt lat="49.43065" lon="1.13441">
        <ele>129</ele>
        <time>2017-12-19T12:45:03Z</time>
      </trkpt>
      <trkpt lat="49.43062" lon="1.13437">
        <ele>129</ele>
        <time>2017-12-19T12:45:18Z</time>
      </trkpt>
      <trkpt lat="49.43058" lon="1.13434">
        <ele>129</ele>
        <time>2017-12-19T12:45:18Z</time>
      </trkpt>
      <trkpt lat="49.43054" lon="1.13431">
        <ele>129</ele>
        <time>2017-12-19T12:45:19Z</time>
      </trkpt>
      <trkpt lat="49.43051" lon="1.13427">
        <ele>129</ele>
        <time>2017-12-19T12:45:19Z</time>
      </trkpt>
      <trkpt lat="49.43048" lon="1.13422">
        <ele>129</ele>
        <time>2017-12-19T12:45:34Z</time>
      </trkpt>
      <trkpt lat="49.43045" lon="1.13418">
        <ele>129</ele>
        <time>2017-12-19T12:45:34Z</time>
      </trkpt>
      <trkpt lat="49.43043" lon="1.13413">
        <ele>129</ele>
        <time>2017-12-19T12:45:35Z</time>
      </trkpt>
      <trkpt lat="49.43041" lon="1.13408">
        <ele>139</ele>
        <time>2017-12-19T12:45:35Z</time>
      </trkpt>
      <trkpt lat="49.43038" lon="1.13402">
        <ele>139</ele>
        <time>2017-12-19T12:45:50Z</time>
      </trkpt>
      <trkpt lat="49.43036" lon="1.13396">
        <ele>139</ele>
        <time>2017-12-19T12:45:50Z</time>
      </trkpt>
      <trkpt lat="49.43034" lon="1.1339">
        <ele>139</ele>
        <time>2017-12-19T12:45:51Z</time>
      </trkpt>
      <trkpt lat="49.43032" lon="1.13384">
        <ele>139</ele>
        <time>2017-12-19T12:45:51Z</time>
      </trkpt>
      <trkpt lat="49.43029" lon="1.1338">
        <ele>139</ele>
        <time>2017-12-19T12:46:06Z</time>
      </trkpt>
      <trkpt lat="49.43027" lon="1.13378">
        <ele>139</ele>
        <time>2017-12-19T12:46:06Z</time>
      </trkpt>
      <trkpt lat="49.43024" lon="1.13375">
        <ele>136</ele>
        <time>2017-12-19T12:46:07Z</time>
      </trkpt>
      <trkpt lat="49.43021" lon="1.13371">
        <ele>136</ele>
        <time>2017-12-19T12:46:07Z</time>
      </trkpt>
      <trkpt lat="49.43017" lon="1.13366">
        <ele>136</ele>
        <time>2017-12-19T12:46:22Z</time>
      </trkpt>
      <trkpt lat="49.43014" lon="1.13361">
        <ele>136</ele>
        <time>2017-12-19T12:46:23Z</time>
      </trkpt>
      <trkpt lat="49.43011" lon="1.13357">
        <ele>136</ele>
        <time>2017-12-19T12:46:23Z</time>
      </trkpt>
      <trkpt lat="49.43009" lon="1.13352">
        <ele>136</ele>
        <time>2017-12-19T12:46:23Z</time>
      </trkpt>
      <trkpt lat="49.43006" lon="1.13347">
        <ele>136</ele>
        <time>2017-12-19T12:46:38Z</time>
      </trkpt>
      <trkpt lat="49.43004" lon="1.13342">
        <ele>136</ele>
        <time>2017-12-19T12:46:39Z</time>
      </trkpt>
      <trkpt lat="49.43001" lon="1.13336">
        <ele>136</ele>
        <time>2017-12-19T12:46:39Z</time>
      </trkpt>
      <trkpt lat="49.42998" lon="1.13332">
        <ele>136</ele>
        <time>2017-12-19T12:46:39Z</time>
      </trkpt>
      <trkpt lat="49.42996" lon="1.13326">
        <ele>136</ele>
        <time>2017-12-19T12:46:54Z</time>
      </trkpt>
      <trkpt lat="49.42992" lon="1.13322">
        <ele>136</ele>
        <time>2017-12-19T12:46:55Z</time>
      </trkpt>
      <trkpt lat="49.42989" lon="1.13319">
        <ele>136</ele>
        <time>2017-12-19T12:46:55Z</time>
      </trkpt>
      <trkpt lat="49.42985" lon="1.13315">
        <ele>136</ele>
        <time>2017-12-19T12:46:55Z</time>
      </trkpt>
      <trkpt lat="49.42985" lon="1.13309">
        <ele>136</ele>
        <time>2017-12-19T12:47:10Z</time>
      </trkpt>
      <trkpt lat="49.42984" lon="1.13304">
        <ele>136</ele>
        <time>2017-12-19T12:47:10Z</time>
      </trkpt>
      <trkpt lat="49.42986" lon="1.13299">
        <ele>136</ele>
        <time>2017-12-19T12:47:11Z</time>
      </trkpt>
      <trkpt lat="49.42988" lon="1.13295">
        <ele>136</ele>
        <time>2017-12-19T12:47:11Z</time>
      </trkpt>
      <trkpt lat="49.42989" lon="1.13292">
        <ele>136</ele>
        <time>2017-12-19T12:47:26Z</time>
      </trkpt>
      <trkpt lat="49.42991" lon="1.13288">
        <ele>131</ele>
        <time>2017-12-19T12:47:26Z</time>
      </trkpt>
      <trkpt lat="49.42992" lon="1.13282">
        <ele>131</ele>
        <time>2017-12-19T12:47:27Z</time>
      </trkpt>
      <trkpt lat="49.42992" lon="1.13277">
        <ele>131</ele>
        <time>2017-12-19T12:47:27Z</time>
      </trkpt>
      <trkpt lat="49.4299" lon="1.13271">
        <ele>131</ele>
        <time>2017-12-19T12:47:42Z</time>
      </trkpt>
      <trkpt lat="49.42989" lon="1.13266">
        <ele>131</ele>
        <time>2017-12-19T12:47:42Z</time>
      </trkpt>
      <trkpt lat="49.42989" lon="1.13261">
        <ele>131</ele>
        <time>2017-12-19T12:47:43Z</time>
      </trkpt>
      <trkpt lat="49.42989" lon="1.13258">
        <ele>131</ele>
        <time>2017-12-19T12:47:43Z</time>
      </trkpt>
      <trkpt lat="49.42988" lon="1.13252">
        <ele>131</ele>
        <time>2017-12-19T12:47:58Z</time>
      </trkpt>
      <trkpt lat="49.42987" lon="1.13247">
        <ele>131</ele>
        <time>2017-12-19T12:47:59Z</time>
      </trkpt>
      <trkpt lat="49.42986" lon="1.13242">
        <ele>131</ele>
        <time>2017-12-19T12:47:59Z</time>
      </trkpt>
      <trkpt lat="49.42982" lon="1.13239">
        <ele>131</ele>
        <time>2017-12-19T12:47:59Z</time>
      </trkpt>
      <trkpt lat="49.4298" lon="1.13236">
        <ele>131</ele>
        <time>2017-12-19T12:48:14Z</time>
      </trkpt>
      <trkpt lat="49.42977" lon="1.13231">
        <ele>131</ele>
        <time>2017-12-19T12:48:14Z</time>
      </trkpt>
      <trkpt lat="49.42976" lon="1.13226">
        <ele>131</ele>
        <time>2017-12-19T12:48:15Z</time>
      </trkpt>
      <trkpt lat="49.42974" lon="1.1322">
        <ele>131</ele>
        <time>2017-12-19T12:48:15Z</time>
      </trkpt>
      <trkpt lat="49.42973" lon="1.13214">
        <ele>131</ele>
        <time>2017-12-19T12:48:30Z</time>
      </trkpt>
      <trkpt lat="49.42971" lon="1.13208">
        <ele>131</ele>
        <time>2017-12-19T12:48:30Z</time>
      </trkpt>
      <trkpt lat="49.42971" lon="1.13203">
        <ele>127</ele>
        <time>2017-12-19T12:48:31Z</time>
      </trkpt>
      <trkpt lat="49.4297" lon="1.13197">
        <ele>127</ele>
        <time>2017-12-19T12:48:31Z</time>
      </trkpt>
      <trkpt lat="49.42971" lon="1.1319">
        <ele>127</ele>
        <time>2017-12-19T12:48:50Z</time>
      </trkpt>
      <trkpt lat="49.42971" lon="1.13184">
        <ele>127</ele>
        <time>2017-12-19T12:48:50Z</time>
      </trkpt>
      <trkpt lat="49.42973" lon="1.1318">
        <ele>127</ele>
        <time>2017-12-19T12:48:51Z</time>
      </trkpt>
      <trkpt lat="49.42973" lon="1.13177">
        <ele>127</ele>
        <time>2017-12-19T12:48:51Z</time>
      </trkpt>
      <trkpt lat="49.42973" lon="1.13173">
        <ele>127</ele>
        <time>2017-12-19T12:48:51Z</time>
      </trkpt>
      <trkpt lat="49.42974" lon="1.13167">
        <ele>127</ele>
        <time>2017-12-19T12:49:14Z</time>
      </trkpt>
      <trkpt lat="49.42975" lon="1.13165">
        <ele>127</ele>
        <time>2017-12-19T12:49:14Z</time>
      </trkpt>
      <trkpt lat="49.42977" lon="1.13163">
        <ele>127</ele>
        <time>2017-12-19T12:49:15Z</time>
      </trkpt>
      <trkpt lat="49.42977" lon="1.1316">
        <ele>127</ele>
        <time>2017-12-19T12:49:15Z</time>
      </trkpt>
      <trkpt lat="49.42977" lon="1.13157">
        <ele>127</ele>
        <time>2017-12-19T12:49:15Z</time>
      </trkpt>
      <trkpt lat="49.42979" lon="1.13153">
        <ele>127</ele>
        <time>2017-12-19T12:49:30Z</time>
      </trkpt>
      <trkpt lat="49.4298" lon="1.13148">
        <ele>127</ele>
        <time>2017-12-19T12:49:30Z</time>
      </trkpt>
      <trkpt lat="49.42981" lon="1.13142">
        <ele>127</ele>
        <time>2017-12-19T12:49:31Z</time>
      </trkpt>
      <trkpt lat="49.42979" lon="1.13136">
        <ele>127</ele>
        <time>2017-12-19T12:49:31Z</time>
      </trkpt>
      <trkpt lat="49.42975" lon="1.13121">
        <ele>122</ele>
        <time>2017-12-19T12:50:14Z</time>
      </trkpt>
      <trkpt lat="49.42975" lon="1.1312">
        <ele>122</ele>
        <time>2017-12-19T12:50:14Z</time>
      </trkpt>
      <trkpt lat="49.42975" lon="1.13119">
        <ele>122</ele>
        <time>2017-12-19T12:50:15Z</time>
      </trkpt>
      <trkpt lat="49.42975" lon="1.13119">
        <ele>122</ele>
        <time>2017-12-19T12:50:15Z</time>
      </trkpt>
      <trkpt lat="49.42976" lon="1.13117">
        <ele>122</ele>
        <time>2017-12-19T12:50:15Z</time>
      </trkpt>
      <trkpt lat="49.42972" lon="1.13108">
        <ele>122</ele>
        <time>2017-12-19T12:53:06Z</time>
      </trkpt>
      <trkpt lat="49.42972" lon="1.13108">
        <ele>122</ele>
        <time>2017-12-19T12:53:06Z</time>
      </trkpt>
      <trkpt lat="49.42971" lon="1.13107">
        <ele>122</ele>
        <time>2017-12-19T12:53:07Z</time>
      </trkpt>
      <trkpt lat="49.4297" lon="1.13105">
        <ele>122</ele>
        <time>2017-12-19T12:53:07Z</time>
      </trkpt>
      <trkpt lat="49.42969" lon="1.13104">
        <ele>122</ele>
        <time>2017-12-19T12:53:07Z</time>
      </trkpt>
      <trkpt lat="49.42967" lon="1.13101">
        <ele>122</ele>
        <time>2017-12-19T12:53:22Z</time>
      </trkpt>
      <trkpt lat="49.42965" lon="1.13097">
        <ele>122</ele>
        <time>2017-12-19T12:53:22Z</time>
      </trkpt>
      <trkpt lat="49.42963" lon="1.13093">
        <ele>122</ele>
        <time>2017-12-19T12:53:23Z</time>
      </trkpt>
      <trkpt lat="49.42962" lon="1.13089">
        <ele>122</ele>
        <time>2017-12-19T12:53:23Z</time>
      </trkpt>
      <trkpt lat="49.42961" lon="1.13088">
        <ele>122</ele>
        <time>2017-12-19T12:53:46Z</time>
      </trkpt>
      <trkpt lat="49.42962" lon="1.13085">
        <ele>122</ele>
        <time>2017-12-19T12:53:47Z</time>
      </trkpt>
      <trkpt lat="49.42961" lon="1.13082">
        <ele>122</ele>
        <time>2017-12-19T12:53:47Z</time>
      </trkpt>
      <trkpt lat="49.4296" lon="1.13079">
        <ele>122</ele>
        <time>2017-12-19T12:53:47Z</time>
      </trkpt>
      <trkpt lat="49.42958" lon="1.13074">
        <ele>140</ele>
        <time>2017-12-19T12:53:47Z</time>
      </trkpt>
      <trkpt lat="49.42956" lon="1.1307">
        <ele>140</ele>
        <time>2017-12-19T12:54:02Z</time>
      </trkpt>
      <trkpt lat="49.42955" lon="1.13065">
        <ele>140</ele>
        <time>2017-12-19T12:54:02Z</time>
      </trkpt>
      <trkpt lat="49.42955" lon="1.1306">
        <ele>140</ele>
        <time>2017-12-19T12:54:03Z</time>
      </trkpt>
      <trkpt lat="49.42955" lon="1.13056">
        <ele>140</ele>
        <time>2017-12-19T12:54:03Z</time>
      </trkpt>
      <trkpt lat="49.42954" lon="1.13051">
        <ele>140</ele>
        <time>2017-12-19T12:54:22Z</time>
      </trkpt>
      <trkpt lat="49.42954" lon="1.13046">
        <ele>140</ele>
        <time>2017-12-19T12:54:22Z</time>
      </trkpt>
      <trkpt lat="49.42954" lon="1.13042">
        <ele>141</ele>
        <time>2017-12-19T12:54:23Z</time>
      </trkpt>
      <trkpt lat="49.42953" lon="1.13038">
        <ele>141</ele>
        <time>2017-12-19T12:54:23Z</time>
      </trkpt>
      <trkpt lat="49.42952" lon="1.13034">
        <ele>141</ele>
        <time>2017-12-19T12:54:23Z</time>
      </trkpt>
      <trkpt lat="49.42952" lon="1.13029">
        <ele>141</ele>
        <time>2017-12-19T12:54:38Z</time>
      </trkpt>
      <trkpt lat="49.42952" lon="1.13024">
        <ele>141</ele>
        <time>2017-12-19T12:54:39Z</time>
      </trkpt>
      <trkpt lat="49.42951" lon="1.13019">
        <ele>141</ele>
        <time>2017-12-19T12:54:39Z</time>
      </trkpt>
      <trkpt lat="49.42949" lon="1.13015">
        <ele>141</ele>
        <time>2017-12-19T12:54:39Z</time>
      </trkpt>
      <trkpt lat="49.42946" lon="1.13012">
        <ele>141</ele>
        <time>2017-12-19T12:54:54Z</time>
      </trkpt>
      <trkpt lat="49.42943" lon="1.13009">
        <ele>141</ele>
        <time>2017-12-19T12:54:54Z</time>
      </trkpt>
      <trkpt lat="49.4294" lon="1.13005">
        <ele>141</ele>
        <time>2017-12-19T12:54:55Z</time>
      </trkpt>
      <trkpt lat="49.42936" lon="1.13001">
        <ele>141</ele>
        <time>2017-12-19T12:54:55Z</time>
      </trkpt>
      <trkpt lat="49.42933" lon="1.12996">
        <ele>141</ele>
        <time>2017-12-19T12:55:10Z</time>
      </trkpt>
      <trkpt lat="49.4293" lon="1.1299">
        <ele>141</ele>
        <time>2017-12-19T12:55:11Z</time>
      </trkpt>
      <trkpt lat="49.42928" lon="1.12984">
        <ele>141</ele>
        <time>2017-12-19T12:55:11Z</time>
      </trkpt>
      <trkpt lat="49.42927" lon="1.12977">
        <ele>141</ele>
        <time>2017-12-19T12:55:11Z</time>
      </trkpt>
      <trkpt lat="49.42928" lon="1.12971">
        <ele>141</ele>
        <time>2017-12-19T12:55:26Z</time>
      </trkpt>
      <trkpt lat="49.42929" lon="1.12965">
        <ele>141</ele>
        <time>2017-12-19T12:55:26Z</time>
      </trkpt>
      <trkpt lat="49.42931" lon="1.1296">
        <ele>141</ele>
        <time>2017-12-19T12:55:27Z</time>
      </trkpt>
      <trkpt lat="49.42933" lon="1.12955">
        <ele>139</ele>
        <time>2017-12-19T12:55:27Z</time>
      </trkpt>
      <trkpt lat="49.42936" lon="1.1295">
        <ele>139</ele>
        <time>2017-12-19T12:55:42Z</time>
      </trkpt>
      <trkpt lat="49.42938" lon="1.12946">
        <ele>139</ele>
        <time>2017-12-19T12:55:42Z</time>
      </trkpt>
      <trkpt lat="49.42941" lon="1.12942">
        <ele>139</ele>
        <time>2017-12-19T12:55:43Z</time>
      </trkpt>
      <trkpt lat="49.42942" lon="1.12937">
        <ele>139</ele>
        <time>2017-12-19T12:55:43Z</time>
      </trkpt>
      <trkpt lat="49.42945" lon="1.12931">
        <ele>139</ele>
        <time>2017-12-19T12:55:58Z</time>
      </trkpt>
      <trkpt lat="49.42947" lon="1.12926">
        <ele>139</ele>
        <time>2017-12-19T12:55:58Z</time>
      </trkpt>
      <trkpt lat="49.4295" lon="1.12921">
        <ele>139</ele>
        <time>2017-12-19T12:55:59Z</time>
      </trkpt>
      <trkpt lat="49.42954" lon="1.12919">
        <ele>139</ele>
        <time>2017-12-19T12:55:59Z</time>
      </trkpt>
      <trkpt lat="49.42958" lon="1.12917">
        <ele>139</ele>
        <time>2017-12-19T12:56:14Z</time>
      </trkpt>
      <trkpt lat="49.42962" lon="1.12916">
        <ele>138</ele>
        <time>2017-12-19T12:56:14Z</time>
      </trkpt>
      <trkpt lat="49.42967" lon="1.12915">
        <ele>138</ele>
        <time>2017-12-19T12:56:15Z</time>
      </trkpt>
      <trkpt lat="49.42971" lon="1.12914">
        <ele>138</ele>
        <time>2017-12-19T12:56:15Z</time>
      </trkpt>
      <trkpt lat="49.42975" lon="1.12913">
        <ele>138</ele>
        <time>2017-12-19T12:56:30Z</time>
      </trkpt>
      <trkpt lat="49.42979" lon="1.12911">
        <ele>138</ele>
        <time>2017-12-19T12:56:30Z</time>
      </trkpt>
      <trkpt lat="49.42983" lon="1.12911">
        <ele>138</ele>
        <time>2017-12-19T12:56:31Z</time>
      </trkpt>
      <trkpt lat="49.42987" lon="1.1291">
        <ele>138</ele>
        <time>2017-12-19T12:56:31Z</time>
      </trkpt>
      <trkpt lat="49.42991" lon="1.1291">
        <ele>138</ele>
        <time>2017-12-19T12:56:46Z</time>
      </trkpt>
      <trkpt lat="49.42995" lon="1.12908">
        <ele>138</ele>
        <time>2017-12-19T12:56:46Z</time>
      </trkpt>
      <trkpt lat="49.42999" lon="1.12907">
        <ele>138</ele>
        <time>2017-12-19T12:56:47Z</time>
      </trkpt>
      <trkpt lat="49.43003" lon="1.12906">
        <ele>138</ele>
        <time>2017-12-19T12:56:47Z</time>
      </trkpt>
      <trkpt lat="49.43006" lon="1.12904">
        <ele>138</ele>
        <time>2017-12-19T12:57:02Z</time>
      </trkpt>
      <trkpt lat="49.4301" lon="1.12903">
        <ele>138</ele>
        <time>2017-12-19T12:57:02Z</time>
      </trkpt>
      <trkpt lat="49.43014" lon="1.12902">
        <ele>138</ele>
        <time>2017-12-19T12:57:03Z</time>
      </trkpt>
      <trkpt lat="49.43018" lon="1.12899">
        <ele>138</ele>
        <time>2017-12-19T12:57:03Z</time>
      </trkpt>
      <trkpt lat="49.43021" lon="1.12897">
        <ele>138</ele>
        <time>2017-12-19T12:57:18Z</time>
      </trkpt>
      <trkpt lat="49.43025" lon="1.12894">
        <ele>138</ele>
        <time>2017-12-19T12:57:18Z</time>
      </trkpt>
      <trkpt lat="49.43029" lon="1.12891">
        <ele>138</ele>
        <time>2017-12-19T12:57:18Z</time>
      </trkpt>
      <trkpt lat="49.43033" lon="1.12887">
        <ele>138</ele>
        <time>2017-12-19T12:57:19Z</time>
      </trkpt>
      <trkpt lat="49.43037" lon="1.12884">
        <ele>138</ele>
        <time>2017-12-19T12:57:34Z</time>
      </trkpt>
      <trkpt lat="49.43041" lon="1.12881">
        <ele>138</ele>
        <time>2017-12-19T12:57:34Z</time>
      </trkpt>
      <trkpt lat="49.43045" lon="1.12877">
        <ele>135</ele>
        <time>2017-12-19T12:57:35Z</time>
      </trkpt>
      <trkpt lat="49.43049" lon="1.12873">
        <ele>143</ele>
        <time>2017-12-19T12:57:35Z</time>
      </trkpt>
      <trkpt lat="49.43052" lon="1.12868">
        <ele>143</ele>
        <time>2017-12-19T12:57:50Z</time>
      </trkpt>
      <trkpt lat="49.43053" lon="1.12863">
        <ele>143</ele>
        <time>2017-12-19T12:57:50Z</time>
      </trkpt>
      <trkpt lat="49.43053" lon="1.1286">
        <ele>143</ele>
        <time>2017-12-19T12:57:51Z</time>
      </trkpt>
      <trkpt lat="49.43051" lon="1.12854">
        <ele>143</ele>
        <time>2017-12-19T12:57:51Z</time>
      </trkpt>
      <trkpt lat="49.4305" lon="1.12848">
        <ele>143</ele>
        <time>2017-12-19T12:58:06Z</time>
      </trkpt>
      <trkpt lat="49.43049" lon="1.12842">
        <ele>143</ele>
        <time>2017-12-19T12:58:06Z</time>
      </trkpt>
      <trkpt lat="49.43049" lon="1.12837">
        <ele>143</ele>
        <time>2017-12-19T12:58:06Z</time>
      </trkpt>
      <trkpt lat="49.43047" lon="1.1283">
        <ele>143</ele>
        <time>2017-12-19T12:58:06Z</time>
      </trkpt>
      <trkpt lat="49.43046" lon="1.12825">
        <ele>143</ele>
        <time>2017-12-19T12:58:22Z</time>
      </trkpt>
      <trkpt lat="49.43044" lon="1.12819">
        <ele>143</ele>
        <time>2017-12-19T12:58:22Z</time>
      </trkpt>
      <trkpt lat="49.43043" lon="1.12812">
        <ele>143</ele>
        <time>2017-12-19T12:58:23Z</time>
      </trkpt>
      <trkpt lat="49.43042" lon="1.12806">
        <ele>143</ele>
        <time>2017-12-19T12:58:23Z</time>
      </trkpt>
      <trkpt lat="49.43041" lon="1.128">
        <ele>142</ele>
        <time>2017-12-19T12:58:38Z</time>
      </trkpt>
      <trkpt lat="49.43042" lon="1.12793">
        <ele>143</ele>
        <time>2017-12-19T12:58:38Z</time>
      </trkpt>
      <trkpt lat="49.43043" lon="1.12786">
        <ele>144</ele>
        <time>2017-12-19T12:58:38Z</time>
      </trkpt>
      <trkpt lat="49.43046" lon="1.1278">
        <ele>144</ele>
        <time>2017-12-19T12:58:39Z</time>
      </trkpt>
      <trkpt lat="49.43049" lon="1.12776">
        <ele>144</ele>
        <time>2017-12-19T12:58:54Z</time>
      </trkpt>
      <trkpt lat="49.43052" lon="1.12771">
        <ele>144</ele>
        <time>2017-12-19T12:58:54Z</time>
      </trkpt>
      <trkpt lat="49.43055" lon="1.12766">
        <ele>144</ele>
        <time>2017-12-19T12:58:55Z</time>
      </trkpt>
      <trkpt lat="49.43058" lon="1.12761">
        <ele>144</ele>
        <time>2017-12-19T12:58:55Z</time>
      </trkpt>
      <trkpt lat="49.4306" lon="1.12754">
        <ele>144</ele>
        <time>2017-12-19T12:59:10Z</time>
      </trkpt>
      <trkpt lat="49.43061" lon="1.12748">
        <ele>144</ele>
        <time>2017-12-19T12:59:10Z</time>
      </trkpt>
      <trkpt lat="49.43063" lon="1.12743">
        <ele>144</ele>
        <time>2017-12-19T12:59:11Z</time>
      </trkpt>
      <trkpt lat="49.43065" lon="1.12737">
        <ele>144</ele>
        <time>2017-12-19T12:59:11Z</time>
      </trkpt>
      <trkpt lat="49.43066" lon="1.12731">
        <ele>144</ele>
        <time>2017-12-19T12:59:26Z</time>
      </trkpt>
      <trkpt lat="49.43067" lon="1.12724">
        <ele>144</ele>
        <time>2017-12-19T12:59:27Z</time>
      </trkpt>
      <trkpt lat="49.43069" lon="1.12717">
        <ele>144</ele>
        <time>2017-12-19T12:59:27Z</time>
      </trkpt>
      <trkpt lat="49.43071" lon="1.12712">
        <ele>144</ele>
        <time>2017-12-19T12:59:27Z</time>
      </trkpt>
      <trkpt lat="49.43073" lon="1.12706">
        <ele>143</ele>
        <time>2017-12-19T12:59:42Z</time>
      </trkpt>
      <trkpt lat="49.43075" lon="1.127">
        <ele>143</ele>
        <time>2017-12-19T12:59:42Z</time>
      </trkpt>
      <trkpt lat="49.43077" lon="1.12694">
        <ele>143</ele>
        <time>2017-12-19T12:59:43Z</time>
      </trkpt>
      <trkpt lat="49.43079" lon="1.12689">
        <ele>143</ele>
        <time>2017-12-19T12:59:43Z</time>
      </trkpt>
      <trkpt lat="49.43081" lon="1.12683">
        <ele>143</ele>
        <time>2017-12-19T12:59:58Z</time>
      </trkpt>
      <trkpt lat="49.43083" lon="1.12675">
        <ele>143</ele>
        <time>2017-12-19T12:59:58Z</time>
      </trkpt>
      <trkpt lat="49.43084" lon="1.12666">
        <ele>143</ele>
        <time>2017-12-19T12:59:59Z</time>
      </trkpt>
      <trkpt lat="49.43086" lon="1.12658">
        <ele>143</ele>
        <time>2017-12-19T12:59:59Z</time>
      </trkpt>
      <trkpt lat="49.43088" lon="1.1265">
        <ele>143</ele>
        <time>2017-12-19T13:00:14Z</time>
      </trkpt>
      <trkpt lat="49.43088" lon="1.12645">
        <ele>143</ele>
        <time>2017-12-19T13:00:14Z</time>
      </trkpt>
      <trkpt lat="49.43091" lon="1.12639">
        <ele>143</ele>
        <time>2017-12-19T13:00:15Z</time>
      </trkpt>
      <trkpt lat="49.43094" lon="1.12632">
        <ele>143</ele>
        <time>2017-12-19T13:00:15Z</time>
      </trkpt>
      <trkpt lat="49.43096" lon="1.12625">
        <ele>143</ele>
        <time>2017-12-19T13:00:30Z</time>
      </trkpt>
      <trkpt lat="49.43098" lon="1.12618">
        <ele>142</ele>
        <time>2017-12-19T13:00:30Z</time>
      </trkpt>
      <trkpt lat="49.431" lon="1.12611">
        <ele>142</ele>
        <time>2017-12-19T13:00:31Z</time>
      </trkpt>
      <trkpt lat="49.43102" lon="1.12605">
        <ele>142</ele>
        <time>2017-12-19T13:00:31Z</time>
      </trkpt>
      <trkpt lat="49.43106" lon="1.12599">
        <ele>142</ele>
        <time>2017-12-19T13:00:46Z</time>
      </trkpt>
      <trkpt lat="49.43109" lon="1.12594">
        <ele>142</ele>
        <time>2017-12-19T13:00:46Z</time>
      </trkpt>
      <trkpt lat="49.4311" lon="1.12587">
        <ele>142</ele>
        <time>2017-12-19T13:00:47Z</time>
      </trkpt>
      <trkpt lat="49.43113" lon="1.12581">
        <ele>142</ele>
        <time>2017-12-19T13:00:47Z</time>
      </trkpt>
      <trkpt lat="49.43114" lon="1.12574">
        <ele>142</ele>
        <time>2017-12-19T13:01:02Z</time>
      </trkpt>
      <trkpt lat="49.43116" lon="1.12566">
        <ele>142</ele>
        <time>2017-12-19T13:01:02Z</time>
      </trkpt>
      <trkpt lat="49.43117" lon="1.12558">
        <ele>142</ele>
        <time>2017-12-19T13:01:03Z</time>
      </trkpt>
      <trkpt lat="49.43118" lon="1.12549">
        <ele>142</ele>
        <time>2017-12-19T13:01:03Z</time>
      </trkpt>
      <trkpt lat="49.4312" lon="1.12541">
        <ele>142</ele>
        <time>2017-12-19T13:01:18Z</time>
      </trkpt>
      <trkpt lat="49.43122" lon="1.12534">
        <ele>142</ele>
        <time>2017-12-19T13:01:18Z</time>
      </trkpt>
      <trkpt lat="49.43124" lon="1.12527">
        <ele>142</ele>
        <time>2017-12-19T13:01:19Z</time>
      </trkpt>
      <trkpt lat="49.43125" lon="1.12519">
        <ele>136</ele>
        <time>2017-12-19T13:01:19Z</time>
      </trkpt>
      <trkpt lat="49.43127" lon="1.12512">
        <ele>136</ele>
        <time>2017-12-19T13:01:34Z</time>
      </trkpt>
      <trkpt lat="49.43129" lon="1.12505">
        <ele>136</ele>
        <time>2017-12-19T13:01:34Z</time>
      </trkpt>
      <trkpt lat="49.4313" lon="1.12497">
        <ele>136</ele>
        <time>2017-12-19T13:01:35Z</time>
      </trkpt>
      <trkpt lat="49.43132" lon="1.12491">
        <ele>136</ele>
        <time>2017-12-19T13:01:35Z</time>
      </trkpt>
      <trkpt lat="49.43135" lon="1.12484">
        <ele>136</ele>
        <time>2017-12-19T13:01:50Z</time>
      </trkpt>
      <trkpt lat="49.43136" lon="1.12477">
        <ele>136</ele>
        <time>2017-12-19T13:01:50Z</time>
      </trkpt>
      <trkpt lat="49.43137" lon="1.1247">
        <ele>136</ele>
        <time>2017-12-19T13:01:51Z</time>
      </trkpt>
      <trkpt lat="49.43139" lon="1.12463">
        <ele>136</ele>
        <time>2017-12-19T13:01:51Z</time>
      </trkpt>
      <trkpt lat="49.4314" lon="1.12456">
        <ele>139</ele>
        <time>2017-12-19T13:02:06Z</time>
      </trkpt>
      <trkpt lat="49.43141" lon="1.1245">
        <ele>139</ele>
        <time>2017-12-19T13:02:06Z</time>
      </trkpt>
      <trkpt lat="49.43143" lon="1.12443">
        <ele>139</ele>
        <time>2017-12-19T13:02:07Z</time>
      </trkpt>
      <trkpt lat="49.43145" lon="1.12436">
        <ele>139</ele>
        <time>2017-12-19T13:02:07Z</time>
      </trkpt>
      <trkpt lat="49.43148" lon="1.12429">
        <ele>139</ele>
        <time>2017-12-19T13:02:22Z</time>
      </trkpt>
      <trkpt lat="49.43151" lon="1.12421">
        <ele>139</ele>
        <time>2017-12-19T13:02:23Z</time>
      </trkpt>
      <trkpt lat="49.43153" lon="1.12413">
        <ele>139</ele>
        <time>2017-12-19T13:02:23Z</time>
      </trkpt>
      <trkpt lat="49.43155" lon="1.12405">
        <ele>139</ele>
        <time>2017-12-19T13:02:23Z</time>
      </trkpt>
      <trkpt lat="49.43157" lon="1.12397">
        <ele>139</ele>
        <time>2017-12-19T13:02:38Z</time>
      </trkpt>
      <trkpt lat="49.43157" lon="1.12391">
        <ele>139</ele>
        <time>2017-12-19T13:02:38Z</time>
      </trkpt>
      <trkpt lat="49.4316" lon="1.12385">
        <ele>139</ele>
        <time>2017-12-19T13:02:39Z</time>
      </trkpt>
      <trkpt lat="49.43162" lon="1.12379">
        <ele>139</ele>
        <time>2017-12-19T13:02:39Z</time>
      </trkpt>
      <trkpt lat="49.43164" lon="1.12374">
        <ele>142</ele>
        <time>2017-12-19T13:02:54Z</time>
      </trkpt>
      <trkpt lat="49.43165" lon="1.12367">
        <ele>142</ele>
        <time>2017-12-19T13:02:54Z</time>
      </trkpt>
      <trkpt lat="49.43167" lon="1.12361">
        <ele>142</ele>
        <time>2017-12-19T13:02:55Z</time>
      </trkpt>
      <trkpt lat="49.4317" lon="1.12355">
        <ele>142</ele>
        <time>2017-12-19T13:02:55Z</time>
      </trkpt>
      <trkpt lat="49.43172" lon="1.12348">
        <ele>142</ele>
        <time>2017-12-19T13:03:10Z</time>
      </trkpt>
      <trkpt lat="49.43174" lon="1.12342">
        <ele>142</ele>
        <time>2017-12-19T13:03:11Z</time>
      </trkpt>
      <trkpt lat="49.43176" lon="1.12334">
        <ele>142</ele>
        <time>2017-12-19T13:03:11Z</time>
      </trkpt>
      <trkpt lat="49.43178" lon="1.12326">
        <ele>142</ele>
        <time>2017-12-19T13:03:11Z</time>
      </trkpt>
      <trkpt lat="49.4318" lon="1.12318">
        <ele>142</ele>
        <time>2017-12-19T13:03:26Z</time>
      </trkpt>
      <trkpt lat="49.43181" lon="1.12308">
        <ele>142</ele>
        <time>2017-12-19T13:03:26Z</time>
      </trkpt>
      <trkpt lat="49.43183" lon="1.123">
        <ele>142</ele>
        <time>2017-12-19T13:03:27Z</time>
      </trkpt>
      <trkpt lat="49.43184" lon="1.12293">
        <ele>142</ele>
        <time>2017-12-19T13:03:27Z</time>
      </trkpt>
      <trkpt lat="49.43185" lon="1.12284">
        <ele>142</ele>
        <time>2017-12-19T13:03:42Z</time>
      </trkpt>
      <trkpt lat="49.43185" lon="1.12277">
        <ele>142</ele>
        <time>2017-12-19T13:03:42Z</time>
      </trkpt>
      <trkpt lat="49.43184" lon="1.1227">
        <ele>142</ele>
        <time>2017-12-19T13:03:43Z</time>
      </trkpt>
      <trkpt lat="49.43184" lon="1.12263">
        <ele>142</ele>
        <time>2017-12-19T13:03:43Z</time>
      </trkpt>
      <trkpt lat="49.43185" lon="1.12256">
        <ele>142</ele>
        <time>2017-12-19T13:03:58Z</time>
      </trkpt>
      <trkpt lat="49.43187" lon="1.12249">
        <ele>142</ele>
        <time>2017-12-19T13:03:59Z</time>
      </trkpt>
      <trkpt lat="49.43188" lon="1.1224">
        <ele>142</ele>
        <time>2017-12-19T13:03:59Z</time>
      </trkpt>
      <trkpt lat="49.43188" lon="1.12233">
        <ele>142</ele>
        <time>2017-12-19T13:03:59Z</time>
      </trkpt>
      <trkpt lat="49.43188" lon="1.12225">
        <ele>142</ele>
        <time>2017-12-19T13:04:14Z</time>
      </trkpt>
      <trkpt lat="49.43189" lon="1.12218">
        <ele>142</ele>
        <time>2017-12-19T13:04:14Z</time>
      </trkpt>
      <trkpt lat="49.43188" lon="1.12212">
        <ele>142</ele>
        <time>2017-12-19T13:04:15Z</time>
      </trkpt>
      <trkpt lat="49.43189" lon="1.12204">
        <ele>138</ele>
        <time>2017-12-19T13:04:15Z</time>
      </trkpt>
      <trkpt lat="49.4319" lon="1.12196">
        <ele>138</ele>
        <time>2017-12-19T13:04:30Z</time>
      </trkpt>
      <trkpt lat="49.43188" lon="1.12189">
        <ele>138</ele>
        <time>2017-12-19T13:04:30Z</time>
      </trkpt>
      <trkpt lat="49.43185" lon="1.1218">
        <ele>138</ele>
        <time>2017-12-19T13:04:31Z</time>
      </trkpt>
      <trkpt lat="49.43183" lon="1.12172">
        <ele>138</ele>
        <time>2017-12-19T13:04:31Z</time>
      </trkpt>
      <trkpt lat="49.4318" lon="1.12163">
        <ele>138</ele>
        <time>2017-12-19T13:04:46Z</time>
      </trkpt>
      <trkpt lat="49.4318" lon="1.12155">
        <ele>138</ele>
        <time>2017-12-19T13:04:46Z</time>
      </trkpt>
      <trkpt lat="49.43179" lon="1.12146">
        <ele>138</ele>
        <time>2017-12-19T13:04:47Z</time>
      </trkpt>
      <trkpt lat="49.43179" lon="1.12139">
        <ele>138</ele>
        <time>2017-12-19T13:04:47Z</time>
      </trkpt>
      <trkpt lat="49.43179" lon="1.1213">
        <ele>138</ele>
        <time>2017-12-19T13:05:02Z</time>
      </trkpt>
      <trkpt lat="49.4318" lon="1.12123">
        <ele>141</ele>
        <time>2017-12-19T13:05:02Z</time>
      </trkpt>
      <trkpt lat="49.4318" lon="1.12116">
        <ele>141</ele>
        <time>2017-12-19T13:05:03Z</time>
      </trkpt>
      <trkpt lat="49.43179" lon="1.12108">
        <ele>141</ele>
        <time>2017-12-19T13:05:03Z</time>
      </trkpt>
      <trkpt lat="49.43176" lon="1.12094">
        <ele>141</ele>
        <time>2017-12-19T13:05:26Z</time>
      </trkpt>
      <trkpt lat="49.43176" lon="1.12092">
        <ele>141</ele>
        <time>2017-12-19T13:05:26Z</time>
      </trkpt>
      <trkpt lat="49.43176" lon="1.12091">
        <ele>141</ele>
        <time>2017-12-19T13:05:27Z</time>
      </trkpt>
      <trkpt lat="49.43179" lon="1.12088">
        <ele>141</ele>
        <time>2017-12-19T13:05:27Z</time>
      </trkpt>
      <trkpt lat="49.43179" lon="1.12086">
        <ele>141</ele>
        <time>2017-12-19T13:05:27Z</time>
      </trkpt>
      <trkpt lat="49.4318" lon="1.12083">
        <ele>141</ele>
        <time>2017-12-19T13:08:54Z</time>
      </trkpt>
      <trkpt lat="49.4318" lon="1.12083">
        <ele>141</ele>
        <time>2017-12-19T13:08:54Z</time>
      </trkpt>
      <trkpt lat="49.43182" lon="1.12081">
        <ele>141</ele>
        <time>2017-12-19T13:08:54Z</time>
      </trkpt>
      <trkpt lat="49.43185" lon="1.12078">
        <ele>141</ele>
        <time>2017-12-19T13:08:54Z</time>
      </trkpt>
      <trkpt lat="49.43189" lon="1.12075">
        <ele>141</ele>
        <time>2017-12-19T13:08:54Z</time>
      </trkpt>
      <trkpt lat="49.43193" lon="1.12073">
        <ele>141</ele>
        <time>2017-12-19T13:09:10Z</time>
      </trkpt>
      <trkpt lat="49.43197" lon="1.12073">
        <ele>141</ele>
        <time>2017-12-19T13:09:10Z</time>
      </trkpt>
      <trkpt lat="49.43201" lon="1.1207">
        <ele>141</ele>
        <time>2017-12-19T13:09:11Z</time>
      </trkpt>
      <trkpt lat="49.43203" lon="1.12065">
        <ele>141</ele>
        <time>2017-12-19T13:09:11Z</time>
      </trkpt>
      <trkpt lat="49.43204" lon="1.12058">
        <ele>141</ele>
        <time>2017-12-19T13:09:26Z</time>
      </trkpt>
      <trkpt lat="49.43205" lon="1.12052">
        <ele>141</ele>
        <time>2017-12-19T13:09:26Z</time>
      </trkpt>
      <trkpt lat="49.43206" lon="1.12046">
        <ele>141</ele>
        <time>2017-12-19T13:09:26Z</time>
      </trkpt>
      <trkpt lat="49.43208" lon="1.12042">
        <ele>141</ele>
        <time>2017-12-19T13:09:26Z</time>
      </trkpt>
      <trkpt lat="49.43209" lon="1.12036">
        <ele>129</ele>
        <time>2017-12-19T13:09:42Z</time>
      </trkpt>
      <trkpt lat="49.4321" lon="1.12031">
        <ele>129</ele>
        <time>2017-12-19T13:09:42Z</time>
      </trkpt>
      <trkpt lat="49.43212" lon="1.12027">
        <ele>129</ele>
        <time>2017-12-19T13:09:42Z</time>
      </trkpt>
      <trkpt lat="49.43215" lon="1.12024">
        <ele>129</ele>
        <time>2017-12-19T13:09:42Z</time>
      </trkpt>
      <trkpt lat="49.43216" lon="1.12018">
        <ele>129</ele>
        <time>2017-12-19T13:09:58Z</time>
      </trkpt>
      <trkpt lat="49.43215" lon="1.12012">
        <ele>129</ele>
        <time>2017-12-19T13:09:58Z</time>
      </trkpt>
      <trkpt lat="49.43213" lon="1.12005">
        <ele>129</ele>
        <time>2017-12-19T13:09:58Z</time>
      </trkpt>
      <trkpt lat="49.43213" lon="1.11999">
        <ele>129</ele>
        <time>2017-12-19T13:09:58Z</time>
      </trkpt>
      <trkpt lat="49.43215" lon="1.11994">
        <ele>129</ele>
        <time>2017-12-19T13:10:14Z</time>
      </trkpt>
      <trkpt lat="49.43218" lon="1.11989">
        <ele>129</ele>
        <time>2017-12-19T13:10:14Z</time>
      </trkpt>
      <trkpt lat="49.4322" lon="1.11983">
        <ele>129</ele>
        <time>2017-12-19T13:10:14Z</time>
      </trkpt>
      <trkpt lat="49.43219" lon="1.11975">
        <ele>129</ele>
        <time>2017-12-19T13:10:14Z</time>
      </trkpt>
      <trkpt lat="49.4322" lon="1.11962">
        <ele>129</ele>
        <time>2017-12-19T13:10:58Z</time>
      </trkpt>
      <trkpt lat="49.4322" lon="1.11962">
        <ele>129</ele>
        <time>2017-12-19T13:10:58Z</time>
      </trkpt>
      <trkpt lat="49.4322" lon="1.11962">
        <ele>129</ele>
        <time>2017-12-19T13:10:58Z</time>
      </trkpt>
      <trkpt lat="49.43219" lon="1.1196">
        <ele>129</ele>
        <time>2017-12-19T13:10:58Z</time>
      </trkpt>
      <trkpt lat="49.43218" lon="1.11953">
        <ele>129</ele>
        <time>2017-12-19T13:10:58Z</time>
      </trkpt>
      <trkpt lat="49.43217" lon="1.11948">
        <ele>129</ele>
        <time>2017-12-19T13:11:26Z</time>
      </trkpt>
      <trkpt lat="49.43219" lon="1.11945">
        <ele>129</ele>
        <time>2017-12-19T13:11:26Z</time>
      </trkpt>
      <trkpt lat="49.43223" lon="1.11943">
        <ele>129</ele>
        <time>2017-12-19T13:11:26Z</time>
      </trkpt>
      <trkpt lat="49.43225" lon="1.11937">
        <ele>129</ele>
        <time>2017-12-19T13:11:26Z</time>
      </trkpt>
      <trkpt lat="49.43228" lon="1.11932">
        <ele>129</ele>
        <time>2017-12-19T13:11:27Z</time>
      </trkpt>
      <trkpt lat="49.43233" lon="1.11918">
        <ele>129</ele>
        <time>2017-12-19T13:11:58Z</time>
      </trkpt>
      <trkpt lat="49.43232" lon="1.11918">
        <ele>129</ele>
        <time>2017-12-19T13:11:58Z</time>
      </trkpt>
      <trkpt lat="49.43232" lon="1.11917">
        <ele>129</ele>
        <time>2017-12-19T13:11:58Z</time>
      </trkpt>
      <trkpt lat="49.43233" lon="1.11915">
        <ele>129</ele>
        <time>2017-12-19T13:11:58Z</time>
      </trkpt>
      <trkpt lat="49.43233" lon="1.11913">
        <ele>129</ele>
        <time>2017-12-19T13:11:58Z</time>
      </trkpt>
      <trkpt lat="49.43231" lon="1.11909">
        <ele>129</ele>
        <time>2017-12-19T13:12:14Z</time>
      </trkpt>
      <trkpt lat="49.4323" lon="1.11904">
        <ele>129</ele>
        <time>2017-12-19T13:12:14Z</time>
      </trkpt>
      <trkpt lat="49.43229" lon="1.119">
        <ele>129</ele>
        <time>2017-12-19T13:12:14Z</time>
      </trkpt>
      <trkpt lat="49.43229" lon="1.11894">
        <ele>129</ele>
        <time>2017-12-19T13:12:14Z</time>
      </trkpt>
      <trkpt lat="49.43228" lon="1.11889">
        <ele>129</ele>
        <time>2017-12-19T13:12:30Z</time>
      </trkpt>
      <trkpt lat="49.43227" lon="1.11883">
        <ele>129</ele>
        <time>2017-12-19T13:12:30Z</time>
      </trkpt>
      <trkpt lat="49.43227" lon="1.11879">
        <ele>129</ele>
        <time>2017-12-19T13:12:30Z</time>
      </trkpt>
      <trkpt lat="49.43226" lon="1.11875">
        <ele>128</ele>
        <time>2017-12-19T13:12:30Z</time>
      </trkpt>
      <trkpt lat="49.43225" lon="1.1187">
        <ele>128</ele>
        <time>2017-12-19T13:12:46Z</time>
      </trkpt>
      <trkpt lat="49.43224" lon="1.11864">
        <ele>128</ele>
        <time>2017-12-19T13:12:46Z</time>
      </trkpt>
      <trkpt lat="49.43223" lon="1.11859">
        <ele>128</ele>
        <time>2017-12-19T13:12:46Z</time>
      </trkpt>
      <trkpt lat="49.43222" lon="1.11854">
        <ele>128</ele>
        <time>2017-12-19T13:12:46Z</time>
      </trkpt>
      <trkpt lat="49.43222" lon="1.11849">
        <ele>128</ele>
        <time>2017-12-19T13:13:02Z</time>
      </trkpt>
      <trkpt lat="49.43222" lon="1.11844">
        <ele>128</ele>
        <time>2017-12-19T13:13:02Z</time>
      </trkpt>
      <trkpt lat="49.43221" lon="1.11839">
        <ele>128</ele>
        <time>2017-12-19T13:13:02Z</time>
      </trkpt>
      <trkpt lat="49.43219" lon="1.11833">
        <ele>128</ele>
        <time>2017-12-19T13:13:02Z</time>
      </trkpt>
      <trkpt lat="49.43218" lon="1.11827">
        <ele>128</ele>
        <time>2017-12-19T13:13:18Z</time>
      </trkpt>
      <trkpt lat="49.43218" lon="1.1182">
        <ele>128</ele>
        <time>2017-12-19T13:13:18Z</time>
      </trkpt>
      <trkpt lat="49.43218" lon="1.11815">
        <ele>128</ele>
        <time>2017-12-19T13:13:18Z</time>
      </trkpt>
      <trkpt lat="49.43218" lon="1.11809">
        <ele>128</ele>
        <time>2017-12-19T13:13:18Z</time>
      </trkpt>
      <trkpt lat="49.43214" lon="1.11795">
        <ele>128</ele>
        <time>2017-12-19T13:13:46Z</time>
      </trkpt>
      <trkpt lat="49.43215" lon="1.11793">
        <ele>128</ele>
        <time>2017-12-19T13:13:46Z</time>
      </trkpt>
      <trkpt lat="49.43215" lon="1.11792">
        <ele>128</ele>
        <time>2017-12-19T13:13:46Z</time>
      </trkpt>
      <trkpt lat="49.43215" lon="1.11791">
        <ele>133</ele>
        <time>2017-12-19T13:13:46Z</time>
      </trkpt>
      <trkpt lat="49.43214" lon="1.1179">
        <ele>133</ele>
        <time>2017-12-19T13:13:46Z</time>
      </trkpt>
      <trkpt lat="49.43205" lon="1.11785">
        <ele>142</ele>
        <time>2017-12-19T13:14:50Z</time>
      </trkpt>
      <trkpt lat="49.43205" lon="1.11785">
        <ele>142</ele>
        <time>2017-12-19T13:14:50Z</time>
      </trkpt>
      <trkpt lat="49.43205" lon="1.11785">
        <ele>142</ele>
        <time>2017-12-19T13:14:50Z</time>
      </trkpt>
      <trkpt lat="49.43205" lon="1.11784">
        <ele>142</ele>
        <time>2017-12-19T13:14:50Z</time>
      </trkpt>
      <trkpt lat="49.43203" lon="1.11781">
        <ele>142</ele>
        <time>2017-12-19T13:14:50Z</time>
      </trkpt>
      <trkpt lat="49.432" lon="1.11777">
        <ele>142</ele>
        <time>2017-12-19T13:15:06Z</time>
      </trkpt>
      <trkpt lat="49.43198" lon="1.11771">
        <ele>142</ele>
        <time>2017-12-19T13:15:06Z</time>
      </trkpt>
      <trkpt lat="49.43197" lon="1.11765">
        <ele>142</ele>
        <time>2017-12-19T13:15:06Z</time>
      </trkpt>
      <trkpt lat="49.43195" lon="1.11759">
        <ele>142</ele>
        <time>2017-12-19T13:15:06Z</time>
      </trkpt>
      <trkpt lat="49.43193" lon="1.11754">
        <ele>142</ele>
        <time>2017-12-19T13:15:22Z</time>
      </trkpt>
      <trkpt lat="49.43191" lon="1.11748">
        <ele>142</ele>
        <time>2017-12-19T13:15:22Z</time>
      </trkpt>
      <trkpt lat="49.43193" lon="1.11743">
        <ele>142</ele>
        <time>2017-12-19T13:15:22Z</time>
      </trkpt>
      <trkpt lat="49.43194" lon="1.11738">
        <ele>142</ele>
        <time>2017-12-19T13:15:22Z</time>
      </trkpt>
      <trkpt lat="49.43195" lon="1.11732">
        <ele>142</ele>
        <time>2017-12-19T13:15:38Z</time>
      </trkpt>
      <trkpt lat="49.43197" lon="1.11727">
        <ele>142</ele>
        <time>2017-12-19T13:15:38Z</time>
      </trkpt>
      <trkpt lat="49.43199" lon="1.11722">
        <ele>142</ele>
        <time>2017-12-19T13:15:38Z</time>
      </trkpt>
      <trkpt lat="49.43201" lon="1.11717">
        <ele>142</ele>
        <time>2017-12-19T13:15:38Z</time>
      </trkpt>
      <trkpt lat="49.43203" lon="1.11713">
        <ele>142</ele>
        <time>2017-12-19T13:15:54Z</time>
      </trkpt>
      <trkpt lat="49.43204" lon="1.11707">
        <ele>141</ele>
        <time>2017-12-19T13:15:54Z</time>
      </trkpt>
      <trkpt lat="49.43204" lon="1.11701">
        <ele>141</ele>
        <time>2017-12-19T13:15:54Z</time>
      </trkpt>
      <trkpt lat="49.43206" lon="1.11695">
        <ele>141</ele>
        <time>2017-12-19T13:15:54Z</time>
      </trkpt>
      <trkpt lat="49.43207" lon="1.11689">
        <ele>141</ele>
        <time>2017-12-19T13:16:10Z</time>
      </trkpt>
      <trkpt lat="49.43209" lon="1.11683">
        <ele>138</ele>
        <time>2017-12-19T13:16:10Z</time>
      </trkpt>
      <trkpt lat="49.43211" lon="1.11677">
        <ele>138</ele>
        <time>2017-12-19T13:16:11Z</time>
      </trkpt>
      <trkpt lat="49.43212" lon="1.11671">
        <ele>138</ele>
        <time>2017-12-19T13:16:11Z</time>
      </trkpt>
      <trkpt lat="49.43214" lon="1.11665">
        <ele>138</ele>
        <time>2017-12-19T13:16:26Z</time>
      </trkpt>
      <trkpt lat="49.43215" lon="1.11659">
        <ele>138</ele>
        <time>2017-12-19T13:16:26Z</time>
      </trkpt>
      <trkpt lat="49.43217" lon="1.11653">
        <ele>138</ele>
        <time>2017-12-19T13:16:27Z</time>
      </trkpt>
      <trkpt lat="49.43218" lon="1.11647">
        <ele>138</ele>
        <time>2017-12-19T13:16:27Z</time>
      </trkpt>
      <trkpt lat="49.4322" lon="1.11641">
        <ele>138</ele>
        <time>2017-12-19T13:16:42Z</time>
      </trkpt>
      <trkpt lat="49.43222" lon="1.11636">
        <ele>138</ele>
        <time>2017-12-19T13:16:43Z</time>
      </trkpt>
      <trkpt lat="49.43222" lon="1.11629">
        <ele>138</ele>
        <time>2017-12-19T13:16:43Z</time>
      </trkpt>
      <trkpt lat="49.43225" lon="1.11624">
        <ele>140</ele>
        <time>2017-12-19T13:16:43Z</time>
      </trkpt>
      <trkpt lat="49.43226" lon="1.11619">
        <ele>140</ele>
        <time>2017-12-19T13:16:58Z</time>
      </trkpt>
      <trkpt lat="49.43228" lon="1.11614">
        <ele>140</ele>
        <time>2017-12-19T13:16:58Z</time>
      </trkpt>
      <trkpt lat="49.4323" lon="1.11609">
        <ele>140</ele>
        <time>2017-12-19T13:16:59Z</time>
      </trkpt>
      <trkpt lat="49.43231" lon="1.11603">
        <ele>140</ele>
        <time>2017-12-19T13:16:59Z</time>
      </trkpt>
      <trkpt lat="49.43233" lon="1.11597">
        <ele>140</ele>
        <time>2017-12-19T13:17:14Z</time>
      </trkpt>
      <trkpt lat="49.43234" lon="1.11591">
        <ele>140</ele>
        <time>2017-12-19T13:17:14Z</time>
      </trkpt>
      <trkpt lat="49.43235" lon="1.11584">
        <ele>140</ele>
        <time>2017-12-19T13:17:15Z</time>
      </trkpt>
      <trkpt lat="49.43237" lon="1.11577">
        <ele>140</ele>
        <time>2017-12-19T13:17:15Z</time>
      </trkpt>
      <trkpt lat="49.43239" lon="1.11572">
        <ele>140</ele>
        <time>2017-12-19T13:17:30Z</time>
      </trkpt>
      <trkpt lat="49.43239" lon="1.11565">
        <ele>140</ele>
        <time>2017-12-19T13:17:30Z</time>
      </trkpt>
      <trkpt lat="49.43238" lon="1.11559">
        <ele>140</ele>
        <time>2017-12-19T13:17:30Z</time>
      </trkpt>
      <trkpt lat="49.43239" lon="1.11553">
        <ele>140</ele>
        <time>2017-12-19T13:17:31Z</time>
      </trkpt>
      <trkpt lat="49.43239" lon="1.11546">
        <ele>140</ele>
        <time>2017-12-19T13:17:46Z</time>
      </trkpt>
      <trkpt lat="49.43239" lon="1.11539">
        <ele>138</ele>
        <time>2017-12-19T13:17:47Z</time>
      </trkpt>
      <trkpt lat="49.43239" lon="1.11532">
        <ele>138</ele>
        <time>2017-12-19T13:17:47Z</time>
      </trkpt>
      <trkpt lat="49.43242" lon="1.11525">
        <ele>138</ele>
        <time>2017-12-19T13:17:47Z</time>
      </trkpt>
      <trkpt lat="49.43245" lon="1.11519">
        <ele>138</ele>
        <time>2017-12-19T13:18:02Z</time>
      </trkpt>
      <trkpt lat="49.43248" lon="1.11514">
        <ele>138</ele>
        <time>2017-12-19T13:18:02Z</time>
      </trkpt>
      <trkpt lat="49.43249" lon="1.11509">
        <ele>138</ele>
        <time>2017-12-19T13:18:03Z</time>
      </trkpt>
      <trkpt lat="49.43252" lon="1.11505">
        <ele>138</ele>
        <time>2017-12-19T13:18:03Z</time>
      </trkpt>
      <trkpt lat="49.43254" lon="1.11501">
        <ele>138</ele>
        <time>2017-12-19T13:18:18Z</time>
      </trkpt>
      <trkpt lat="49.43257" lon="1.11499">
        <ele>138</ele>
        <time>2017-12-19T13:18:19Z</time>
      </trkpt>
      <trkpt lat="49.43259" lon="1.11494">
        <ele>138</ele>
        <time>2017-12-19T13:18:19Z</time>
      </trkpt>
      <trkpt lat="49.43261" lon="1.11491">
        <ele>138</ele>
        <time>2017-12-19T13:18:19Z</time>
      </trkpt>
      <trkpt lat="49.43264" lon="1.11486">
        <ele>138</ele>
        <time>2017-12-19T13:18:34Z</time>
      </trkpt>
      <trkpt lat="49.43266" lon="1.1148">
        <ele>138</ele>
        <time>2017-12-19T13:18:35Z</time>
      </trkpt>
      <trkpt lat="49.43268" lon="1.11474">
        <ele>138</ele>
        <time>2017-12-19T13:18:35Z</time>
      </trkpt>
      <trkpt lat="49.4327" lon="1.11469">
        <ele>138</ele>
        <time>2017-12-19T13:18:35Z</time>
      </trkpt>
      <trkpt lat="49.43272" lon="1.11464">
        <ele>138</ele>
        <time>2017-12-19T13:18:50Z</time>
      </trkpt>
      <trkpt lat="49.43274" lon="1.1146">
        <ele>138</ele>
        <time>2017-12-19T13:18:51Z</time>
      </trkpt>
      <trkpt lat="49.43275" lon="1.11455">
        <ele>137</ele>
        <time>2017-12-19T13:18:51Z</time>
      </trkpt>
      <trkpt lat="49.43278" lon="1.11451">
        <ele>137</ele>
        <time>2017-12-19T13:18:51Z</time>
      </trkpt>
      <trkpt lat="49.43281" lon="1.11446">
        <ele>137</ele>
        <time>2017-12-19T13:19:06Z</time>
      </trkpt>
      <trkpt lat="49.43283" lon="1.11442">
        <ele>137</ele>
        <time>2017-12-19T13:19:06Z</time>
      </trkpt>
      <trkpt lat="49.43286" lon="1.11437">
        <ele>137</ele>
        <time>2017-12-19T13:19:07Z</time>
      </trkpt>
      <trkpt lat="49.43287" lon="1.11432">
        <ele>137</ele>
        <time>2017-12-19T13:19:07Z</time>
      </trkpt>
      <trkpt lat="49.4329" lon="1.11428">
        <ele>137</ele>
        <time>2017-12-19T13:19:22Z</time>
      </trkpt>
      <trkpt lat="49.43293" lon="1.11424">
        <ele>123</ele>
        <time>2017-12-19T13:19:22Z</time>
      </trkpt>
      <trkpt lat="49.43294" lon="1.11417">
        <ele>123</ele>
        <time>2017-12-19T13:19:23Z</time>
      </trkpt>
      <trkpt lat="49.43295" lon="1.11412">
        <ele>123</ele>
        <time>2017-12-19T13:19:23Z</time>
      </trkpt>
      <trkpt lat="49.43299" lon="1.11408">
        <ele>123</ele>
        <time>2017-12-19T13:19:38Z</time>
      </trkpt>
      <trkpt lat="49.43301" lon="1.11403">
        <ele>123</ele>
        <time>2017-12-19T13:19:38Z</time>
      </trkpt>
      <trkpt lat="49.43304" lon="1.11399">
        <ele>123</ele>
        <time>2017-12-19T13:19:39Z</time>
      </trkpt>
      <trkpt lat="49.43307" lon="1.11396">
        <ele>123</ele>
        <time>2017-12-19T13:19:39Z</time>
      </trkpt>
      <trkpt lat="49.43309" lon="1.11391">
        <ele>123</ele>
        <time>2017-12-19T13:19:54Z</time>
      </trkpt>
      <trkpt lat="49.43313" lon="1.11388">
        <ele>123</ele>
        <time>2017-12-19T13:19:54Z</time>
      </trkpt>
      <trkpt lat="49.43316" lon="1.11384">
        <ele>123</ele>
        <time>2017-12-19T13:19:55Z</time>
      </trkpt>
      <trkpt lat="49.43316" lon="1.11378">
        <ele>123</ele>
        <time>2017-12-19T13:19:55Z</time>
      </trkpt>
      <trkpt lat="49.43317" lon="1.11372">
        <ele>130</ele>
        <time>2017-12-19T13:20:14Z</time>
      </trkpt>
      <trkpt lat="49.43316" lon="1.11367">
        <ele>130</ele>
        <time>2017-12-19T13:20:14Z</time>
      </trkpt>
      <trkpt lat="49.43318" lon="1.11364">
        <ele>130</ele>
        <time>2017-12-19T13:20:15Z</time>
      </trkpt>
      <trkpt lat="49.43318" lon="1.11359">
        <ele>130</ele>
        <time>2017-12-19T13:20:15Z</time>
      </trkpt>
      <trkpt lat="49.4332" lon="1.11353">
        <ele>130</ele>
        <time>2017-12-19T13:20:15Z</time>
      </trkpt>
      <trkpt lat="49.43321" lon="1.11347">
        <ele>130</ele>
        <time>2017-12-19T13:20:30Z</time>
      </trkpt>
      <trkpt lat="49.43321" lon="1.1134">
        <ele>130</ele>
        <time>2017-12-19T13:20:30Z</time>
      </trkpt>
      <trkpt lat="49.43319" lon="1.11334">
        <ele>130</ele>
        <time>2017-12-19T13:20:31Z</time>
      </trkpt>
      <trkpt lat="49.43317" lon="1.11329">
        <ele>130</ele>
        <time>2017-12-19T13:20:31Z</time>
      </trkpt>
      <trkpt lat="49.43315" lon="1.11325">
        <ele>130</ele>
        <time>2017-12-19T13:20:50Z</time>
      </trkpt>
      <trkpt lat="49.43313" lon="1.11323">
        <ele>130</ele>
        <time>2017-12-19T13:20:50Z</time>
      </trkpt>
      <trkpt lat="49.4331" lon="1.11321">
        <ele>130</ele>
        <time>2017-12-19T13:20:51Z</time>
      </trkpt>
      <trkpt lat="49.43308" lon="1.11319">
        <ele>130</ele>
        <time>2017-12-19T13:20:51Z</time>
      </trkpt>
      <trkpt lat="49.43306" lon="1.11318">
        <ele>130</ele>
        <time>2017-12-19T13:20:51Z</time>
      </trkpt>
      <trkpt lat="49.43303" lon="1.11316">
        <ele>130</ele>
        <time>2017-12-19T13:21:06Z</time>
      </trkpt>
      <trkpt lat="49.433" lon="1.11315">
        <ele>130</ele>
        <time>2017-12-19T13:21:07Z</time>
      </trkpt>
      <trkpt lat="49.43298" lon="1.11313">
        <ele>130</ele>
        <time>2017-12-19T13:21:07Z</time>
      </trkpt>
      <trkpt lat="49.43296" lon="1.11309">
        <ele>130</ele>
        <time>2017-12-19T13:21:07Z</time>
      </trkpt>
      <trkpt lat="49.43294" lon="1.11306">
        <ele>130</ele>
        <time>2017-12-19T13:21:26Z</time>
      </trkpt>
      <trkpt lat="49.43293" lon="1.11303">
        <ele>130</ele>
        <time>2017-12-19T13:21:26Z</time>
      </trkpt>
      <trkpt lat="49.43293" lon="1.11299">
        <ele>130</ele>
        <time>2017-12-19T13:21:27Z</time>
      </trkpt>
      <trkpt lat="49.43295" lon="1.11296">
        <ele>130</ele>
        <time>2017-12-19T13:21:27Z</time>
      </trkpt>
      <trkpt lat="49.43295" lon="1.11292">
        <ele>130</ele>
        <time>2017-12-19T13:21:27Z</time>
      </trkpt>
      <trkpt lat="49.43297" lon="1.11288">
        <ele>133</ele>
        <time>2017-12-19T13:21:42Z</time>
      </trkpt>
      <trkpt lat="49.43299" lon="1.11283">
        <ele>133</ele>
        <time>2017-12-19T13:21:42Z</time>
      </trkpt>
      <trkpt lat="49.43299" lon="1.11278">
        <ele>133</ele>
        <time>2017-12-19T13:21:43Z</time>
      </trkpt>
      <trkpt lat="49.433" lon="1.11272">
        <ele>133</ele>
        <time>2017-12-19T13:21:43Z</time>
      </trkpt>
      <trkpt lat="49.43301" lon="1.11267">
        <ele>133</ele>
        <time>2017-12-19T13:21:58Z</time>
      </trkpt>
      <trkpt lat="49.43302" lon="1.1126">
        <ele>133</ele>
        <time>2017-12-19T13:21:58Z</time>
      </trkpt>
      <trkpt lat="49.43302" lon="1.11254">
        <ele>133</ele>
        <time>2017-12-19T13:21:59Z</time>
      </trkpt>
      <trkpt lat="49.43303" lon="1.11248">
        <ele>133</ele>
        <time>2017-12-19T13:21:59Z</time>
      </trkpt>
      <trkpt lat="49.43303" lon="1.11244">
        <ele>133</ele>
        <time>2017-12-19T13:22:14Z</time>
      </trkpt>
      <trkpt lat="49.43304" lon="1.11238">
        <ele>133</ele>
        <time>2017-12-19T13:22:14Z</time>
      </trkpt>
      <trkpt lat="49.43304" lon="1.11233">
        <ele>133</ele>
        <time>2017-12-19T13:22:15Z</time>
      </trkpt>
      <trkpt lat="49.43305" lon="1.11227">
        <ele>133</ele>
        <time>2017-12-19T13:22:15Z</time>
      </trkpt>
      <trkpt lat="49.43305" lon="1.11221">
        <ele>133</ele>
        <time>2017-12-19T13:22:30Z</time>
      </trkpt>
      <trkpt lat="49.43307" lon="1.11217">
        <ele>133</ele>
        <time>2017-12-19T13:22:31Z</time>
      </trkpt>
      <trkpt lat="49.43308" lon="1.11211">
        <ele>133</ele>
        <time>2017-12-19T13:22:31Z</time>
      </trkpt>
      <trkpt lat="49.43309" lon="1.11207">
        <ele>130</ele>
        <time>2017-12-19T13:22:31Z</time>
      </trkpt>
      <trkpt lat="49.43309" lon="1.11203">
        <ele>130</ele>
        <time>2017-12-19T13:22:46Z</time>
      </trkpt>
      <trkpt lat="49.43309" lon="1.11199">
        <ele>130</ele>
        <time>2017-12-19T13:22:46Z</time>
      </trkpt>
      <trkpt lat="49.43308" lon="1.11193">
        <ele>130</ele>
        <time>2017-12-19T13:22:47Z</time>
      </trkpt>
      <trkpt lat="49.43308" lon="1.11188">
        <ele>130</ele>
        <time>2017-12-19T13:22:47Z</time>
      </trkpt>
      <trkpt lat="49.43309" lon="1.11186">
        <ele>130</ele>
        <time>2017-12-19T13:23:06Z</time>
      </trkpt>
      <trkpt lat="49.4331" lon="1.11183">
        <ele>130</ele>
        <time>2017-12-19T13:23:06Z</time>
      </trkpt>
      <trkpt lat="49.43311" lon="1.1118">
        <ele>130</ele>
        <time>2017-12-19T13:23:07Z</time>
      </trkpt>
      <trkpt lat="49.43311" lon="1.11176">
        <ele>130</ele>
        <time>2017-12-19T13:23:07Z</time>
      </trkpt>
      <trkpt lat="49.4331" lon="1.11171">
        <ele>130</ele>
        <time>2017-12-19T13:23:07Z</time>
      </trkpt>
      <trkpt lat="49.4331" lon="1.11167">
        <ele>130</ele>
        <time>2017-12-19T13:23:22Z</time>
      </trkpt>
      <trkpt lat="49.4331" lon="1.11162">
        <ele>130</ele>
        <time>2017-12-19T13:23:22Z</time>
      </trkpt>
      <trkpt lat="49.4331" lon="1.11156">
        <ele>130</ele>
        <time>2017-12-19T13:23:23Z</time>
      </trkpt>
      <trkpt lat="49.43311" lon="1.11151">
        <ele>130</ele>
        <time>2017-12-19T13:23:23Z</time>
      </trkpt>
      <trkpt lat="49.43312" lon="1.11146">
        <ele>130</ele>
        <time>2017-12-19T13:23:38Z</time>
      </trkpt>
      <trkpt lat="49.43314" lon="1.11141">
        <ele>130</ele>
        <time>2017-12-19T13:23:38Z</time>
      </trkpt>
      <trkpt lat="49.43316" lon="1.11135">
        <ele>130</ele>
        <time>2017-12-19T13:23:39Z</time>
      </trkpt>
      <trkpt lat="49.43317" lon="1.11129">
        <ele>130</ele>
        <time>2017-12-19T13:23:39Z</time>
      </trkpt>
      <trkpt lat="49.43319" lon="1.11123">
        <ele>117</ele>
        <time>2017-12-19T13:23:54Z</time>
      </trkpt>
      <trkpt lat="49.4332" lon="1.11117">
        <ele>117</ele>
        <time>2017-12-19T13:23:54Z</time>
      </trkpt>
      <trkpt lat="49.43321" lon="1.11112">
        <ele>117</ele>
        <time>2017-12-19T13:23:55Z</time>
      </trkpt>
      <trkpt lat="49.43324" lon="1.11108">
        <ele>117</ele>
        <time>2017-12-19T13:23:55Z</time>
      </trkpt>
      <trkpt lat="49.43325" lon="1.111">
        <ele>117</ele>
        <time>2017-12-19T13:24:22Z</time>
      </trkpt>
      <trkpt lat="49.43326" lon="1.11097">
        <ele>117</ele>
        <time>2017-12-19T13:24:22Z</time>
      </trkpt>
      <trkpt lat="49.43327" lon="1.11095">
        <ele>117</ele>
        <time>2017-12-19T13:24:23Z</time>
      </trkpt>
      <trkpt lat="49.43328" lon="1.11092">
        <ele>117</ele>
        <time>2017-12-19T13:24:23Z</time>
      </trkpt>
      <trkpt lat="49.43328" lon="1.1109">
        <ele>117</ele>
        <time>2017-12-19T13:24:23Z</time>
      </trkpt>
      <trkpt lat="49.43328" lon="1.11087">
        <ele>117</ele>
        <time>2017-12-19T13:24:50Z</time>
      </trkpt>
      <trkpt lat="49.43329" lon="1.11085">
        <ele>117</ele>
        <time>2017-12-19T13:24:50Z</time>
      </trkpt>
      <trkpt lat="49.4333" lon="1.11082">
        <ele>117</ele>
        <time>2017-12-19T13:24:51Z</time>
      </trkpt>
      <trkpt lat="49.43331" lon="1.11078">
        <ele>117</ele>
        <time>2017-12-19T13:24:51Z</time>
      </trkpt>
      <trkpt lat="49.43332" lon="1.11072">
        <ele>117</ele>
        <time>2017-12-19T13:24:51Z</time>
      </trkpt>
      <trkpt lat="49.43333" lon="1.11067">
        <ele>117</ele>
        <time>2017-12-19T13:25:06Z</time>
      </trkpt>
      <trkpt lat="49.43334" lon="1.11062">
        <ele>117</ele>
        <time>2017-12-19T13:25:06Z</time>
      </trkpt>
      <trkpt lat="49.43336" lon="1.11057">
        <ele>117</ele>
        <time>2017-12-19T13:25:07Z</time>
      </trkpt>
      <trkpt lat="49.43337" lon="1.11054">
        <ele>117</ele>
        <time>2017-12-19T13:25:07Z</time>
      </trkpt>
      <trkpt lat="49.43338" lon="1.11051">
        <ele>117</ele>
        <time>2017-12-19T13:25:26Z</time>
      </trkpt>
      <trkpt lat="49.43338" lon="1.11047">
        <ele>117</ele>
        <time>2017-12-19T13:25:26Z</time>
      </trkpt>
      <trkpt lat="49.43337" lon="1.11042">
        <ele>117</ele>
        <time>2017-12-19T13:25:26Z</time>
      </trkpt>
      <trkpt lat="49.43336" lon="1.11038">
        <ele>99</ele>
        <time>2017-12-19T13:25:26Z</time>
      </trkpt>
      <trkpt lat="49.43338" lon="1.11037">
        <ele>99</ele>
        <time>2017-12-19T13:25:27Z</time>
      </trkpt>
      <trkpt lat="49.43332" lon="1.11028">
        <ele>99</ele>
        <time>2017-12-19T13:26:26Z</time>
      </trkpt>
      <trkpt lat="49.43332" lon="1.11026">
        <ele>99</ele>
        <time>2017-12-19T13:26:26Z</time>
      </trkpt>
      <trkpt lat="49.43332" lon="1.11025">
        <ele>99</ele>
        <time>2017-12-19T13:26:27Z</time>
      </trkpt>
      <trkpt lat="49.43332" lon="1.11023">
        <ele>99</ele>
        <time>2017-12-19T13:26:27Z</time>
      </trkpt>
      <trkpt lat="49.43333" lon="1.11019">
        <ele>99</ele>
        <time>2017-12-19T13:26:27Z</time>
      </trkpt>
      <trkpt lat="49.43332" lon="1.11002">
        <ele>99</ele>
        <time>2017-12-19T13:27:58Z</time>
      </trkpt>
      <trkpt lat="49.43333" lon="1.11001">
        <ele>99</ele>
        <time>2017-12-19T13:27:58Z</time>
      </trkpt>
      <trkpt lat="49.43333" lon="1.11001">
        <ele>99</ele>
        <time>2017-12-19T13:27:59Z</time>
      </trkpt>
      <trkpt lat="49.43333" lon="1.11001">
        <ele>99</ele>
        <time>2017-12-19T13:27:59Z</time>
      </trkpt>
      <trkpt lat="49.43333" lon="1.11001">
        <ele>99</ele>
        <time>2017-12-19T13:27:59Z</time>
      </trkpt>
      <trkpt lat="49.43337" lon="1.10997">
        <ele>99</ele>
        <time>2017-12-19T13:35:02Z</time>
      </trkpt>
      <trkpt lat="49.43337" lon="1.10996">
        <ele>99</ele>
        <time>2017-12-19T13:35:02Z</time>
      </trkpt>
      <trkpt lat="49.43341" lon="1.10995">
        <ele>99</ele>
        <time>2017-12-19T13:35:03Z</time>
      </trkpt>
      <trkpt lat="49.43345" lon="1.10993">
        <ele>99</ele>
        <time>2017-12-19T13:35:03Z</time>
      </trkpt>
      <trkpt lat="49.43349" lon="1.10993">
        <ele>99</ele>
        <time>2017-12-19T13:35:03Z</time>
      </trkpt>
      <trkpt lat="49.43353" lon="1.10991">
        <ele>99</ele>
        <time>2017-12-19T13:35:18Z</time>
      </trkpt>
      <trkpt lat="49.43358" lon="1.10991">
        <ele>99</ele>
        <time>2017-12-19T13:35:18Z</time>
      </trkpt>
      <trkpt lat="49.43362" lon="1.10991">
        <ele>99</ele>
        <time>2017-12-19T13:35:19Z</time>
      </trkpt>
      <trkpt lat="49.43365" lon="1.10991">
        <ele>99</ele>
        <time>2017-12-19T13:35:19Z</time>
      </trkpt>
      <trkpt lat="49.43365" lon="1.10985">
        <ele>99</ele>
        <time>2017-12-19T13:35:46Z</time>
      </trkpt>
      <trkpt lat="49.43364" lon="1.10983">
        <ele>99</ele>
        <time>2017-12-19T13:35:46Z</time>
      </trkpt>
      <trkpt lat="49.43363" lon="1.1098">
        <ele>99</ele>
        <time>2017-12-19T13:35:47Z</time>
      </trkpt>
      <trkpt lat="49.43362" lon="1.10978">
        <ele>99</ele>
        <time>2017-12-19T13:35:47Z</time>
      </trkpt>
      <trkpt lat="49.43361" lon="1.10975">
        <ele>99</ele>
        <time>2017-12-19T13:35:47Z</time>
      </trkpt>
      <trkpt lat="49.43363" lon="1.10967">
        <ele>99</ele>
        <time>2017-12-19T13:36:14Z</time>
      </trkpt>
      <trkpt lat="49.43364" lon="1.10965">
        <ele>99</ele>
        <time>2017-12-19T13:36:15Z</time>
      </trkpt>
      <trkpt lat="49.43365" lon="1.10963">
        <ele>99</ele>
        <time>2017-12-19T13:36:15Z</time>
      </trkpt>
      <trkpt lat="49.43366" lon="1.10961">
        <ele>99</ele>
        <time>2017-12-19T13:36:15Z</time>
      </trkpt>
      <trkpt lat="49.43367" lon="1.10959">
        <ele>99</ele>
        <time>2017-12-19T13:36:15Z</time>
      </trkpt>
      <trkpt lat="49.4337" lon="1.10956">
        <ele>79</ele>
        <time>2017-12-19T13:36:38Z</time>
      </trkpt>
      <trkpt lat="49.43371" lon="1.10953">
        <ele>79</ele>
        <time>2017-12-19T13:36:38Z</time>
      </trkpt>
      <trkpt lat="49.43372" lon="1.10951">
        <ele>79</ele>
        <time>2017-12-19T13:36:39Z</time>
      </trkpt>
      <trkpt lat="49.43375" lon="1.10949">
        <ele>79</ele>
        <time>2017-12-19T13:36:39Z</time>
      </trkpt>
      <trkpt lat="49.43377" lon="1.10947">
        <ele>90</ele>
        <time>2017-12-19T13:36:39Z</time>
      </trkpt>
      <trkpt lat="49.43379" lon="1.10945">
        <ele>90</ele>
        <time>2017-12-19T13:36:58Z</time>
      </trkpt>
      <trkpt lat="49.43381" lon="1.10943">
        <ele>90</ele>
        <time>2017-12-19T13:36:58Z</time>
      </trkpt>
      <trkpt lat="49.43383" lon="1.1094">
        <ele>90</ele>
        <time>2017-12-19T13:36:58Z</time>
      </trkpt>
      <trkpt lat="49.43382" lon="1.10936">
        <ele>90</ele>
        <time>2017-12-19T13:36:59Z</time>
      </trkpt>
      <trkpt lat="49.43382" lon="1.10932">
        <ele>90</ele>
        <time>2017-12-19T13:36:59Z</time>
      </trkpt>
      <trkpt lat="49.43382" lon="1.10928">
        <ele>90</ele>
        <time>2017-12-19T13:37:18Z</time>
      </trkpt>
      <trkpt lat="49.43383" lon="1.10924">
        <ele>90</ele>
        <time>2017-12-19T13:37:18Z</time>
      </trkpt>
      <trkpt lat="49.43384" lon="1.1092">
        <ele>90</ele>
        <time>2017-12-19T13:37:19Z</time>
      </trkpt>
      <trkpt lat="49.43384" lon="1.10916">
        <ele>90</ele>
        <time>2017-12-19T13:37:19Z</time>
      </trkpt>
      <trkpt lat="49.43384" lon="1.1091">
        <ele>90</ele>
        <time>2017-12-19T13:37:19Z</time>
      </trkpt>
      <trkpt lat="49.43387" lon="1.10903">
        <ele>90</ele>
        <time>2017-12-19T13:37:34Z</time>
      </trkpt>
      <trkpt lat="49.4339" lon="1.10897">
        <ele>90</ele>
        <time>2017-12-19T13:37:34Z</time>
      </trkpt>
      <trkpt lat="49.43393" lon="1.10891">
        <ele>90</ele>
        <time>2017-12-19T13:37:35Z</time>
      </trkpt>
      <trkpt lat="49.43397" lon="1.10888">
        <ele>90</ele>
        <time>2017-12-19T13:37:35Z</time>
      </trkpt>
      <trkpt lat="49.434" lon="1.10885">
        <ele>90</ele>
        <time>2017-12-19T13:37:50Z</time>
      </trkpt>
      <trkpt lat="49.43404" lon="1.10883">
        <ele>90</ele>
        <time>2017-12-19T13:37:50Z</time>
      </trkpt>
      <trkpt lat="49.43406" lon="1.10879">
        <ele>90</ele>
        <time>2017-12-19T13:37:51Z</time>
      </trkpt>
      <trkpt lat="49.43408" lon="1.10875">
        <ele>90</ele>
        <time>2017-12-19T13:37:51Z</time>
      </trkpt>
      <trkpt lat="49.43411" lon="1.10873">
        <ele>73</ele>
        <time>2017-12-19T13:38:10Z</time>
      </trkpt>
      <trkpt lat="49.43414" lon="1.10872">
        <ele>73</ele>
        <time>2017-12-19T13:38:10Z</time>
      </trkpt>
      <trkpt lat="49.43417" lon="1.10872">
        <ele>73</ele>
        <time>2017-12-19T13:38:11Z</time>
      </trkpt>
      <trkpt lat="49.43419" lon="1.10873">
        <ele>73</ele>
        <time>2017-12-19T13:38:11Z</time>
      </trkpt>
      <trkpt lat="49.43422" lon="1.10875">
        <ele>73</ele>
        <time>2017-12-19T13:38:11Z</time>
      </trkpt>
      <trkpt lat="49.43425" lon="1.10878">
        <ele>90</ele>
        <time>2017-12-19T13:38:26Z</time>
      </trkpt>
      <trkpt lat="49.43427" lon="1.1088">
        <ele>90</ele>
        <time>2017-12-19T13:38:26Z</time>
      </trkpt>
      <trkpt lat="49.43431" lon="1.10879">
        <ele>90</ele>
        <time>2017-12-19T13:38:27Z</time>
      </trkpt>
      <trkpt lat="49.43435" lon="1.10875">
        <ele>73</ele>
        <time>2017-12-19T13:38:27Z</time>
      </trkpt>
      <trkpt lat="49.4344" lon="1.10873">
        <ele>73</ele>
        <time>2017-12-19T13:38:42Z</time>
      </trkpt>
      <trkpt lat="49.43443" lon="1.10872">
        <ele>73</ele>
        <time>2017-12-19T13:38:42Z</time>
      </trkpt>
      <trkpt lat="49.43447" lon="1.10874">
        <ele>73</ele>
        <time>2017-12-19T13:38:43Z</time>
      </trkpt>
      <trkpt lat="49.4345" lon="1.10875">
        <ele>90</ele>
        <time>2017-12-19T13:38:43Z</time>
      </trkpt>
      <trkpt lat="49.43454" lon="1.10876">
        <ele>90</ele>
        <time>2017-12-19T13:38:58Z</time>
      </trkpt>
      <trkpt lat="49.43458" lon="1.10878">
        <ele>90</ele>
        <time>2017-12-19T13:38:58Z</time>
      </trkpt>
      <trkpt lat="49.43461" lon="1.10879">
        <ele>70</ele>
        <time>2017-12-19T13:38:59Z</time>
      </trkpt>
      <trkpt lat="49.43464" lon="1.1088">
        <ele>70</ele>
        <time>2017-12-19T13:38:59Z</time>
      </trkpt>
      <trkpt lat="49.43466" lon="1.10882">
        <ele>70</ele>
        <time>2017-12-19T13:39:14Z</time>
      </trkpt>
      <trkpt lat="49.43467" lon="1.10887">
        <ele>70</ele>
        <time>2017-12-19T13:39:14Z</time>
      </trkpt>
      <trkpt lat="49.43469" lon="1.10891">
        <ele>70</ele>
        <time>2017-12-19T13:39:15Z</time>
      </trkpt>
      <trkpt lat="49.43471" lon="1.10896">
        <ele>70</ele>
        <time>2017-12-19T13:39:15Z</time>
      </trkpt>
      <trkpt lat="49.43473" lon="1.10898">
        <ele>70</ele>
        <time>2017-12-19T13:39:34Z</time>
      </trkpt>
      <trkpt lat="49.43476" lon="1.10899">
        <ele>70</ele>
        <time>2017-12-19T13:39:34Z</time>
      </trkpt>
      <trkpt lat="49.43478" lon="1.10899">
        <ele>70</ele>
        <time>2017-12-19T13:39:34Z</time>
      </trkpt>
      <trkpt lat="49.4348" lon="1.10898">
        <ele>70</ele>
        <time>2017-12-19T13:39:34Z</time>
      </trkpt>
      <trkpt lat="49.43482" lon="1.10896">
        <ele>70</ele>
        <time>2017-12-19T13:39:35Z</time>
      </trkpt>
      <trkpt lat="49.43485" lon="1.10895">
        <ele>70</ele>
        <time>2017-12-19T13:39:54Z</time>
      </trkpt>
      <trkpt lat="49.43487" lon="1.10891">
        <ele>70</ele>
        <time>2017-12-19T13:39:54Z</time>
      </trkpt>
      <trkpt lat="49.4349" lon="1.10889">
        <ele>70</ele>
        <time>2017-12-19T13:39:55Z</time>
      </trkpt>
      <trkpt lat="49.43492" lon="1.10889">
        <ele>70</ele>
        <time>2017-12-19T13:39:55Z</time>
      </trkpt>
      <trkpt lat="49.43494" lon="1.1089">
        <ele>70</ele>
        <time>2017-12-19T13:39:55Z</time>
      </trkpt>
      <trkpt lat="49.43496" lon="1.10891">
        <ele>70</ele>
        <time>2017-12-19T13:40:14Z</time>
      </trkpt>
      <trkpt lat="49.43499" lon="1.10892">
        <ele>70</ele>
        <time>2017-12-19T13:40:14Z</time>
      </trkpt>
      <trkpt lat="49.43501" lon="1.10894">
        <ele>70</ele>
        <time>2017-12-19T13:40:15Z</time>
      </trkpt>
      <trkpt lat="49.43503" lon="1.10897">
        <ele>70</ele>
        <time>2017-12-19T13:40:15Z</time>
      </trkpt>
      <trkpt lat="49.43505" lon="1.109">
        <ele>70</ele>
        <time>2017-12-19T13:40:15Z</time>
      </trkpt>
      <trkpt lat="49.43507" lon="1.10903">
        <ele>70</ele>
        <time>2017-12-19T13:40:34Z</time>
      </trkpt>
      <trkpt lat="49.43508" lon="1.10907">
        <ele>70</ele>
        <time>2017-12-19T13:40:34Z</time>
      </trkpt>
      <trkpt lat="49.4351" lon="1.10911">
        <ele>70</ele>
        <time>2017-12-19T13:40:35Z</time>
      </trkpt>
      <trkpt lat="49.43511" lon="1.10915">
        <ele>70</ele>
        <time>2017-12-19T13:40:35Z</time>
      </trkpt>
      <trkpt lat="49.43513" lon="1.10919">
        <ele>70</ele>
        <time>2017-12-19T13:40:35Z</time>
      </trkpt>
      <trkpt lat="49.43515" lon="1.10921">
        <ele>70</ele>
        <time>2017-12-19T13:40:54Z</time>
      </trkpt>
      <trkpt lat="49.43516" lon="1.10925">
        <ele>70</ele>
        <time>2017-12-19T13:40:54Z</time>
      </trkpt>
      <trkpt lat="49.43517" lon="1.1093">
        <ele>70</ele>
        <time>2017-12-19T13:40:55Z</time>
      </trkpt>
      <trkpt lat="49.43517" lon="1.10934">
        <ele>70</ele>
        <time>2017-12-19T13:40:55Z</time>
      </trkpt>
      <trkpt lat="49.43517" lon="1.10938">
        <ele>70</ele>
        <time>2017-12-19T13:40:55Z</time>
      </trkpt>
      <trkpt lat="49.4352" lon="1.10944">
        <ele>70</ele>
        <time>2017-12-19T13:41:30Z</time>
      </trkpt>
      <trkpt lat="49.43521" lon="1.10942">
        <ele>70</ele>
        <time>2017-12-19T13:41:30Z</time>
      </trkpt>
      <trkpt lat="49.43522" lon="1.10941">
        <ele>70</ele>
        <time>2017-12-19T13:41:31Z</time>
      </trkpt>
      <trkpt lat="49.43525" lon="1.10942">
        <ele>70</ele>
        <time>2017-12-19T13:41:31Z</time>
      </trkpt>
      <trkpt lat="49.43527" lon="1.10943">
        <ele>70</ele>
        <time>2017-12-19T13:41:31Z</time>
      </trkpt>
      <trkpt lat="49.43532" lon="1.10942">
        <ele>70</ele>
        <time>2017-12-19T13:42:06Z</time>
      </trkpt>
      <trkpt lat="49.43533" lon="1.10944">
        <ele>70</ele>
        <time>2017-12-19T13:42:06Z</time>
      </trkpt>
      <trkpt lat="49.43534" lon="1.10946">
        <ele>70</ele>
        <time>2017-12-19T13:42:07Z</time>
      </trkpt>
      <trkpt lat="49.43536" lon="1.10948">
        <ele>70</ele>
        <time>2017-12-19T13:42:07Z</time>
      </trkpt>
      <trkpt lat="49.43538" lon="1.10951">
        <ele>70</ele>
        <time>2017-12-19T13:42:07Z</time>
      </trkpt>
      <trkpt lat="49.4354" lon="1.10953">
        <ele>70</ele>
        <time>2017-12-19T13:42:26Z</time>
      </trkpt>
      <trkpt lat="49.43542" lon="1.10954">
        <ele>34</ele>
        <time>2017-12-19T13:42:26Z</time>
      </trkpt>
      <trkpt lat="49.43543" lon="1.10953">
        <ele>34</ele>
        <time>2017-12-19T13:42:27Z</time>
      </trkpt>
      <trkpt lat="49.43545" lon="1.10951">
        <ele>34</ele>
        <time>2017-12-19T13:42:27Z</time>
      </trkpt>
      <trkpt lat="49.43549" lon="1.10946">
        <ele>34</ele>
        <time>2017-12-19T13:42:27Z</time>
      </trkpt>
      <trkpt lat="49.43555" lon="1.10941">
        <ele>34</ele>
        <time>2017-12-19T13:42:50Z</time>
      </trkpt>
      <trkpt lat="49.43557" lon="1.1094">
        <ele>34</ele>
        <time>2017-12-19T13:42:50Z</time>
      </trkpt>
      <trkpt lat="49.43559" lon="1.10941">
        <ele>34</ele>
        <time>2017-12-19T13:42:51Z</time>
      </trkpt>
      <trkpt lat="49.43559" lon="1.10947">
        <ele>34</ele>
        <time>2017-12-19T13:42:51Z</time>
      </trkpt>
      <trkpt lat="49.4356" lon="1.10953">
        <ele>34</ele>
        <time>2017-12-19T13:42:51Z</time>
      </trkpt>
      <trkpt lat="49.43563" lon="1.10957">
        <ele>34</ele>
        <time>2017-12-19T13:43:14Z</time>
      </trkpt>
      <trkpt lat="49.43565" lon="1.10955">
        <ele>34</ele>
        <time>2017-12-19T13:43:14Z</time>
      </trkpt>
      <trkpt lat="49.43567" lon="1.10953">
        <ele>34</ele>
        <time>2017-12-19T13:43:15Z</time>
      </trkpt>
      <trkpt lat="49.4357" lon="1.10952">
        <ele>34</ele>
        <time>2017-12-19T13:43:15Z</time>
      </trkpt>
      <trkpt lat="49.43572" lon="1.10952">
        <ele>34</ele>
        <time>2017-12-19T13:43:15Z</time>
      </trkpt>
      <trkpt lat="49.43575" lon="1.10956">
        <ele>34</ele>
        <time>2017-12-19T13:43:38Z</time>
      </trkpt>
      <trkpt lat="49.43577" lon="1.10959">
        <ele>40</ele>
        <time>2017-12-19T13:43:38Z</time>
      </trkpt>
      <trkpt lat="49.43578" lon="1.1096">
        <ele>40</ele>
        <time>2017-12-19T13:43:39Z</time>
      </trkpt>
      <trkpt lat="49.4358" lon="1.1096">
        <ele>40</ele>
        <time>2017-12-19T13:43:39Z</time>
      </trkpt>
      <trkpt lat="49.43582" lon="1.10959">
        <ele>40</ele>
        <time>2017-12-19T13:43:39Z</time>
      </trkpt>
      <trkpt lat="49.43585" lon="1.10959">
        <ele>40</ele>
        <time>2017-12-19T13:43:58Z</time>
      </trkpt>
      <trkpt lat="49.43587" lon="1.10958">
        <ele>40</ele>
        <time>2017-12-19T13:43:58Z</time>
      </trkpt>
      <trkpt lat="49.43589" lon="1.10957">
        <ele>34</ele>
        <time>2017-12-19T13:43:59Z</time>
      </trkpt>
      <trkpt lat="49.43591" lon="1.10956">
        <ele>34</ele>
        <time>2017-12-19T13:43:59Z</time>
      </trkpt>
      <trkpt lat="49.43594" lon="1.10955">
        <ele>34</ele>
        <time>2017-12-19T13:43:59Z</time>
      </trkpt>
      <trkpt lat="49.43596" lon="1.10954">
        <ele>34</ele>
        <time>2017-12-19T13:44:18Z</time>
      </trkpt>
      <trkpt lat="49.43599" lon="1.10953">
        <ele>34</ele>
        <time>2017-12-19T13:44:18Z</time>
      </trkpt>
      <trkpt lat="49.43601" lon="1.10951">
        <ele>34</ele>
        <time>2017-12-19T13:44:19Z</time>
      </trkpt>
      <trkpt lat="49.43605" lon="1.10952">
        <ele>34</ele>
        <time>2017-12-19T13:44:19Z</time>
      </trkpt>
      <trkpt lat="49.43608" lon="1.10953">
        <ele>34</ele>
        <time>2017-12-19T13:44:19Z</time>
      </trkpt>
      <trkpt lat="49.43615" lon="1.10954">
        <ele>34</ele>
        <time>2017-12-19T13:45:22Z</time>
      </trkpt>
      <trkpt lat="49.43616" lon="1.10955">
        <ele>34</ele>
        <time>2017-12-19T13:45:22Z</time>
      </trkpt>
      <trkpt lat="49.43618" lon="1.1096">
        <ele>40</ele>
        <time>2017-12-19T13:45:22Z</time>
      </trkpt>
      <trkpt lat="49.4362" lon="1.10963">
        <ele>40</ele>
        <time>2017-12-19T13:45:22Z</time>
      </trkpt>
      <trkpt lat="49.43622" lon="1.10968">
        <ele>40</ele>
        <time>2017-12-19T13:45:22Z</time>
      </trkpt>
      <trkpt lat="49.43622" lon="1.10984">
        <ele>40</ele>
        <time>2017-12-19T13:52:46Z</time>
      </trkpt>
      <trkpt lat="49.43622" lon="1.10984">
        <ele>40</ele>
        <time>2017-12-19T13:52:46Z</time>
      </trkpt>
      <trkpt lat="49.43622" lon="1.10986">
        <ele>40</ele>
        <time>2017-12-19T13:52:47Z</time>
      </trkpt>
      <trkpt lat="49.43623" lon="1.10992">
        <ele>40</ele>
        <time>2017-12-19T13:52:47Z</time>
      </trkpt>
      <trkpt lat="49.43623" lon="1.10997">
        <ele>40</ele>
        <time>2017-12-19T13:52:47Z</time>
      </trkpt>
      <trkpt lat="49.43625" lon="1.11003">
        <ele>40</ele>
        <time>2017-12-19T13:53:02Z</time>
      </trkpt>
      <trkpt lat="49.43629" lon="1.11005">
        <ele>21</ele>
        <time>2017-12-19T13:53:03Z</time>
      </trkpt>
      <trkpt lat="49.43633" lon="1.11007">
        <ele>21</ele>
        <time>2017-12-19T13:53:03Z</time>
      </trkpt>
      <trkpt lat="49.43635" lon="1.1101">
        <ele>21</ele>
        <time>2017-12-19T13:53:03Z</time>
      </trkpt>
      <trkpt lat="49.43635" lon="1.11011">
        <ele>21</ele>
        <time>2017-12-19T13:53:22Z</time>
      </trkpt>
      <trkpt lat="49.43635" lon="1.11008">
        <ele>21</ele>
        <time>2017-12-19T13:53:23Z</time>
      </trkpt>
      <trkpt lat="49.43637" lon="1.11005">
        <ele>21</ele>
        <time>2017-12-19T13:53:23Z</time>
      </trkpt>
      <trkpt lat="49.43637" lon="1.11">
        <ele>21</ele>
        <time>2017-12-19T13:53:23Z</time>
      </trkpt>
      <trkpt lat="49.43638" lon="1.10995">
        <ele>21</ele>
        <time>2017-12-19T13:53:23Z</time>
      </trkpt>
      <trkpt lat="49.43637" lon="1.10989">
        <ele>21</ele>
        <time>2017-12-19T13:53:38Z</time>
      </trkpt>
      <trkpt lat="49.43638" lon="1.10983">
        <ele>21</ele>
        <time>2017-12-19T13:53:38Z</time>
      </trkpt>
      <trkpt lat="49.43638" lon="1.10977">
        <ele>21</ele>
        <time>2017-12-19T13:53:39Z</time>
      </trkpt>
      <trkpt lat="49.43639" lon="1.10971">
        <ele>21</ele>
        <time>2017-12-19T13:53:39Z</time>
      </trkpt>
      <trkpt lat="49.4364" lon="1.10965">
        <ele>21</ele>
        <time>2017-12-19T13:53:54Z</time>
      </trkpt>
      <trkpt lat="49.4364" lon="1.10959">
        <ele>21</ele>
        <time>2017-12-19T13:53:54Z</time>
      </trkpt>
      <trkpt lat="49.4364" lon="1.10953">
        <ele>19</ele>
        <time>2017-12-19T13:53:55Z</time>
      </trkpt>
      <trkpt lat="49.4364" lon="1.10947">
        <ele>19</ele>
        <time>2017-12-19T13:53:55Z</time>
      </trkpt>
      <trkpt lat="49.4364" lon="1.10933">
        <ele>19</ele>
        <time>2017-12-19T13:54:22Z</time>
      </trkpt>
      <trkpt lat="49.4364" lon="1.10931">
        <ele>19</ele>
        <time>2017-12-19T13:54:22Z</time>
      </trkpt>
      <trkpt lat="49.4364" lon="1.10929">
        <ele>19</ele>
        <time>2017-12-19T13:54:23Z</time>
      </trkpt>
      <trkpt lat="49.43641" lon="1.10929">
        <ele>19</ele>
        <time>2017-12-19T13:54:23Z</time>
      </trkpt>
      <trkpt lat="49.43642" lon="1.10928">
        <ele>19</ele>
        <time>2017-12-19T13:54:23Z</time>
      </trkpt>
      <trkpt lat="49.43646" lon="1.10929">
        <ele>19</ele>
        <time>2017-12-19T13:54:58Z</time>
      </trkpt>
      <trkpt lat="49.43648" lon="1.1093">
        <ele>19</ele>
        <time>2017-12-19T13:54:58Z</time>
      </trkpt>
      <trkpt lat="49.43649" lon="1.10932">
        <ele>19</ele>
        <time>2017-12-19T13:54:59Z</time>
      </trkpt>
      <trkpt lat="49.4365" lon="1.10934">
        <ele>19</ele>
        <time>2017-12-19T13:54:59Z</time>
      </trkpt>
      <trkpt lat="49.4365" lon="1.10936">
        <ele>19</ele>
        <time>2017-12-19T13:54:59Z</time>
      </trkpt>
      <trkpt lat="49.43656" lon="1.10943">
        <ele>19</ele>
        <time>2017-12-19T13:55:38Z</time>
      </trkpt>
      <trkpt lat="49.43657" lon="1.10942">
        <ele>19</ele>
        <time>2017-12-19T13:55:38Z</time>
      </trkpt>
      <trkpt lat="49.43659" lon="1.10942">
        <ele>19</ele>
        <time>2017-12-19T13:55:39Z</time>
      </trkpt>
      <trkpt lat="49.43662" lon="1.10942">
        <ele>19</ele>
        <time>2017-12-19T13:55:39Z</time>
      </trkpt>
      <trkpt lat="49.43664" lon="1.10939">
        <ele>19</ele>
        <time>2017-12-19T13:55:39Z</time>
      </trkpt>
      <trkpt lat="49.43666" lon="1.10937">
        <ele>19</ele>
        <time>2017-12-19T13:55:54Z</time>
      </trkpt>
      <trkpt lat="49.4367" lon="1.10935">
        <ele>19</ele>
        <time>2017-12-19T13:55:54Z</time>
      </trkpt>
      <trkpt lat="49.43673" lon="1.10932">
        <ele>19</ele>
        <time>2017-12-19T13:55:54Z</time>
      </trkpt>
      <trkpt lat="49.43676" lon="1.1093">
        <ele>19</ele>
        <time>2017-12-19T13:55:55Z</time>
      </trkpt>
      <trkpt lat="49.43679" lon="1.10928">
        <ele>19</ele>
        <time>2017-12-19T13:56:10Z</time>
      </trkpt>
      <trkpt lat="49.43681" lon="1.10926">
        <ele>19</ele>
        <time>2017-12-19T13:56:10Z</time>
      </trkpt>
      <trkpt lat="49.43687" lon="1.10925">
        <ele>19</ele>
        <time>2017-12-19T13:56:11Z</time>
      </trkpt>
      <trkpt lat="49.43693" lon="1.10925">
        <ele>19</ele>
        <time>2017-12-19T13:56:11Z</time>
      </trkpt>
      <trkpt lat="49.43698" lon="1.1092">
        <ele>19</ele>
        <time>2017-12-19T13:56:26Z</time>
      </trkpt>
      <trkpt lat="49.43697" lon="1.10911">
        <ele>19</ele>
        <time>2017-12-19T13:56:26Z</time>
      </trkpt>
      <trkpt lat="49.43696" lon="1.10899">
        <ele>19</ele>
        <time>2017-12-19T13:56:26Z</time>
      </trkpt>
      <trkpt lat="49.43697" lon="1.1089">
        <ele>19</ele>
        <time>2017-12-19T13:56:27Z</time>
      </trkpt>
      <trkpt lat="49.437" lon="1.10882">
        <ele>19</ele>
        <time>2017-12-19T13:56:42Z</time>
      </trkpt>
      <trkpt lat="49.43705" lon="1.10874">
        <ele>16</ele>
        <time>2017-12-19T13:56:42Z</time>
      </trkpt>
      <trkpt lat="49.4371" lon="1.10867">
        <ele>10</ele>
        <time>2017-12-19T13:56:43Z</time>
      </trkpt>
      <trkpt lat="49.43714" lon="1.10858">
        <ele>10</ele>
        <time>2017-12-19T13:56:43Z</time>
      </trkpt>
      <trkpt lat="49.43717" lon="1.1085">
        <ele>10</ele>
        <time>2017-12-19T13:56:58Z</time>
      </trkpt>
      <trkpt lat="49.43714" lon="1.10841">
        <ele>10</ele>
        <time>2017-12-19T13:56:58Z</time>
      </trkpt>
      <trkpt lat="49.43712" lon="1.10833">
        <ele>10</ele>
        <time>2017-12-19T13:56:59Z</time>
      </trkpt>
      <trkpt lat="49.43708" lon="1.10826">
        <ele>16</ele>
        <time>2017-12-19T13:56:59Z</time>
      </trkpt>
      <trkpt lat="49.43704" lon="1.10818">
        <ele>16</ele>
        <time>2017-12-19T13:57:14Z</time>
      </trkpt>
      <trkpt lat="49.437" lon="1.1081">
        <ele>16</ele>
        <time>2017-12-19T13:57:15Z</time>
      </trkpt>
      <trkpt lat="49.43697" lon="1.10804">
        <ele>16</ele>
        <time>2017-12-19T13:57:15Z</time>
      </trkpt>
      <trkpt lat="49.43694" lon="1.10803">
        <ele>16</ele>
        <time>2017-12-19T13:57:15Z</time>
      </trkpt>
      <trkpt lat="49.43691" lon="1.10803">
        <ele>16</ele>
        <time>2017-12-19T13:57:34Z</time>
      </trkpt>
      <trkpt lat="49.43689" lon="1.10802">
        <ele>16</ele>
        <time>2017-12-19T13:57:34Z</time>
      </trkpt>
      <trkpt lat="49.43687" lon="1.108">
        <ele>16</ele>
        <time>2017-12-19T13:57:35Z</time>
      </trkpt>
      <trkpt lat="49.43684" lon="1.10798">
        <ele>16</ele>
        <time>2017-12-19T13:57:35Z</time>
      </trkpt>
      <trkpt lat="49.43681" lon="1.10794">
        <ele>16</ele>
        <time>2017-12-19T13:57:35Z</time>
      </trkpt>
      <trkpt lat="49.43678" lon="1.10789">
        <ele>15</ele>
        <time>2017-12-19T13:57:50Z</time>
      </trkpt>
      <trkpt lat="49.43676" lon="1.10783">
        <ele>15</ele>
        <time>2017-12-19T13:57:50Z</time>
      </trkpt>
      <trkpt lat="49.43673" lon="1.10778">
        <ele>15</ele>
        <time>2017-12-19T13:57:51Z</time>
      </trkpt>
      <trkpt lat="49.43671" lon="1.10773">
        <ele>15</ele>
        <time>2017-12-19T13:57:51Z</time>
      </trkpt>
      <trkpt lat="49.43668" lon="1.10768">
        <ele>15</ele>
        <time>2017-12-19T13:58:06Z</time>
      </trkpt>
      <trkpt lat="49.43665" lon="1.10762">
        <ele>15</ele>
        <time>2017-12-19T13:58:06Z</time>
      </trkpt>
      <trkpt lat="49.43663" lon="1.10757">
        <ele>15</ele>
        <time>2017-12-19T13:58:07Z</time>
      </trkpt>
      <trkpt lat="49.4366" lon="1.10752">
        <ele>15</ele>
        <time>2017-12-19T13:58:07Z</time>
      </trkpt>
      <trkpt lat="49.43658" lon="1.10747">
        <ele>15</ele>
        <time>2017-12-19T13:58:22Z</time>
      </trkpt>
      <trkpt lat="49.43655" lon="1.10742">
        <ele>15</ele>
        <time>2017-12-19T13:58:23Z</time>
      </trkpt>
      <trkpt lat="49.43652" lon="1.10737">
        <ele>15</ele>
        <time>2017-12-19T13:58:23Z</time>
      </trkpt>
      <trkpt lat="49.43649" lon="1.10733">
        <ele>15</ele>
        <time>2017-12-19T13:58:23Z</time>
      </trkpt>
      <trkpt lat="49.43646" lon="1.10729">
        <ele>15</ele>
        <time>2017-12-19T13:58:38Z</time>
      </trkpt>
      <trkpt lat="49.43644" lon="1.10724">
        <ele>15</ele>
        <time>2017-12-19T13:58:38Z</time>
      </trkpt>
      <trkpt lat="49.43644" lon="1.10718">
        <ele>15</ele>
        <time>2017-12-19T13:58:39Z</time>
      </trkpt>
      <trkpt lat="49.43643" lon="1.10715">
        <ele>15</ele>
        <time>2017-12-19T13:58:39Z</time>
      </trkpt>
      <trkpt lat="49.43641" lon="1.10711">
        <ele>15</ele>
        <time>2017-12-19T13:58:54Z</time>
      </trkpt>
      <trkpt lat="49.43641" lon="1.10706">
        <ele>13</ele>
        <time>2017-12-19T13:58:54Z</time>
      </trkpt>
      <trkpt lat="49.43643" lon="1.107">
        <ele>13</ele>
        <time>2017-12-19T13:58:54Z</time>
      </trkpt>
      <trkpt lat="49.43642" lon="1.10693">
        <ele>13</ele>
        <time>2017-12-19T13:58:54Z</time>
      </trkpt>
      <trkpt lat="49.43641" lon="1.10687">
        <ele>13</ele>
        <time>2017-12-19T13:59:10Z</time>
      </trkpt>
      <trkpt lat="49.43641" lon="1.1068">
        <ele>13</ele>
        <time>2017-12-19T13:59:10Z</time>
      </trkpt>
      <trkpt lat="49.43639" lon="1.10674">
        <ele>13</ele>
        <time>2017-12-19T13:59:11Z</time>
      </trkpt>
      <trkpt lat="49.43637" lon="1.10667">
        <ele>13</ele>
        <time>2017-12-19T13:59:11Z</time>
      </trkpt>
      <trkpt lat="49.43636" lon="1.1066">
        <ele>13</ele>
        <time>2017-12-19T13:59:26Z</time>
      </trkpt>
      <trkpt lat="49.43635" lon="1.10652">
        <ele>13</ele>
        <time>2017-12-19T13:59:27Z</time>
      </trkpt>
      <trkpt lat="49.43637" lon="1.10645">
        <ele>13</ele>
        <time>2017-12-19T13:59:27Z</time>
      </trkpt>
      <trkpt lat="49.4364" lon="1.10637">
        <ele>13</ele>
        <time>2017-12-19T13:59:27Z</time>
      </trkpt>
      <trkpt lat="49.43642" lon="1.1063">
        <ele>13</ele>
        <time>2017-12-19T13:59:42Z</time>
      </trkpt>
      <trkpt lat="49.43647" lon="1.10626">
        <ele>13</ele>
        <time>2017-12-19T13:59:42Z</time>
      </trkpt>
      <trkpt lat="49.43653" lon="1.10623">
        <ele>13</ele>
        <time>2017-12-19T13:59:43Z</time>
      </trkpt>
      <trkpt lat="49.43658" lon="1.10621">
        <ele>13</ele>
        <time>2017-12-19T13:59:43Z</time>
      </trkpt>
      <trkpt lat="49.43662" lon="1.10618">
        <ele>13</ele>
        <time>2017-12-19T13:59:58Z</time>
      </trkpt>
      <trkpt lat="49.43665" lon="1.10615">
        <ele>13</ele>
        <time>2017-12-19T13:59:58Z</time>
      </trkpt>
      <trkpt lat="49.43669" lon="1.10613">
        <ele>13</ele>
        <time>2017-12-19T13:59:59Z</time>
      </trkpt>
      <trkpt lat="49.43672" lon="1.1061">
        <ele>13</ele>
        <time>2017-12-19T13:59:59Z</time>
      </trkpt>
      <trkpt lat="49.43676" lon="1.10606">
        <ele>13</ele>
        <time>2017-12-19T14:00:14Z</time>
      </trkpt>
      <trkpt lat="49.4368" lon="1.10604">
        <ele>13</ele>
        <time>2017-12-19T14:00:14Z</time>
      </trkpt>
      <trkpt lat="49.43683" lon="1.106">
        <ele>13</ele>
        <time>2017-12-19T14:00:15Z</time>
      </trkpt>
      <trkpt lat="49.43686" lon="1.10597">
        <ele>13</ele>
        <time>2017-12-19T14:00:15Z</time>
      </trkpt>
      <trkpt lat="49.4369" lon="1.10594">
        <ele>13</ele>
        <time>2017-12-19T14:00:30Z</time>
      </trkpt>
      <trkpt lat="49.43694" lon="1.10592">
        <ele>13</ele>
        <time>2017-12-19T14:00:30Z</time>
      </trkpt>
      <trkpt lat="49.43699" lon="1.1059">
        <ele>13</ele>
        <time>2017-12-19T14:00:31Z</time>
      </trkpt>
      <trkpt lat="49.43704" lon="1.10586">
        <ele>13</ele>
        <time>2017-12-19T14:00:31Z</time>
      </trkpt>
      <trkpt lat="49.43708" lon="1.10584">
        <ele>13</ele>
        <time>2017-12-19T14:00:46Z</time>
      </trkpt>
      <trkpt lat="49.43711" lon="1.10581">
        <ele>12</ele>
        <time>2017-12-19T14:00:46Z</time>
      </trkpt>
      <trkpt lat="49.43715" lon="1.10578">
        <ele>12</ele>
        <time>2017-12-19T14:00:47Z</time>
      </trkpt>
      <trkpt lat="49.43719" lon="1.10575">
        <ele>12</ele>
        <time>2017-12-19T14:00:47Z</time>
      </trkpt>
      <trkpt lat="49.43723" lon="1.10571">
        <ele>12</ele>
        <time>2017-12-19T14:01:02Z</time>
      </trkpt>
      <trkpt lat="49.43728" lon="1.10567">
        <ele>12</ele>
        <time>2017-12-19T14:01:03Z</time>
      </trkpt>
      <trkpt lat="49.43731" lon="1.10564">
        <ele>12</ele>
        <time>2017-12-19T14:01:03Z</time>
      </trkpt>
      <trkpt lat="49.43734" lon="1.10559">
        <ele>12</ele>
        <time>2017-12-19T14:01:03Z</time>
      </trkpt>
      <trkpt lat="49.43743" lon="1.10555">
        <ele>12</ele>
        <time>2017-12-19T14:01:34Z</time>
      </trkpt>
      <trkpt lat="49.43746" lon="1.10552">
        <ele>12</ele>
        <time>2017-12-19T14:01:34Z</time>
      </trkpt>
      <trkpt lat="49.43754" lon="1.10546">
        <ele>12</ele>
        <time>2017-12-19T14:01:35Z</time>
      </trkpt>
      <trkpt lat="49.43759" lon="1.10539">
        <ele>8</ele>
        <time>2017-12-19T14:01:35Z</time>
      </trkpt>
      <trkpt lat="49.43763" lon="1.10535">
        <ele>8</ele>
        <time>2017-12-19T14:01:35Z</time>
      </trkpt>
      <trkpt lat="49.4377" lon="1.10524">
        <ele>8</ele>
        <time>2017-12-19T14:02:18Z</time>
      </trkpt>
      <trkpt lat="49.43771" lon="1.10524">
        <ele>8</ele>
        <time>2017-12-19T14:02:18Z</time>
      </trkpt>
      <trkpt lat="49.43771" lon="1.10524">
        <ele>8</ele>
        <time>2017-12-19T14:02:18Z</time>
      </trkpt>
      <trkpt lat="49.43772" lon="1.10523">
        <ele>8</ele>
        <time>2017-12-19T14:02:19Z</time>
      </trkpt>
      <trkpt lat="49.43775" lon="1.10519">
        <ele>8</ele>
        <time>2017-12-19T14:02:19Z</time>
      </trkpt>
      <trkpt lat="49.43777" lon="1.10515">
        <ele>8</ele>
        <time>2017-12-19T14:02:34Z</time>
      </trkpt>
      <trkpt lat="49.4378" lon="1.10512">
        <ele>8</ele>
        <time>2017-12-19T14:02:34Z</time>
      </trkpt>
      <trkpt lat="49.43783" lon="1.10509">
        <ele>8</ele>
        <time>2017-12-19T14:02:35Z</time>
      </trkpt>
      <trkpt lat="49.43788" lon="1.10505">
        <ele>8</ele>
        <time>2017-12-19T14:02:35Z</time>
      </trkpt>
      <trkpt lat="49.43793" lon="1.10501">
        <ele>9</ele>
        <time>2017-12-19T14:02:50Z</time>
      </trkpt>
      <trkpt lat="49.43798" lon="1.10496">
        <ele>9</ele>
        <time>2017-12-19T14:02:50Z</time>
      </trkpt>
      <trkpt lat="49.43801" lon="1.10491">
        <ele>9</ele>
        <time>2017-12-19T14:02:51Z</time>
      </trkpt>
      <trkpt lat="49.43805" lon="1.10485">
        <ele>9</ele>
        <time>2017-12-19T14:02:51Z</time>
      </trkpt>
      <trkpt lat="49.43806" lon="1.10478">
        <ele>9</ele>
        <time>2017-12-19T14:03:06Z</time>
      </trkpt>
      <trkpt lat="49.43808" lon="1.10472">
        <ele>9</ele>
        <time>2017-12-19T14:03:06Z</time>
      </trkpt>
      <trkpt lat="49.4381" lon="1.10465">
        <ele>9</ele>
        <time>2017-12-19T14:03:07Z</time>
      </trkpt>
      <trkpt lat="49.43812" lon="1.10459">
        <ele>9</ele>
        <time>2017-12-19T14:03:07Z</time>
      </trkpt>
      <trkpt lat="49.43813" lon="1.10452">
        <ele>9</ele>
        <time>2017-12-19T14:03:22Z</time>
      </trkpt>
      <trkpt lat="49.43815" lon="1.10445">
        <ele>9</ele>
        <time>2017-12-19T14:03:22Z</time>
      </trkpt>
      <trkpt lat="49.43817" lon="1.10439">
        <ele>9</ele>
        <time>2017-12-19T14:03:23Z</time>
      </trkpt>
      <trkpt lat="49.43819" lon="1.10432">
        <ele>9</ele>
        <time>2017-12-19T14:03:23Z</time>
      </trkpt>
      <trkpt lat="49.43821" lon="1.10425">
        <ele>9</ele>
        <time>2017-12-19T14:03:38Z</time>
      </trkpt>
      <trkpt lat="49.43823" lon="1.10418">
        <ele>9</ele>
        <time>2017-12-19T14:03:38Z</time>
      </trkpt>
      <trkpt lat="49.43827" lon="1.10412">
        <ele>9</ele>
        <time>2017-12-19T14:03:39Z</time>
      </trkpt>
      <trkpt lat="49.43831" lon="1.10408">
        <ele>9</ele>
        <time>2017-12-19T14:03:39Z</time>
      </trkpt>
      <trkpt lat="49.43835" lon="1.10404">
        <ele>9</ele>
        <time>2017-12-19T14:03:54Z</time>
      </trkpt>
      <trkpt lat="49.43837" lon="1.10398">
        <ele>9</ele>
        <time>2017-12-19T14:03:54Z</time>
      </trkpt>
      <trkpt lat="49.4384" lon="1.10393">
        <ele>9</ele>
        <time>2017-12-19T14:03:55Z</time>
      </trkpt>
      <trkpt lat="49.43841" lon="1.10387">
        <ele>9</ele>
        <time>2017-12-19T14:03:55Z</time>
      </trkpt>
      <trkpt lat="49.43843" lon="1.10381">
        <ele>9</ele>
        <time>2017-12-19T14:04:10Z</time>
      </trkpt>
      <trkpt lat="49.43845" lon="1.10375">
        <ele>10</ele>
        <time>2017-12-19T14:04:10Z</time>
      </trkpt>
      <trkpt lat="49.43847" lon="1.10368">
        <ele>10</ele>
        <time>2017-12-19T14:04:11Z</time>
      </trkpt>
      <trkpt lat="49.43849" lon="1.10362">
        <ele>10</ele>
        <time>2017-12-19T14:04:11Z</time>
      </trkpt>
      <trkpt lat="49.4385" lon="1.10355">
        <ele>10</ele>
        <time>2017-12-19T14:04:26Z</time>
      </trkpt>
      <trkpt lat="49.43852" lon="1.10348">
        <ele>10</ele>
        <time>2017-12-19T14:04:26Z</time>
      </trkpt>
      <trkpt lat="49.43853" lon="1.10342">
        <ele>10</ele>
        <time>2017-12-19T14:04:27Z</time>
      </trkpt>
      <trkpt lat="49.43856" lon="1.10337">
        <ele>10</ele>
        <time>2017-12-19T14:04:27Z</time>
      </trkpt>
      <trkpt lat="49.4386" lon="1.10333">
        <ele>10</ele>
        <time>2017-12-19T14:04:42Z</time>
      </trkpt>
      <trkpt lat="49.43861" lon="1.10326">
        <ele>10</ele>
        <time>2017-12-19T14:04:42Z</time>
      </trkpt>
      <trkpt lat="49.43865" lon="1.10321">
        <ele>10</ele>
        <time>2017-12-19T14:04:42Z</time>
      </trkpt>
      <trkpt lat="49.43867" lon="1.10316">
        <ele>10</ele>
        <time>2017-12-19T14:04:43Z</time>
      </trkpt>
      <trkpt lat="49.43869" lon="1.1031">
        <ele>10</ele>
        <time>2017-12-19T14:04:58Z</time>
      </trkpt>
      <trkpt lat="49.43868" lon="1.10304">
        <ele>10</ele>
        <time>2017-12-19T14:04:58Z</time>
      </trkpt>
      <trkpt lat="49.43866" lon="1.10297">
        <ele>10</ele>
        <time>2017-12-19T14:04:59Z</time>
      </trkpt>
      <trkpt lat="49.43866" lon="1.10288">
        <ele>11</ele>
        <time>2017-12-19T14:04:59Z</time>
      </trkpt>
      <trkpt lat="49.43867" lon="1.10281">
        <ele>11</ele>
        <time>2017-12-19T14:05:14Z</time>
      </trkpt>
      <trkpt lat="49.43869" lon="1.10276">
        <ele>11</ele>
        <time>2017-12-19T14:05:14Z</time>
      </trkpt>
      <trkpt lat="49.43874" lon="1.10272">
        <ele>11</ele>
        <time>2017-12-19T14:05:15Z</time>
      </trkpt>
      <trkpt lat="49.43878" lon="1.10266">
        <ele>12</ele>
        <time>2017-12-19T14:05:15Z</time>
      </trkpt>
      <trkpt lat="49.43882" lon="1.10259">
        <ele>12</ele>
        <time>2017-12-19T14:05:30Z</time>
      </trkpt>
      <trkpt lat="49.43884" lon="1.10251">
        <ele>12</ele>
        <time>2017-12-19T14:05:31Z</time>
      </trkpt>
      <trkpt lat="49.43886" lon="1.10244">
        <ele>12</ele>
        <time>2017-12-19T14:05:31Z</time>
      </trkpt>
      <trkpt lat="49.43889" lon="1.10239">
        <ele>12</ele>
        <time>2017-12-19T14:05:31Z</time>
      </trkpt>
      <trkpt lat="49.43893" lon="1.10234">
        <ele>12</ele>
        <time>2017-12-19T14:05:46Z</time>
      </trkpt>
      <trkpt lat="49.43896" lon="1.10227">
        <ele>12</ele>
        <time>2017-12-19T14:05:46Z</time>
      </trkpt>
      <trkpt lat="49.43896" lon="1.10219">
        <ele>12</ele>
        <time>2017-12-19T14:05:47Z</time>
      </trkpt>
      <trkpt lat="49.43897" lon="1.10211">
        <ele>12</ele>
        <time>2017-12-19T14:05:47Z</time>
      </trkpt>
      <trkpt lat="49.43898" lon="1.10203">
        <ele>11</ele>
        <time>2017-12-19T14:06:02Z</time>
      </trkpt>
      <trkpt lat="49.439" lon="1.10195">
        <ele>11</ele>
        <time>2017-12-19T14:06:02Z</time>
      </trkpt>
      <trkpt lat="49.43901" lon="1.1019">
        <ele>11</ele>
        <time>2017-12-19T14:06:03Z</time>
      </trkpt>
      <trkpt lat="49.43902" lon="1.10187">
        <ele>11</ele>
        <time>2017-12-19T14:06:03Z</time>
      </trkpt>
      <trkpt lat="49.43904" lon="1.10181">
        <ele>11</ele>
        <time>2017-12-19T14:06:18Z</time>
      </trkpt>
      <trkpt lat="49.43906" lon="1.10175">
        <ele>11</ele>
        <time>2017-12-19T14:06:18Z</time>
      </trkpt>
      <trkpt lat="49.43908" lon="1.10168">
        <ele>11</ele>
        <time>2017-12-19T14:06:19Z</time>
      </trkpt>
      <trkpt lat="49.4391" lon="1.10162">
        <ele>11</ele>
        <time>2017-12-19T14:06:19Z</time>
      </trkpt>
      <trkpt lat="49.43912" lon="1.10156">
        <ele>11</ele>
        <time>2017-12-19T14:06:34Z</time>
      </trkpt>
      <trkpt lat="49.43915" lon="1.1015">
        <ele>11</ele>
        <time>2017-12-19T14:06:34Z</time>
      </trkpt>
      <trkpt lat="49.43916" lon="1.10144">
        <ele>11</ele>
        <time>2017-12-19T14:06:35Z</time>
      </trkpt>
      <trkpt lat="49.43918" lon="1.10138">
        <ele>11</ele>
        <time>2017-12-19T14:06:35Z</time>
      </trkpt>
      <trkpt lat="49.43918" lon="1.10132">
        <ele>11</ele>
        <time>2017-12-19T14:06:50Z</time>
      </trkpt>
      <trkpt lat="49.43919" lon="1.10125">
        <ele>11</ele>
        <time>2017-12-19T14:06:50Z</time>
      </trkpt>
      <trkpt lat="49.4392" lon="1.10119">
        <ele>13</ele>
        <time>2017-12-19T14:06:51Z</time>
      </trkpt>
      <trkpt lat="49.43922" lon="1.10113">
        <ele>13</ele>
        <time>2017-12-19T14:06:51Z</time>
      </trkpt>
      <trkpt lat="49.43924" lon="1.10108">
        <ele>13</ele>
        <time>2017-12-19T14:07:06Z</time>
      </trkpt>
      <trkpt lat="49.43925" lon="1.10102">
        <ele>13</ele>
        <time>2017-12-19T14:07:06Z</time>
      </trkpt>
      <trkpt lat="49.43929" lon="1.10099">
        <ele>13</ele>
        <time>2017-12-19T14:07:07Z</time>
      </trkpt>
      <trkpt lat="49.43931" lon="1.10095">
        <ele>13</ele>
        <time>2017-12-19T14:07:07Z</time>
      </trkpt>
      <trkpt lat="49.43933" lon="1.1009">
        <ele>13</ele>
        <time>2017-12-19T14:07:22Z</time>
      </trkpt>
      <trkpt lat="49.43935" lon="1.10085">
        <ele>13</ele>
        <time>2017-12-19T14:07:22Z</time>
      </trkpt>
      <trkpt lat="49.43937" lon="1.1008">
        <ele>13</ele>
        <time>2017-12-19T14:07:23Z</time>
      </trkpt>
      <trkpt lat="49.43937" lon="1.10075">
        <ele>13</ele>
        <time>2017-12-19T14:07:23Z</time>
      </trkpt>
      <trkpt lat="49.43939" lon="1.1007">
        <ele>13</ele>
        <time>2017-12-19T14:07:38Z</time>
      </trkpt>
      <trkpt lat="49.43941" lon="1.10065">
        <ele>13</ele>
        <time>2017-12-19T14:07:38Z</time>
      </trkpt>
      <trkpt lat="49.43942" lon="1.1006">
        <ele>13</ele>
        <time>2017-12-19T14:07:39Z</time>
      </trkpt>
      <trkpt lat="49.43941" lon="1.10054">
        <ele>13</ele>
        <time>2017-12-19T14:07:39Z</time>
      </trkpt>
      <trkpt lat="49.43941" lon="1.10047">
        <ele>13</ele>
        <time>2017-12-19T14:07:54Z</time>
      </trkpt>
      <trkpt lat="49.43943" lon="1.10042">
        <ele>13</ele>
        <time>2017-12-19T14:07:54Z</time>
      </trkpt>
      <trkpt lat="49.43947" lon="1.10039">
        <ele>16</ele>
        <time>2017-12-19T14:07:55Z</time>
      </trkpt>
      <trkpt lat="49.43951" lon="1.10032">
        <ele>16</ele>
        <time>2017-12-19T14:07:55Z</time>
      </trkpt>
      <trkpt lat="49.43956" lon="1.10026">
        <ele>16</ele>
        <time>2017-12-19T14:08:10Z</time>
      </trkpt>
      <trkpt lat="49.43962" lon="1.1002">
        <ele>16</ele>
        <time>2017-12-19T14:08:10Z</time>
      </trkpt>
      <trkpt lat="49.43967" lon="1.10014">
        <ele>16</ele>
        <time>2017-12-19T14:08:11Z</time>
      </trkpt>
      <trkpt lat="49.4397" lon="1.10007">
        <ele>16</ele>
        <time>2017-12-19T14:08:11Z</time>
      </trkpt>
      <trkpt lat="49.43968" lon="1.09998">
        <ele>16</ele>
        <time>2017-12-19T14:08:26Z</time>
      </trkpt>
      <trkpt lat="49.43971" lon="1.09993">
        <ele>16</ele>
        <time>2017-12-19T14:08:26Z</time>
      </trkpt>
      <trkpt lat="49.43978" lon="1.09989">
        <ele>16</ele>
        <time>2017-12-19T14:08:27Z</time>
      </trkpt>
      <trkpt lat="49.43978" lon="1.09981">
        <ele>16</ele>
        <time>2017-12-19T14:08:27Z</time>
      </trkpt>
      <trkpt lat="49.43977" lon="1.09973">
        <ele>16</ele>
        <time>2017-12-19T14:08:42Z</time>
      </trkpt>
      <trkpt lat="49.43979" lon="1.09966">
        <ele>16</ele>
        <time>2017-12-19T14:08:42Z</time>
      </trkpt>
      <trkpt lat="49.43981" lon="1.0996">
        <ele>16</ele>
        <time>2017-12-19T14:08:43Z</time>
      </trkpt>
      <trkpt lat="49.43982" lon="1.09953">
        <ele>17</ele>
        <time>2017-12-19T14:08:43Z</time>
      </trkpt>
      <trkpt lat="49.43979" lon="1.09946">
        <ele>17</ele>
        <time>2017-12-19T14:09:50Z</time>
      </trkpt>
      <trkpt lat="49.43979" lon="1.09944">
        <ele>17</ele>
        <time>2017-12-19T14:09:50Z</time>
      </trkpt>
      <trkpt lat="49.43981" lon="1.09939">
        <ele>17</ele>
        <time>2017-12-19T14:09:51Z</time>
      </trkpt>
      <trkpt lat="49.43982" lon="1.09932">
        <ele>17</ele>
        <time>2017-12-19T14:09:51Z</time>
      </trkpt>
      <trkpt lat="49.43984" lon="1.09925">
        <ele>17</ele>
        <time>2017-12-19T14:09:51Z</time>
      </trkpt>
      <trkpt lat="49.43986" lon="1.09919">
        <ele>17</ele>
        <time>2017-12-19T14:10:06Z</time>
      </trkpt>
      <trkpt lat="49.43987" lon="1.09914">
        <ele>17</ele>
        <time>2017-12-19T14:10:06Z</time>
      </trkpt>
      <trkpt lat="49.43988" lon="1.09908">
        <ele>17</ele>
        <time>2017-12-19T14:10:07Z</time>
      </trkpt>
      <trkpt lat="49.4399" lon="1.09903">
        <ele>17</ele>
        <time>2017-12-19T14:10:07Z</time>
      </trkpt>
      <trkpt lat="49.43991" lon="1.09897">
        <ele>17</ele>
        <time>2017-12-19T14:10:22Z</time>
      </trkpt>
      <trkpt lat="49.43992" lon="1.0989">
        <ele>17</ele>
        <time>2017-12-19T14:10:22Z</time>
      </trkpt>
      <trkpt lat="49.43991" lon="1.09884">
        <ele>17</ele>
        <time>2017-12-19T14:10:23Z</time>
      </trkpt>
      <trkpt lat="49.4399" lon="1.09879">
        <ele>17</ele>
        <time>2017-12-19T14:10:23Z</time>
      </trkpt>
      <trkpt lat="49.43991" lon="1.09873">
        <ele>18</ele>
        <time>2017-12-19T14:10:38Z</time>
      </trkpt>
      <trkpt lat="49.43994" lon="1.09869">
        <ele>18</ele>
        <time>2017-12-19T14:10:38Z</time>
      </trkpt>
      <trkpt lat="49.43997" lon="1.09864">
        <ele>18</ele>
        <time>2017-12-19T14:10:39Z</time>
      </trkpt>
      <trkpt lat="49.43999" lon="1.09859">
        <ele>18</ele>
        <time>2017-12-19T14:10:39Z</time>
      </trkpt>
      <trkpt lat="49.44008" lon="1.09837">
        <ele>18</ele>
        <time>2017-12-19T14:11:10Z</time>
      </trkpt>
      <trkpt lat="49.44005" lon="1.09829">
        <ele>18</ele>
        <time>2017-12-19T14:11:10Z</time>
      </trkpt>
      <trkpt lat="49.44001" lon="1.0982">
        <ele>18</ele>
        <time>2017-12-19T14:11:11Z</time>
      </trkpt>
      <trkpt lat="49.43996" lon="1.09816">
        <ele>18</ele>
        <time>2017-12-19T14:11:11Z</time>
      </trkpt>
      <trkpt lat="49.43994" lon="1.09814">
        <ele>18</ele>
        <time>2017-12-19T14:11:11Z</time>
      </trkpt>
      <trkpt lat="49.43996" lon="1.09808">
        <ele>18</ele>
        <time>2017-12-19T14:12:10Z</time>
      </trkpt>
      <trkpt lat="49.44" lon="1.0981">
        <ele>18</ele>
        <time>2017-12-19T14:12:10Z</time>
      </trkpt>
      <trkpt lat="49.44004" lon="1.09811">
        <ele>18</ele>
        <time>2017-12-19T14:12:11Z</time>
      </trkpt>
      <trkpt lat="49.44006" lon="1.09813">
        <ele>18</ele>
        <time>2017-12-19T14:12:11Z</time>
      </trkpt>
      <trkpt lat="49.4401" lon="1.09814">
        <ele>18</ele>
        <time>2017-12-19T14:12:11Z</time>
      </trkpt>
      <trkpt lat="49.44014" lon="1.09816">
        <ele>18</ele>
        <time>2017-12-19T14:12:26Z</time>
      </trkpt>
      <trkpt lat="49.44018" lon="1.09818">
        <ele>18</ele>
        <time>2017-12-19T14:12:26Z</time>
      </trkpt>
      <trkpt lat="49.44022" lon="1.0982">
        <ele>18</ele>
        <time>2017-12-19T14:12:27Z</time>
      </trkpt>
      <trkpt lat="49.44025" lon="1.09823">
        <ele>18</ele>
        <time>2017-12-19T14:12:27Z</time>
      </trkpt>
      <trkpt lat="49.44028" lon="1.09828">
        <ele>18</ele>
        <time>2017-12-19T14:12:42Z</time>
      </trkpt>
      <trkpt lat="49.4403" lon="1.09832">
        <ele>18</ele>
        <time>2017-12-19T14:12:42Z</time>
      </trkpt>
      <trkpt lat="49.44036" lon="1.09831">
        <ele>18</ele>
        <time>2017-12-19T14:12:43Z</time>
      </trkpt>
      <trkpt lat="49.44043" lon="1.0983">
        <ele>19</ele>
        <time>2017-12-19T14:12:43Z</time>
      </trkpt>
      <trkpt lat="49.4405" lon="1.09828">
        <ele>19</ele>
        <time>2017-12-19T14:12:58Z</time>
      </trkpt>
      <trkpt lat="49.44054" lon="1.09831">
        <ele>19</ele>
        <time>2017-12-19T14:12:59Z</time>
      </trkpt>
      <trkpt lat="49.44059" lon="1.09832">
        <ele>19</ele>
        <time>2017-12-19T14:12:59Z</time>
      </trkpt>
      <trkpt lat="49.44068" lon="1.09829">
        <ele>19</ele>
        <time>2017-12-19T14:12:59Z</time>
      </trkpt>
      <trkpt lat="49.44076" lon="1.09826">
        <ele>19</ele>
        <time>2017-12-19T14:13:14Z</time>
      </trkpt>
      <trkpt lat="49.44084" lon="1.09827">
        <ele>19</ele>
        <time>2017-12-19T14:13:14Z</time>
      </trkpt>
      <trkpt lat="49.44082" lon="1.09837">
        <ele>19</ele>
        <time>2017-12-19T14:13:15Z</time>
      </trkpt>
      <trkpt lat="49.44083" lon="1.09844">
        <ele>19</ele>
        <time>2017-12-19T14:13:15Z</time>
      </trkpt>
      <trkpt lat="49.44088" lon="1.09847">
        <ele>19</ele>
        <time>2017-12-19T14:13:30Z</time>
      </trkpt>
      <trkpt lat="49.44093" lon="1.09848">
        <ele>19</ele>
        <time>2017-12-19T14:13:30Z</time>
      </trkpt>
      <trkpt lat="49.44097" lon="1.09851">
        <ele>19</ele>
        <time>2017-12-19T14:13:31Z</time>
      </trkpt>
      <trkpt lat="49.44103" lon="1.09852">
        <ele>19</ele>
        <time>2017-12-19T14:13:31Z</time>
      </trkpt>
      <trkpt lat="49.44105" lon="1.09857">
        <ele>19</ele>
        <time>2017-12-19T14:13:46Z</time>
      </trkpt>
      <trkpt lat="49.44104" lon="1.09864">
        <ele>19</ele>
        <time>2017-12-19T14:13:46Z</time>
      </trkpt>
      <trkpt lat="49.44104" lon="1.0987">
        <ele>19</ele>
        <time>2017-12-19T14:13:47Z</time>
      </trkpt>
      <trkpt lat="49.44106" lon="1.09875">
        <ele>19</ele>
        <time>2017-12-19T14:13:47Z</time>
      </trkpt>
      <trkpt lat="49.44109" lon="1.09878">
        <ele>19</ele>
        <time>2017-12-19T14:14:02Z</time>
      </trkpt>
      <trkpt lat="49.44114" lon="1.09881">
        <ele>19</ele>
        <time>2017-12-19T14:14:02Z</time>
      </trkpt>
      <trkpt lat="49.44118" lon="1.09884">
        <ele>19</ele>
        <time>2017-12-19T14:14:03Z</time>
      </trkpt>
      <trkpt lat="49.44121" lon="1.09885">
        <ele>19</ele>
        <time>2017-12-19T14:14:03Z</time>
      </trkpt>
      <trkpt lat="49.44124" lon="1.09888">
        <ele>19</ele>
        <time>2017-12-19T14:14:22Z</time>
      </trkpt>
      <trkpt lat="49.44126" lon="1.0989">
        <ele>20</ele>
        <time>2017-12-19T14:14:22Z</time>
      </trkpt>
      <trkpt lat="49.44128" lon="1.09891">
        <ele>20</ele>
        <time>2017-12-19T14:14:22Z</time>
      </trkpt>
      <trkpt lat="49.44129" lon="1.09892">
        <ele>20</ele>
        <time>2017-12-19T14:14:22Z</time>
      </trkpt>
      <trkpt lat="49.44134" lon="1.09894">
        <ele>20</ele>
        <time>2017-12-19T14:14:22Z</time>
      </trkpt>
      <trkpt lat="49.44143" lon="1.09888">
        <ele>20</ele>
        <time>2017-12-19T14:15:46Z</time>
      </trkpt>
      <trkpt lat="49.44142" lon="1.09887">
        <ele>20</ele>
        <time>2017-12-19T14:15:46Z</time>
      </trkpt>
      <trkpt lat="49.44144" lon="1.09889">
        <ele>20</ele>
        <time>2017-12-19T14:15:47Z</time>
      </trkpt>
      <trkpt lat="49.44148" lon="1.09893">
        <ele>20</ele>
        <time>2017-12-19T14:15:47Z</time>
      </trkpt>
      <trkpt lat="49.44151" lon="1.09898">
        <ele>20</ele>
        <time>2017-12-19T14:15:47Z</time>
      </trkpt>
      <trkpt lat="49.44154" lon="1.09902">
        <ele>20</ele>
        <time>2017-12-19T14:16:02Z</time>
      </trkpt>
      <trkpt lat="49.44157" lon="1.09902">
        <ele>20</ele>
        <time>2017-12-19T14:16:03Z</time>
      </trkpt>
      <trkpt lat="49.44162" lon="1.09904">
        <ele>20</ele>
        <time>2017-12-19T14:16:03Z</time>
      </trkpt>
      <trkpt lat="49.44167" lon="1.09905">
        <ele>20</ele>
        <time>2017-12-19T14:16:03Z</time>
      </trkpt>
      <trkpt lat="49.44172" lon="1.09908">
        <ele>20</ele>
        <time>2017-12-19T14:16:18Z</time>
      </trkpt>
      <trkpt lat="49.44178" lon="1.09911">
        <ele>20</ele>
        <time>2017-12-19T14:16:18Z</time>
      </trkpt>
      <trkpt lat="49.44182" lon="1.09914">
        <ele>20</ele>
        <time>2017-12-19T14:16:19Z</time>
      </trkpt>
      <trkpt lat="49.44185" lon="1.09916">
        <ele>20</ele>
        <time>2017-12-19T14:16:19Z</time>
      </trkpt>
      <trkpt lat="49.4419" lon="1.09917">
        <ele>20</ele>
        <time>2017-12-19T14:16:34Z</time>
      </trkpt>
      <trkpt lat="49.44195" lon="1.0992">
        <ele>20</ele>
        <time>2017-12-19T14:16:34Z</time>
      </trkpt>
      <trkpt lat="49.44199" lon="1.09928">
        <ele>20</ele>
        <time>2017-12-19T14:16:34Z</time>
      </trkpt>
      <trkpt lat="49.44199" lon="1.09938">
        <ele>20</ele>
        <time>2017-12-19T14:16:35Z</time>
      </trkpt>
      <trkpt lat="49.44201" lon="1.09944">
        <ele>20</ele>
        <time>2017-12-19T14:16:50Z</time>
      </trkpt>
      <trkpt lat="49.44205" lon="1.09944">
        <ele>20</ele>
        <time>2017-12-19T14:16:50Z</time>
      </trkpt>
      <trkpt lat="49.44208" lon="1.0994">
        <ele>20</ele>
        <time>2017-12-19T14:16:51Z</time>
      </trkpt>
      <trkpt lat="49.44212" lon="1.09935">
        <ele>20</ele>
        <time>2017-12-19T14:16:51Z</time>
      </trkpt>
      <trkpt lat="49.44216" lon="1.09931">
        <ele>20</ele>
        <time>2017-12-19T14:17:06Z</time>
      </trkpt>
      <trkpt lat="49.4422" lon="1.09934">
        <ele>20</ele>
        <time>2017-12-19T14:17:06Z</time>
      </trkpt>
      <trkpt lat="49.44222" lon="1.09941">
        <ele>20</ele>
        <time>2017-12-19T14:17:07Z</time>
      </trkpt>
      <trkpt lat="49.44223" lon="1.09948">
        <ele>20</ele>
        <time>2017-12-19T14:17:07Z</time>
      </trkpt>
      <trkpt lat="49.44222" lon="1.09954">
        <ele>20</ele>
        <time>2017-12-19T14:17:22Z</time>
      </trkpt>
      <trkpt lat="49.44222" lon="1.0996">
        <ele>23</ele>
        <time>2017-12-19T14:17:22Z</time>
      </trkpt>
      <trkpt lat="49.4422" lon="1.09966">
        <ele>23</ele>
        <time>2017-12-19T14:17:23Z</time>
      </trkpt>
      <trkpt lat="49.4422" lon="1.09974">
        <ele>23</ele>
        <time>2017-12-19T14:17:23Z</time>
      </trkpt>
      <trkpt lat="49.44221" lon="1.09982">
        <ele>23</ele>
        <time>2017-12-19T14:17:38Z</time>
      </trkpt>
      <trkpt lat="49.4422" lon="1.09989">
        <ele>23</ele>
        <time>2017-12-19T14:17:38Z</time>
      </trkpt>
      <trkpt lat="49.44219" lon="1.09995">
        <ele>23</ele>
        <time>2017-12-19T14:17:39Z</time>
      </trkpt>
      <trkpt lat="49.44216" lon="1.09999">
        <ele>23</ele>
        <time>2017-12-19T14:17:39Z</time>
      </trkpt>
      <trkpt lat="49.44215" lon="1.10002">
        <ele>23</ele>
        <time>2017-12-19T14:17:54Z</time>
      </trkpt>
      <trkpt lat="49.44214" lon="1.10008">
        <ele>23</ele>
        <time>2017-12-19T14:17:54Z</time>
      </trkpt>
      <trkpt lat="49.44213" lon="1.10014">
        <ele>23</ele>
        <time>2017-12-19T14:17:55Z</time>
      </trkpt>
      <trkpt lat="49.44214" lon="1.10021">
        <ele>23</ele>
        <time>2017-12-19T14:17:55Z</time>
      </trkpt>
      <trkpt lat="49.44215" lon="1.10028">
        <ele>23</ele>
        <time>2017-12-19T14:18:10Z</time>
      </trkpt>
      <trkpt lat="49.44216" lon="1.10034">
        <ele>23</ele>
        <time>2017-12-19T14:18:10Z</time>
      </trkpt>
      <trkpt lat="49.44217" lon="1.1004">
        <ele>23</ele>
        <time>2017-12-19T14:18:11Z</time>
      </trkpt>
      <trkpt lat="49.44219" lon="1.10047">
        <ele>23</ele>
        <time>2017-12-19T14:18:11Z</time>
      </trkpt>
      <trkpt lat="49.44221" lon="1.10053">
        <ele>23</ele>
        <time>2017-12-19T14:18:26Z</time>
      </trkpt>
      <trkpt lat="49.44223" lon="1.1006">
        <ele>23</ele>
        <time>2017-12-19T14:18:26Z</time>
      </trkpt>
      <trkpt lat="49.44226" lon="1.10067">
        <ele>23</ele>
        <time>2017-12-19T14:18:27Z</time>
      </trkpt>
      <trkpt lat="49.44229" lon="1.10073">
        <ele>23</ele>
        <time>2017-12-19T14:18:27Z</time>
      </trkpt>
      <trkpt lat="49.44232" lon="1.10078">
        <ele>23</ele>
        <time>2017-12-19T14:18:42Z</time>
      </trkpt>
      <trkpt lat="49.44235" lon="1.10082">
        <ele>23</ele>
        <time>2017-12-19T14:18:42Z</time>
      </trkpt>
      <trkpt lat="49.44238" lon="1.10084">
        <ele>23</ele>
        <time>2017-12-19T14:18:43Z</time>
      </trkpt>
      <trkpt lat="49.44241" lon="1.10089">
        <ele>23</ele>
        <time>2017-12-19T14:18:43Z</time>
      </trkpt>
      <trkpt lat="49.44245" lon="1.10093">
        <ele>23</ele>
        <time>2017-12-19T14:18:58Z</time>
      </trkpt>
      <trkpt lat="49.44249" lon="1.10097">
        <ele>23</ele>
        <time>2017-12-19T14:18:58Z</time>
      </trkpt>
      <trkpt lat="49.44252" lon="1.10102">
        <ele>23</ele>
        <time>2017-12-19T14:18:58Z</time>
      </trkpt>
      <trkpt lat="49.44255" lon="1.10107">
        <ele>23</ele>
        <time>2017-12-19T14:18:59Z</time>
      </trkpt>
      <trkpt lat="49.44258" lon="1.1011">
        <ele>23</ele>
        <time>2017-12-19T14:19:14Z</time>
      </trkpt>
      <trkpt lat="49.44261" lon="1.10114">
        <ele>23</ele>
        <time>2017-12-19T14:19:14Z</time>
      </trkpt>
      <trkpt lat="49.44265" lon="1.10118">
        <ele>23</ele>
        <time>2017-12-19T14:19:15Z</time>
      </trkpt>
      <trkpt lat="49.44268" lon="1.10122">
        <ele>23</ele>
        <time>2017-12-19T14:19:15Z</time>
      </trkpt>
      <trkpt lat="49.44273" lon="1.10121">
        <ele>23</ele>
        <time>2017-12-19T14:19:30Z</time>
      </trkpt>
      <trkpt lat="49.44278" lon="1.1012">
        <ele>23</ele>
        <time>2017-12-19T14:19:30Z</time>
      </trkpt>
      <trkpt lat="49.44281" lon="1.10125">
        <ele>23</ele>
        <time>2017-12-19T14:19:31Z</time>
      </trkpt>
      <trkpt lat="49.44284" lon="1.10132">
        <ele>18</ele>
        <time>2017-12-19T14:19:31Z</time>
      </trkpt>
      <trkpt lat="49.44285" lon="1.10138">
        <ele>18</ele>
        <time>2017-12-19T14:19:50Z</time>
      </trkpt>
      <trkpt lat="49.44286" lon="1.10143">
        <ele>18</ele>
        <time>2017-12-19T14:19:50Z</time>
      </trkpt>
      <trkpt lat="49.44288" lon="1.10145">
        <ele>18</ele>
        <time>2017-12-19T14:19:51Z</time>
      </trkpt>
      <trkpt lat="49.44292" lon="1.10146">
        <ele>21</ele>
        <time>2017-12-19T14:19:51Z</time>
      </trkpt>
      <trkpt lat="49.44296" lon="1.10146">
        <ele>21</ele>
        <time>2017-12-19T14:19:51Z</time>
      </trkpt>
      <trkpt lat="49.44299" lon="1.10146">
        <ele>21</ele>
        <time>2017-12-19T14:20:06Z</time>
      </trkpt>
      <trkpt lat="49.44302" lon="1.10148">
        <ele>21</ele>
        <time>2017-12-19T14:20:06Z</time>
      </trkpt>
      <trkpt lat="49.44305" lon="1.10149">
        <ele>21</ele>
        <time>2017-12-19T14:20:07Z</time>
      </trkpt>
      <trkpt lat="49.4431" lon="1.1015">
        <ele>21</ele>
        <time>2017-12-19T14:20:07Z</time>
      </trkpt>
      <trkpt lat="49.44315" lon="1.10153">
        <ele>21</ele>
        <time>2017-12-19T14:20:22Z</time>
      </trkpt>
      <trkpt lat="49.4432" lon="1.10156">
        <ele>21</ele>
        <time>2017-12-19T14:20:22Z</time>
      </trkpt>
      <trkpt lat="49.44325" lon="1.10159">
        <ele>21</ele>
        <time>2017-12-19T14:20:23Z</time>
      </trkpt>
      <trkpt lat="49.44331" lon="1.10159">
        <ele>21</ele>
        <time>2017-12-19T14:20:23Z</time>
      </trkpt>
      <trkpt lat="49.44338" lon="1.10161">
        <ele>21</ele>
        <time>2017-12-19T14:20:38Z</time>
      </trkpt>
      <trkpt lat="49.44344" lon="1.10162">
        <ele>21</ele>
        <time>2017-12-19T14:20:39Z</time>
      </trkpt>
      <trkpt lat="49.44348" lon="1.10164">
        <ele>21</ele>
        <time>2017-12-19T14:20:39Z</time>
      </trkpt>
      <trkpt lat="49.44351" lon="1.10167">
        <ele>21</ele>
        <time>2017-12-19T14:20:39Z</time>
      </trkpt>
      <trkpt lat="49.44354" lon="1.1017">
        <ele>21</ele>
        <time>2017-12-19T14:20:54Z</time>
      </trkpt>
      <trkpt lat="49.44358" lon="1.10172">
        <ele>21</ele>
        <time>2017-12-19T14:20:54Z</time>
      </trkpt>
      <trkpt lat="49.44362" lon="1.10174">
        <ele>21</ele>
        <time>2017-12-19T14:20:55Z</time>
      </trkpt>
      <trkpt lat="49.44365" lon="1.10178">
        <ele>21</ele>
        <time>2017-12-19T14:20:55Z</time>
      </trkpt>
      <trkpt lat="49.44372" lon="1.10191">
        <ele>21</ele>
        <time>2017-12-19T14:21:30Z</time>
      </trkpt>
      <trkpt lat="49.44371" lon="1.10192">
        <ele>21</ele>
        <time>2017-12-19T14:21:30Z</time>
      </trkpt>
      <trkpt lat="49.4437" lon="1.10195">
        <ele>21</ele>
        <time>2017-12-19T14:21:31Z</time>
      </trkpt>
      <trkpt lat="49.4437" lon="1.102">
        <ele>21</ele>
        <time>2017-12-19T14:21:31Z</time>
      </trkpt>
      <trkpt lat="49.4437" lon="1.10206">
        <ele>21</ele>
        <time>2017-12-19T14:21:31Z</time>
      </trkpt>
      <trkpt lat="49.44369" lon="1.10212">
        <ele>21</ele>
        <time>2017-12-19T14:21:46Z</time>
      </trkpt>
      <trkpt lat="49.44368" lon="1.10219">
        <ele>21</ele>
        <time>2017-12-19T14:21:46Z</time>
      </trkpt>
      <trkpt lat="49.44367" lon="1.10226">
        <ele>21</ele>
        <time>2017-12-19T14:21:47Z</time>
      </trkpt>
      <trkpt lat="49.44366" lon="1.10232">
        <ele>21</ele>
        <time>2017-12-19T14:21:47Z</time>
      </trkpt>
      <trkpt lat="49.44363" lon="1.10237">
        <ele>21</ele>
        <time>2017-12-19T14:22:02Z</time>
      </trkpt>
      <trkpt lat="49.44359" lon="1.10239">
        <ele>21</ele>
        <time>2017-12-19T14:22:02Z</time>
      </trkpt>
      <trkpt lat="49.44355" lon="1.10245">
        <ele>21</ele>
        <time>2017-12-19T14:22:03Z</time>
      </trkpt>
      <trkpt lat="49.44353" lon="1.10253">
        <ele>21</ele>
        <time>2017-12-19T14:22:03Z</time>
      </trkpt>
      <trkpt lat="49.44356" lon="1.1026">
        <ele>21</ele>
        <time>2017-12-19T14:22:18Z</time>
      </trkpt>
      <trkpt lat="49.44356" lon="1.10267">
        <ele>21</ele>
        <time>2017-12-19T14:22:19Z</time>
      </trkpt>
      <trkpt lat="49.44354" lon="1.10274">
        <ele>21</ele>
        <time>2017-12-19T14:22:19Z</time>
      </trkpt>
      <trkpt lat="49.44352" lon="1.1028">
        <ele>21</ele>
        <time>2017-12-19T14:22:19Z</time>
      </trkpt>
      <trkpt lat="49.44349" lon="1.10286">
        <ele>21</ele>
        <time>2017-12-19T14:22:34Z</time>
      </trkpt>
      <trkpt lat="49.44346" lon="1.10294">
        <ele>21</ele>
        <time>2017-12-19T14:22:34Z</time>
      </trkpt>
      <trkpt lat="49.44344" lon="1.103">
        <ele>21</ele>
        <time>2017-12-19T14:22:35Z</time>
      </trkpt>
      <trkpt lat="49.44342" lon="1.10307">
        <ele>21</ele>
        <time>2017-12-19T14:22:35Z</time>
      </trkpt>
      <trkpt lat="49.44341" lon="1.10314">
        <ele>21</ele>
        <time>2017-12-19T14:22:50Z</time>
      </trkpt>
      <trkpt lat="49.44341" lon="1.1032">
        <ele>21</ele>
        <time>2017-12-19T14:22:50Z</time>
      </trkpt>
      <trkpt lat="49.44339" lon="1.10326">
        <ele>21</ele>
        <time>2017-12-19T14:22:51Z</time>
      </trkpt>
      <trkpt lat="49.44338" lon="1.10332">
        <ele>21</ele>
        <time>2017-12-19T14:22:51Z</time>
      </trkpt>
      <trkpt lat="49.44338" lon="1.10337">
        <ele>21</ele>
        <time>2017-12-19T14:23:06Z</time>
      </trkpt>
      <trkpt lat="49.44336" lon="1.10342">
        <ele>21</ele>
        <time>2017-12-19T14:23:06Z</time>
      </trkpt>
      <trkpt lat="49.44336" lon="1.10348">
        <ele>21</ele>
        <time>2017-12-19T14:23:07Z</time>
      </trkpt>
      <trkpt lat="49.44336" lon="1.10355">
        <ele>21</ele>
        <time>2017-12-19T14:23:07Z</time>
      </trkpt>
      <trkpt lat="49.44335" lon="1.10362">
        <ele>21</ele>
        <time>2017-12-19T14:23:22Z</time>
      </trkpt>
      <trkpt lat="49.44333" lon="1.10367">
        <ele>21</ele>
        <time>2017-12-19T14:23:22Z</time>
      </trkpt>
      <trkpt lat="49.44329" lon="1.10372">
        <ele>21</ele>
        <time>2017-12-19T14:23:23Z</time>
      </trkpt>
      <trkpt lat="49.44325" lon="1.10376">
        <ele>20</ele>
        <time>2017-12-19T14:23:23Z</time>
      </trkpt>
      <trkpt lat="49.44322" lon="1.10381">
        <ele>20</ele>
        <time>2017-12-19T14:23:38Z</time>
      </trkpt>
      <trkpt lat="49.44319" lon="1.10386">
        <ele>20</ele>
        <time>2017-12-19T14:23:38Z</time>
      </trkpt>
      <trkpt lat="49.44316" lon="1.10391">
        <ele>20</ele>
        <time>2017-12-19T14:23:39Z</time>
      </trkpt>
      <trkpt lat="49.44314" lon="1.104">
        <ele>20</ele>
        <time>2017-12-19T14:23:39Z</time>
      </trkpt>
      <trkpt lat="49.44312" lon="1.10408">
        <ele>20</ele>
        <time>2017-12-19T14:23:54Z</time>
      </trkpt>
      <trkpt lat="49.44311" lon="1.10415">
        <ele>20</ele>
        <time>2017-12-19T14:23:54Z</time>
      </trkpt>
      <trkpt lat="49.44308" lon="1.10421">
        <ele>20</ele>
        <time>2017-12-19T14:23:55Z</time>
      </trkpt>
      <trkpt lat="49.44307" lon="1.10426">
        <ele>20</ele>
        <time>2017-12-19T14:23:55Z</time>
      </trkpt>
      <trkpt lat="49.44303" lon="1.10437">
        <ele>20</ele>
        <time>2017-12-19T14:24:26Z</time>
      </trkpt>
      <trkpt lat="49.44303" lon="1.10438">
        <ele>20</ele>
        <time>2017-12-19T14:24:26Z</time>
      </trkpt>
      <trkpt lat="49.44303" lon="1.10438">
        <ele>20</ele>
        <time>2017-12-19T14:24:27Z</time>
      </trkpt>
      <trkpt lat="49.44303" lon="1.10439">
        <ele>20</ele>
        <time>2017-12-19T14:24:27Z</time>
      </trkpt>
      <trkpt lat="49.44302" lon="1.10443">
        <ele>20</ele>
        <time>2017-12-19T14:24:27Z</time>
      </trkpt>
      <trkpt lat="49.44299" lon="1.10447">
        <ele>20</ele>
        <time>2017-12-19T14:24:42Z</time>
      </trkpt>
      <trkpt lat="49.44298" lon="1.10453">
        <ele>20</ele>
        <time>2017-12-19T14:24:42Z</time>
      </trkpt>
      <trkpt lat="49.443" lon="1.10459">
        <ele>22</ele>
        <time>2017-12-19T14:24:43Z</time>
      </trkpt>
      <trkpt lat="49.44302" lon="1.10465">
        <ele>22</ele>
        <time>2017-12-19T14:24:43Z</time>
      </trkpt>
      <trkpt lat="49.44303" lon="1.10471">
        <ele>22</ele>
        <time>2017-12-19T14:24:58Z</time>
      </trkpt>
      <trkpt lat="49.44302" lon="1.10478">
        <ele>22</ele>
        <time>2017-12-19T14:24:58Z</time>
      </trkpt>
      <trkpt lat="49.443" lon="1.10484">
        <ele>22</ele>
        <time>2017-12-19T14:24:59Z</time>
      </trkpt>
      <trkpt lat="49.44297" lon="1.10489">
        <ele>22</ele>
        <time>2017-12-19T14:24:59Z</time>
      </trkpt>
      <trkpt lat="49.44293" lon="1.10492">
        <ele>22</ele>
        <time>2017-12-19T14:25:14Z</time>
      </trkpt>
      <trkpt lat="49.4429" lon="1.10497">
        <ele>18</ele>
        <time>2017-12-19T14:25:14Z</time>
      </trkpt>
      <trkpt lat="49.44289" lon="1.10505">
        <ele>18</ele>
        <time>2017-12-19T14:25:14Z</time>
      </trkpt>
      <trkpt lat="49.44288" lon="1.10513">
        <ele>18</ele>
        <time>2017-12-19T14:25:15Z</time>
      </trkpt>
      <trkpt lat="49.44287" lon="1.10521">
        <ele>18</ele>
        <time>2017-12-19T14:25:30Z</time>
      </trkpt>
      <trkpt lat="49.44287" lon="1.10528">
        <ele>18</ele>
        <time>2017-12-19T14:25:30Z</time>
      </trkpt>
      <trkpt lat="49.44286" lon="1.10535">
        <ele>18</ele>
        <time>2017-12-19T14:25:31Z</time>
      </trkpt>
      <trkpt lat="49.44282" lon="1.1054">
        <ele>18</ele>
        <time>2017-12-19T14:25:31Z</time>
      </trkpt>
      <trkpt lat="49.44278" lon="1.10546">
        <ele>18</ele>
        <time>2017-12-19T14:25:46Z</time>
      </trkpt>
      <trkpt lat="49.44274" lon="1.10552">
        <ele>18</ele>
        <time>2017-12-19T14:25:46Z</time>
      </trkpt>
      <trkpt lat="49.44271" lon="1.10559">
        <ele>18</ele>
        <time>2017-12-19T14:25:47Z</time>
      </trkpt>
      <trkpt lat="49.44269" lon="1.10564">
        <ele>18</ele>
        <time>2017-12-19T14:25:47Z</time>
      </trkpt>
      <trkpt lat="49.44268" lon="1.10571">
        <ele>18</ele>
        <time>2017-12-19T14:26:02Z</time>
      </trkpt>
      <trkpt lat="49.44266" lon="1.10577">
        <ele>18</ele>
        <time>2017-12-19T14:26:02Z</time>
      </trkpt>
      <trkpt lat="49.44264" lon="1.10584">
        <ele>18</ele>
        <time>2017-12-19T14:26:03Z</time>
      </trkpt>
      <trkpt lat="49.44263" lon="1.10589">
        <ele>18</ele>
        <time>2017-12-19T14:26:03Z</time>
      </trkpt>
      <trkpt lat="49.44262" lon="1.10594">
        <ele>18</ele>
        <time>2017-12-19T14:26:22Z</time>
      </trkpt>
      <trkpt lat="49.44261" lon="1.10598">
        <ele>18</ele>
        <time>2017-12-19T14:26:22Z</time>
      </trkpt>
      <trkpt lat="49.44259" lon="1.10601">
        <ele>18</ele>
        <time>2017-12-19T14:26:22Z</time>
      </trkpt>
      <trkpt lat="49.44257" lon="1.10605">
        <ele>18</ele>
        <time>2017-12-19T14:26:23Z</time>
      </trkpt>
      <trkpt lat="49.44255" lon="1.10611">
        <ele>18</ele>
        <time>2017-12-19T14:26:23Z</time>
      </trkpt>
      <trkpt lat="49.44245" lon="1.10613">
        <ele>18</ele>
        <time>2017-12-19T14:27:26Z</time>
      </trkpt>
      <trkpt lat="49.44244" lon="1.10613">
        <ele>18</ele>
        <time>2017-12-19T14:27:26Z</time>
      </trkpt>
      <trkpt lat="49.44244" lon="1.10613">
        <ele>18</ele>
        <time>2017-12-19T14:27:26Z</time>
      </trkpt>
      <trkpt lat="49.44244" lon="1.10613">
        <ele>18</ele>
        <time>2017-12-19T14:27:26Z</time>
      </trkpt>
      <trkpt lat="49.44244" lon="1.10612">
        <ele>18</ele>
        <time>2017-12-19T14:27:26Z</time>
      </trkpt>
      <trkpt lat="49.44241" lon="1.10618">
        <ele>18</ele>
        <time>2017-12-19T14:34:10Z</time>
      </trkpt>
      <trkpt lat="49.4424" lon="1.10616">
        <ele>18</ele>
        <time>2017-12-19T14:34:10Z</time>
      </trkpt>
      <trkpt lat="49.44237" lon="1.10614">
        <ele>18</ele>
        <time>2017-12-19T14:34:10Z</time>
      </trkpt>
      <trkpt lat="49.44236" lon="1.10615">
        <ele>18</ele>
        <time>2017-12-19T14:34:10Z</time>
      </trkpt>
      <trkpt lat="49.44235" lon="1.10615">
        <ele>18</ele>
        <time>2017-12-19T14:34:10Z</time>
      </trkpt>
      <trkpt lat="49.44241" lon="1.10618">
        <ele>18</ele>
        <time>2017-12-19T14:35:10Z</time>
      </trkpt>
      <trkpt lat="49.44241" lon="1.10618">
        <ele>18</ele>
        <time>2017-12-19T14:35:10Z</time>
      </trkpt>
      <trkpt lat="49.44242" lon="1.10618">
        <ele>18</ele>
        <time>2017-12-19T14:35:10Z</time>
      </trkpt>
      <trkpt lat="49.44243" lon="1.10617">
        <ele>18</ele>
        <time>2017-12-19T14:35:10Z</time>
      </trkpt>
      <trkpt lat="49.44243" lon="1.10617">
        <ele>18</ele>
        <time>2017-12-19T14:35:10Z</time>
      </trkpt>
      <trkpt lat="49.44243" lon="1.1063">
        <ele>19</ele>
        <time>2017-12-19T14:39:02Z</time>
      </trkpt>
      <trkpt lat="49.44243" lon="1.10632">
        <ele>19</ele>
        <time>2017-12-19T14:39:02Z</time>
      </trkpt>
      <trkpt lat="49.44242" lon="1.10633">
        <ele>19</ele>
        <time>2017-12-19T14:39:02Z</time>
      </trkpt>
      <trkpt lat="49.44243" lon="1.10635">
        <ele>19</ele>
        <time>2017-12-19T14:39:02Z</time>
      </trkpt>
      <trkpt lat="49.44243" lon="1.10635">
        <ele>19</ele>
        <time>2017-12-19T14:39:02Z</time>
      </trkpt>
      <trkpt lat="49.44241" lon="1.1063">
        <ele>19</ele>
        <time>2017-12-19T14:41:26Z</time>
      </trkpt>
      <trkpt lat="49.44241" lon="1.1063">
        <ele>19</ele>
        <time>2017-12-19T14:41:26Z</time>
      </trkpt>
      <trkpt lat="49.4424" lon="1.10625">
        <ele>18</ele>
        <time>2017-12-19T14:41:27Z</time>
      </trkpt>
      <trkpt lat="49.4424" lon="1.10621">
        <ele>18</ele>
        <time>2017-12-19T14:41:27Z</time>
      </trkpt>
      <trkpt lat="49.44239" lon="1.10618">
        <ele>18</ele>
        <time>2017-12-19T14:41:27Z</time>
      </trkpt>
      <trkpt lat="49.44235" lon="1.10619">
        <ele>18</ele>
        <time>2017-12-19T14:42:26Z</time>
      </trkpt>
      <trkpt lat="49.44234" lon="1.10617">
        <ele>18</ele>
        <time>2017-12-19T14:42:26Z</time>
      </trkpt>
      <trkpt lat="49.44233" lon="1.10614">
        <ele>18</ele>
        <time>2017-12-19T14:42:26Z</time>
      </trkpt>
      <trkpt lat="49.44232" lon="1.10612">
        <ele>18</ele>
        <time>2017-12-19T14:42:26Z</time>
      </trkpt>
      <trkpt lat="49.44229" lon="1.10615">
        <ele>18</ele>
        <time>2017-12-19T14:42:27Z</time>
      </trkpt>
      <trkpt lat="49.44226" lon="1.10618">
        <ele>18</ele>
        <time>2017-12-19T14:42:46Z</time>
      </trkpt>
      <trkpt lat="49.44225" lon="1.10624">
        <ele>18</ele>
        <time>2017-12-19T14:42:46Z</time>
      </trkpt>
      <trkpt lat="49.44224" lon="1.10627">
        <ele>19</ele>
        <time>2017-12-19T14:42:46Z</time>
      </trkpt>
      <trkpt lat="49.44221" lon="1.10627">
        <ele>19</ele>
        <time>2017-12-19T14:42:46Z</time>
      </trkpt>
      <trkpt lat="49.44218" lon="1.10626">
        <ele>19</ele>
        <time>2017-12-19T14:42:46Z</time>
      </trkpt>
      <trkpt lat="49.44214" lon="1.10625">
        <ele>19</ele>
        <time>2017-12-19T14:43:02Z</time>
      </trkpt>
      <trkpt lat="49.44209" lon="1.10625">
        <ele>18</ele>
        <time>2017-12-19T14:43:02Z</time>
      </trkpt>
      <trkpt lat="49.44202" lon="1.1062">
        <ele>15</ele>
        <time>2017-12-19T14:43:02Z</time>
      </trkpt>
      <trkpt lat="49.44196" lon="1.10612">
        <ele>15</ele>
        <time>2017-12-19T14:43:02Z</time>
      </trkpt>
      <trkpt lat="49.4419" lon="1.10606">
        <ele>15</ele>
        <time>2017-12-19T14:43:18Z</time>
      </trkpt>
      <trkpt lat="49.44185" lon="1.10608">
        <ele>15</ele>
        <time>2017-12-19T14:43:18Z</time>
      </trkpt>
      <trkpt lat="49.44184" lon="1.10619">
        <ele>15</ele>
        <time>2017-12-19T14:43:18Z</time>
      </trkpt>
      <trkpt lat="49.44185" lon="1.10629">
        <ele>16</ele>
        <time>2017-12-19T14:43:18Z</time>
      </trkpt>
      <trkpt lat="49.44183" lon="1.10639">
        <ele>16</ele>
        <time>2017-12-19T14:43:34Z</time>
      </trkpt>
      <trkpt lat="49.44183" lon="1.10648">
        <ele>16</ele>
        <time>2017-12-19T14:43:34Z</time>
      </trkpt>
      <trkpt lat="49.44181" lon="1.10655">
        <ele>16</ele>
        <time>2017-12-19T14:43:34Z</time>
      </trkpt>
      <trkpt lat="49.44183" lon="1.10662">
        <ele>16</ele>
        <time>2017-12-19T14:43:34Z</time>
      </trkpt>
      <trkpt lat="49.44182" lon="1.1067">
        <ele>16</ele>
        <time>2017-12-19T14:43:50Z</time>
      </trkpt>
      <trkpt lat="49.44181" lon="1.10678">
        <ele>16</ele>
        <time>2017-12-19T14:43:50Z</time>
      </trkpt>
      <trkpt lat="49.44179" lon="1.10687">
        <ele>16</ele>
        <time>2017-12-19T14:43:50Z</time>
      </trkpt>
      <trkpt lat="49.44178" lon="1.10695">
        <ele>16</ele>
        <time>2017-12-19T14:43:50Z</time>
      </trkpt>
      <trkpt lat="49.44178" lon="1.10703">
        <ele>16</ele>
        <time>2017-12-19T14:44:06Z</time>
      </trkpt>
      <trkpt lat="49.44179" lon="1.1071">
        <ele>14</ele>
        <time>2017-12-19T14:44:06Z</time>
      </trkpt>
      <trkpt lat="49.44179" lon="1.10715">
        <ele>14</ele>
        <time>2017-12-19T14:44:06Z</time>
      </trkpt>
      <trkpt lat="49.44177" lon="1.10721">
        <ele>14</ele>
        <time>2017-12-19T14:44:07Z</time>
      </trkpt>
      <trkpt lat="49.44177" lon="1.10728">
        <ele>14</ele>
        <time>2017-12-19T14:44:22Z</time>
      </trkpt>
      <trkpt lat="49.44177" lon="1.10735">
        <ele>14</ele>
        <time>2017-12-19T14:44:22Z</time>
      </trkpt>
      <trkpt lat="49.44178" lon="1.10743">
        <ele>14</ele>
        <time>2017-12-19T14:44:22Z</time>
      </trkpt>
      <trkpt lat="49.44179" lon="1.1075">
        <ele>14</ele>
        <time>2017-12-19T14:44:22Z</time>
      </trkpt>
      <trkpt lat="49.44178" lon="1.10757">
        <ele>14</ele>
        <time>2017-12-19T14:44:38Z</time>
      </trkpt>
      <trkpt lat="49.44178" lon="1.10763">
        <ele>14</ele>
        <time>2017-12-19T14:44:38Z</time>
      </trkpt>
      <trkpt lat="49.44178" lon="1.10769">
        <ele>14</ele>
        <time>2017-12-19T14:44:38Z</time>
      </trkpt>
      <trkpt lat="49.44177" lon="1.10775">
        <ele>14</ele>
        <time>2017-12-19T14:44:39Z</time>
      </trkpt>
      <trkpt lat="49.44176" lon="1.10781">
        <ele>14</ele>
        <time>2017-12-19T14:44:54Z</time>
      </trkpt>
      <trkpt lat="49.44173" lon="1.10788">
        <ele>14</ele>
        <time>2017-12-19T14:44:54Z</time>
      </trkpt>
      <trkpt lat="49.44166" lon="1.10798">
        <ele>14</ele>
        <time>2017-12-19T14:44:54Z</time>
      </trkpt>
      <trkpt lat="49.44163" lon="1.10808">
        <ele>14</ele>
        <time>2017-12-19T14:44:55Z</time>
      </trkpt>
      <trkpt lat="49.44169" lon="1.10813">
        <ele>14</ele>
        <time>2017-12-19T14:45:10Z</time>
      </trkpt>
      <trkpt lat="49.44169" lon="1.10819">
        <ele>14</ele>
        <time>2017-12-19T14:45:10Z</time>
      </trkpt>
      <trkpt lat="49.44167" lon="1.10825">
        <ele>14</ele>
        <time>2017-12-19T14:45:11Z</time>
      </trkpt>
      <trkpt lat="49.44169" lon="1.10831">
        <ele>14</ele>
        <time>2017-12-19T14:45:11Z</time>
      </trkpt>
      <trkpt lat="49.44172" lon="1.10837">
        <ele>14</ele>
        <time>2017-12-19T14:45:26Z</time>
      </trkpt>
      <trkpt lat="49.44166" lon="1.10846">
        <ele>14</ele>
        <time>2017-12-19T14:45:26Z</time>
      </trkpt>
      <trkpt lat="49.44162" lon="1.10856">
        <ele>14</ele>
        <time>2017-12-19T14:45:26Z</time>
      </trkpt>
      <trkpt lat="49.44164" lon="1.10863">
        <ele>14</ele>
        <time>2017-12-19T14:45:27Z</time>
      </trkpt>
      <trkpt lat="49.44166" lon="1.1087">
        <ele>14</ele>
        <time>2017-12-19T14:45:42Z</time>
      </trkpt>
      <trkpt lat="49.44166" lon="1.10879">
        <ele>16</ele>
        <time>2017-12-19T14:45:42Z</time>
      </trkpt>
      <trkpt lat="49.44165" lon="1.10886">
        <ele>16</ele>
        <time>2017-12-19T14:45:42Z</time>
      </trkpt>
      <trkpt lat="49.44166" lon="1.10892">
        <ele>16</ele>
        <time>2017-12-19T14:45:43Z</time>
      </trkpt>
      <trkpt lat="49.44165" lon="1.10899">
        <ele>16</ele>
        <time>2017-12-19T14:45:58Z</time>
      </trkpt>
      <trkpt lat="49.44164" lon="1.10905">
        <ele>16</ele>
        <time>2017-12-19T14:45:58Z</time>
      </trkpt>
      <trkpt lat="49.44163" lon="1.10911">
        <ele>16</ele>
        <time>2017-12-19T14:45:58Z</time>
      </trkpt>
      <trkpt lat="49.44162" lon="1.10917">
        <ele>16</ele>
        <time>2017-12-19T14:45:58Z</time>
      </trkpt>
      <trkpt lat="49.44161" lon="1.10922">
        <ele>16</ele>
        <time>2017-12-19T14:46:14Z</time>
      </trkpt>
      <trkpt lat="49.44161" lon="1.10928">
        <ele>16</ele>
        <time>2017-12-19T14:46:14Z</time>
      </trkpt>
      <trkpt lat="49.4416" lon="1.10936">
        <ele>16</ele>
        <time>2017-12-19T14:46:14Z</time>
      </trkpt>
      <trkpt lat="49.44158" lon="1.10944">
        <ele>16</ele>
        <time>2017-12-19T14:46:14Z</time>
      </trkpt>
      <trkpt lat="49.44156" lon="1.10952">
        <ele>16</ele>
        <time>2017-12-19T14:46:30Z</time>
      </trkpt>
      <trkpt lat="49.44147" lon="1.10964">
        <ele>14</ele>
        <time>2017-12-19T14:46:30Z</time>
      </trkpt>
      <trkpt lat="49.44137" lon="1.10975">
        <ele>14</ele>
        <time>2017-12-19T14:46:30Z</time>
      </trkpt>
      <trkpt lat="49.4414" lon="1.10982">
        <ele>14</ele>
        <time>2017-12-19T14:46:30Z</time>
      </trkpt>
      <trkpt lat="49.44143" lon="1.10988">
        <ele>14</ele>
        <time>2017-12-19T14:46:46Z</time>
      </trkpt>
      <trkpt lat="49.44147" lon="1.10995">
        <ele>14</ele>
        <time>2017-12-19T14:46:46Z</time>
      </trkpt>
      <trkpt lat="49.44153" lon="1.11002">
        <ele>14</ele>
        <time>2017-12-19T14:46:46Z</time>
      </trkpt>
      <trkpt lat="49.44154" lon="1.1101">
        <ele>14</ele>
        <time>2017-12-19T14:46:46Z</time>
      </trkpt>
      <trkpt lat="49.44153" lon="1.11018">
        <ele>14</ele>
        <time>2017-12-19T14:47:02Z</time>
      </trkpt>
      <trkpt lat="49.44152" lon="1.11025">
        <ele>14</ele>
        <time>2017-12-19T14:47:02Z</time>
      </trkpt>
      <trkpt lat="49.44148" lon="1.11032">
        <ele>14</ele>
        <time>2017-12-19T14:47:02Z</time>
      </trkpt>
      <trkpt lat="49.44151" lon="1.11037">
        <ele>14</ele>
        <time>2017-12-19T14:47:02Z</time>
      </trkpt>
      <trkpt lat="49.44155" lon="1.11045">
        <ele>14</ele>
        <time>2017-12-19T14:47:18Z</time>
      </trkpt>
      <trkpt lat="49.44154" lon="1.11053">
        <ele>14</ele>
        <time>2017-12-19T14:47:18Z</time>
      </trkpt>
      <trkpt lat="49.4415" lon="1.11062">
        <ele>14</ele>
        <time>2017-12-19T14:47:18Z</time>
      </trkpt>
      <trkpt lat="49.44149" lon="1.1107">
        <ele>14</ele>
        <time>2017-12-19T14:47:18Z</time>
      </trkpt>
      <trkpt lat="49.44151" lon="1.11078">
        <ele>14</ele>
        <time>2017-12-19T14:47:34Z</time>
      </trkpt>
      <trkpt lat="49.44157" lon="1.11085">
        <ele>14</ele>
        <time>2017-12-19T14:47:34Z</time>
      </trkpt>
      <trkpt lat="49.44161" lon="1.11091">
        <ele>14</ele>
        <time>2017-12-19T14:47:35Z</time>
      </trkpt>
      <trkpt lat="49.44161" lon="1.111">
        <ele>14</ele>
        <time>2017-12-19T14:47:35Z</time>
      </trkpt>
      <trkpt lat="49.44162" lon="1.11109">
        <ele>14</ele>
        <time>2017-12-19T14:47:50Z</time>
      </trkpt>
      <trkpt lat="49.44163" lon="1.11117">
        <ele>14</ele>
        <time>2017-12-19T14:47:50Z</time>
      </trkpt>
      <trkpt lat="49.44164" lon="1.11125">
        <ele>15</ele>
        <time>2017-12-19T14:47:51Z</time>
      </trkpt>
      <trkpt lat="49.44164" lon="1.11132">
        <ele>15</ele>
        <time>2017-12-19T14:47:51Z</time>
      </trkpt>
      <trkpt lat="49.44163" lon="1.11139">
        <ele>15</ele>
        <time>2017-12-19T14:48:06Z</time>
      </trkpt>
      <trkpt lat="49.44164" lon="1.11146">
        <ele>15</ele>
        <time>2017-12-19T14:48:06Z</time>
      </trkpt>
      <trkpt lat="49.44164" lon="1.11153">
        <ele>15</ele>
        <time>2017-12-19T14:48:07Z</time>
      </trkpt>
      <trkpt lat="49.44166" lon="1.1116">
        <ele>15</ele>
        <time>2017-12-19T14:48:07Z</time>
      </trkpt>
      <trkpt lat="49.44165" lon="1.11167">
        <ele>15</ele>
        <time>2017-12-19T14:48:22Z</time>
      </trkpt>
      <trkpt lat="49.44163" lon="1.11173">
        <ele>15</ele>
        <time>2017-12-19T14:48:22Z</time>
      </trkpt>
      <trkpt lat="49.44162" lon="1.11181">
        <ele>15</ele>
        <time>2017-12-19T14:48:23Z</time>
      </trkpt>
      <trkpt lat="49.44161" lon="1.11188">
        <ele>15</ele>
        <time>2017-12-19T14:48:23Z</time>
      </trkpt>
      <trkpt lat="49.4416" lon="1.11195">
        <ele>15</ele>
        <time>2017-12-19T14:48:38Z</time>
      </trkpt>
      <trkpt lat="49.44159" lon="1.11202">
        <ele>15</ele>
        <time>2017-12-19T14:48:38Z</time>
      </trkpt>
      <trkpt lat="49.44156" lon="1.11209">
        <ele>16</ele>
        <time>2017-12-19T14:48:38Z</time>
      </trkpt>
      <trkpt lat="49.44155" lon="1.11216">
        <ele>16</ele>
        <time>2017-12-19T14:48:39Z</time>
      </trkpt>
      <trkpt lat="49.44153" lon="1.11222">
        <ele>16</ele>
        <time>2017-12-19T14:48:54Z</time>
      </trkpt>
      <trkpt lat="49.44152" lon="1.1123">
        <ele>16</ele>
        <time>2017-12-19T14:48:54Z</time>
      </trkpt>
      <trkpt lat="49.44151" lon="1.11238">
        <ele>16</ele>
        <time>2017-12-19T14:48:55Z</time>
      </trkpt>
      <trkpt lat="49.4415" lon="1.11246">
        <ele>16</ele>
        <time>2017-12-19T14:48:55Z</time>
      </trkpt>
      <trkpt lat="49.44149" lon="1.11252">
        <ele>16</ele>
        <time>2017-12-19T14:49:10Z</time>
      </trkpt>
      <trkpt lat="49.44152" lon="1.11257">
        <ele>16</ele>
        <time>2017-12-19T14:49:10Z</time>
      </trkpt>
      <trkpt lat="49.44156" lon="1.11258">
        <ele>16</ele>
        <time>2017-12-19T14:49:11Z</time>
      </trkpt>
      <trkpt lat="49.44162" lon="1.11257">
        <ele>16</ele>
        <time>2017-12-19T14:49:11Z</time>
      </trkpt>
      <trkpt lat="49.44167" lon="1.11256">
        <ele>16</ele>
        <time>2017-12-19T14:49:26Z</time>
      </trkpt>
      <trkpt lat="49.44173" lon="1.11256">
        <ele>16</ele>
        <time>2017-12-19T14:49:26Z</time>
      </trkpt>
      <trkpt lat="49.44177" lon="1.11256">
        <ele>16</ele>
        <time>2017-12-19T14:49:27Z</time>
      </trkpt>
      <trkpt lat="49.44181" lon="1.11258">
        <ele>16</ele>
        <time>2017-12-19T14:49:27Z</time>
      </trkpt>
      <trkpt lat="49.44182" lon="1.11264">
        <ele>16</ele>
        <time>2017-12-19T14:50:30Z</time>
      </trkpt>
      <trkpt lat="49.4418" lon="1.11269">
        <ele>16</ele>
        <time>2017-12-19T14:50:30Z</time>
      </trkpt>
      <trkpt lat="49.4418" lon="1.11278">
        <ele>16</ele>
        <time>2017-12-19T14:50:31Z</time>
      </trkpt>
      <trkpt lat="49.4418" lon="1.11289">
        <ele>16</ele>
        <time>2017-12-19T14:50:31Z</time>
      </trkpt>
      <trkpt lat="49.44181" lon="1.11297">
        <ele>19</ele>
        <time>2017-12-19T14:50:31Z</time>
      </trkpt>
      <trkpt lat="49.44183" lon="1.11303">
        <ele>19</ele>
        <time>2017-12-19T14:50:46Z</time>
      </trkpt>
      <trkpt lat="49.44183" lon="1.1131">
        <ele>19</ele>
        <time>2017-12-19T14:50:46Z</time>
      </trkpt>
      <trkpt lat="49.44184" lon="1.11314">
        <ele>19</ele>
        <time>2017-12-19T14:50:47Z</time>
      </trkpt>
      <trkpt lat="49.44187" lon="1.11317">
        <ele>19</ele>
        <time>2017-12-19T14:50:47Z</time>
      </trkpt>
      <trkpt lat="49.44196" lon="1.11321">
        <ele>19</ele>
        <time>2017-12-19T14:52:02Z</time>
      </trkpt>
      <trkpt lat="49.44196" lon="1.11322">
        <ele>19</ele>
        <time>2017-12-19T14:52:02Z</time>
      </trkpt>
      <trkpt lat="49.44196" lon="1.11325">
        <ele>19</ele>
        <time>2017-12-19T14:52:03Z</time>
      </trkpt>
      <trkpt lat="49.44196" lon="1.11328">
        <ele>19</ele>
        <time>2017-12-19T14:52:03Z</time>
      </trkpt>
      <trkpt lat="49.44197" lon="1.11332">
        <ele>19</ele>
        <time>2017-12-19T14:52:03Z</time>
      </trkpt>
      <trkpt lat="49.44201" lon="1.11334">
        <ele>19</ele>
        <time>2017-12-19T14:52:18Z</time>
      </trkpt>
      <trkpt lat="49.44206" lon="1.11336">
        <ele>19</ele>
        <time>2017-12-19T14:52:18Z</time>
      </trkpt>
      <trkpt lat="49.44209" lon="1.11337">
        <ele>23</ele>
        <time>2017-12-19T14:52:19Z</time>
      </trkpt>
      <trkpt lat="49.44211" lon="1.11343">
        <ele>23</ele>
        <time>2017-12-19T14:52:19Z</time>
      </trkpt>
      <trkpt lat="49.44216" lon="1.11352">
        <ele>23</ele>
        <time>2017-12-19T14:52:34Z</time>
      </trkpt>
      <trkpt lat="49.44228" lon="1.11358">
        <ele>23</ele>
        <time>2017-12-19T14:52:34Z</time>
      </trkpt>
      <trkpt lat="49.44235" lon="1.11366">
        <ele>23</ele>
        <time>2017-12-19T14:52:35Z</time>
      </trkpt>
      <trkpt lat="49.44233" lon="1.11372">
        <ele>23</ele>
        <time>2017-12-19T14:52:35Z</time>
      </trkpt>
      <trkpt lat="49.44233" lon="1.11378">
        <ele>22</ele>
        <time>2017-12-19T14:52:50Z</time>
      </trkpt>
      <trkpt lat="49.44226" lon="1.11386">
        <ele>22</ele>
        <time>2017-12-19T14:52:50Z</time>
      </trkpt>
      <trkpt lat="49.4422" lon="1.11393">
        <ele>22</ele>
        <time>2017-12-19T14:52:51Z</time>
      </trkpt>
      <trkpt lat="49.44217" lon="1.11401">
        <ele>22</ele>
        <time>2017-12-19T14:52:51Z</time>
      </trkpt>
      <trkpt lat="49.44214" lon="1.11408">
        <ele>22</ele>
        <time>2017-12-19T14:53:06Z</time>
      </trkpt>
      <trkpt lat="49.44212" lon="1.11415">
        <ele>22</ele>
        <time>2017-12-19T14:53:06Z</time>
      </trkpt>
      <trkpt lat="49.4421" lon="1.11422">
        <ele>22</ele>
        <time>2017-12-19T14:53:07Z</time>
      </trkpt>
      <trkpt lat="49.4421" lon="1.11426">
        <ele>22</ele>
        <time>2017-12-19T14:53:07Z</time>
      </trkpt>
      <trkpt lat="49.4421" lon="1.11431">
        <ele>22</ele>
        <time>2017-12-19T14:53:22Z</time>
      </trkpt>
      <trkpt lat="49.44211" lon="1.11436">
        <ele>22</ele>
        <time>2017-12-19T14:53:22Z</time>
      </trkpt>
      <trkpt lat="49.44211" lon="1.11443">
        <ele>22</ele>
        <time>2017-12-19T14:53:23Z</time>
      </trkpt>
      <trkpt lat="49.44209" lon="1.11449">
        <ele>22</ele>
        <time>2017-12-19T14:53:23Z</time>
      </trkpt>
      <trkpt lat="49.44209" lon="1.11455">
        <ele>22</ele>
        <time>2017-12-19T14:53:38Z</time>
      </trkpt>
      <trkpt lat="49.4421" lon="1.11462">
        <ele>24</ele>
        <time>2017-12-19T14:53:38Z</time>
      </trkpt>
      <trkpt lat="49.4421" lon="1.11469">
        <ele>24</ele>
        <time>2017-12-19T14:53:39Z</time>
      </trkpt>
      <trkpt lat="49.4421" lon="1.11475">
        <ele>24</ele>
        <time>2017-12-19T14:53:39Z</time>
      </trkpt>
      <trkpt lat="49.44212" lon="1.11481">
        <ele>24</ele>
        <time>2017-12-19T14:53:54Z</time>
      </trkpt>
      <trkpt lat="49.44212" lon="1.11485">
        <ele>24</ele>
        <time>2017-12-19T14:53:54Z</time>
      </trkpt>
      <trkpt lat="49.44212" lon="1.11492">
        <ele>24</ele>
        <time>2017-12-19T14:53:55Z</time>
      </trkpt>
      <trkpt lat="49.44209" lon="1.11498">
        <ele>24</ele>
        <time>2017-12-19T14:53:55Z</time>
      </trkpt>
      <trkpt lat="49.44199" lon="1.11499">
        <ele>17</ele>
        <time>2017-12-19T14:54:18Z</time>
      </trkpt>
      <trkpt lat="49.44197" lon="1.11499">
        <ele>17</ele>
        <time>2017-12-19T14:54:18Z</time>
      </trkpt>
      <trkpt lat="49.44196" lon="1.11501">
        <ele>17</ele>
        <time>2017-12-19T14:54:19Z</time>
      </trkpt>
      <trkpt lat="49.44194" lon="1.11501">
        <ele>17</ele>
        <time>2017-12-19T14:54:19Z</time>
      </trkpt>
      <trkpt lat="49.44192" lon="1.11501">
        <ele>17</ele>
        <time>2017-12-19T14:54:19Z</time>
      </trkpt>
      <trkpt lat="49.44188" lon="1.11503">
        <ele>17</ele>
        <time>2017-12-19T14:54:34Z</time>
      </trkpt>
      <trkpt lat="49.44185" lon="1.11504">
        <ele>17</ele>
        <time>2017-12-19T14:54:35Z</time>
      </trkpt>
      <trkpt lat="49.44181" lon="1.11506">
        <ele>17</ele>
        <time>2017-12-19T14:54:35Z</time>
      </trkpt>
      <trkpt lat="49.44175" lon="1.11504">
        <ele>17</ele>
        <time>2017-12-19T14:54:35Z</time>
      </trkpt>
      <trkpt lat="49.4417" lon="1.11504">
        <ele>17</ele>
        <time>2017-12-19T14:54:50Z</time>
      </trkpt>
      <trkpt lat="49.44165" lon="1.11505">
        <ele>17</ele>
        <time>2017-12-19T14:54:50Z</time>
      </trkpt>
      <trkpt lat="49.4416" lon="1.11509">
        <ele>17</ele>
        <time>2017-12-19T14:54:51Z</time>
      </trkpt>
      <trkpt lat="49.44156" lon="1.11513">
        <ele>17</ele>
        <time>2017-12-19T14:54:51Z</time>
      </trkpt>
      <trkpt lat="49.44152" lon="1.11517">
        <ele>17</ele>
        <time>2017-12-19T14:55:06Z</time>
      </trkpt>
      <trkpt lat="49.4415" lon="1.11524">
        <ele>17</ele>
        <time>2017-12-19T14:55:06Z</time>
      </trkpt>
      <trkpt lat="49.4415" lon="1.11532">
        <ele>17</ele>
        <time>2017-12-19T14:55:07Z</time>
      </trkpt>
      <trkpt lat="49.44151" lon="1.1154">
        <ele>17</ele>
        <time>2017-12-19T14:55:07Z</time>
      </trkpt>
      <trkpt lat="49.44151" lon="1.11547">
        <ele>16</ele>
        <time>2017-12-19T14:55:22Z</time>
      </trkpt>
      <trkpt lat="49.44151" lon="1.11554">
        <ele>16</ele>
        <time>2017-12-19T14:55:22Z</time>
      </trkpt>
      <trkpt lat="49.44152" lon="1.1156">
        <ele>16</ele>
        <time>2017-12-19T14:55:23Z</time>
      </trkpt>
      <trkpt lat="49.44152" lon="1.11567">
        <ele>16</ele>
        <time>2017-12-19T14:55:23Z</time>
      </trkpt>
      <trkpt lat="49.44153" lon="1.11573">
        <ele>16</ele>
        <time>2017-12-19T14:55:38Z</time>
      </trkpt>
      <trkpt lat="49.44153" lon="1.11579">
        <ele>16</ele>
        <time>2017-12-19T14:55:38Z</time>
      </trkpt>
      <trkpt lat="49.44155" lon="1.11586">
        <ele>16</ele>
        <time>2017-12-19T14:55:39Z</time>
      </trkpt>
      <trkpt lat="49.44158" lon="1.11594">
        <ele>16</ele>
        <time>2017-12-19T14:55:39Z</time>
      </trkpt>
      <trkpt lat="49.4416" lon="1.11601">
        <ele>16</ele>
        <time>2017-12-19T14:55:54Z</time>
      </trkpt>
      <trkpt lat="49.44161" lon="1.11608">
        <ele>16</ele>
        <time>2017-12-19T14:55:54Z</time>
      </trkpt>
      <trkpt lat="49.44163" lon="1.11615">
        <ele>16</ele>
        <time>2017-12-19T14:55:55Z</time>
      </trkpt>
      <trkpt lat="49.44163" lon="1.11621">
        <ele>16</ele>
        <time>2017-12-19T14:55:55Z</time>
      </trkpt>
      <trkpt lat="49.44164" lon="1.11628">
        <ele>17</ele>
        <time>2017-12-19T14:56:10Z</time>
      </trkpt>
      <trkpt lat="49.44164" lon="1.11636">
        <ele>17</ele>
        <time>2017-12-19T14:56:10Z</time>
      </trkpt>
      <trkpt lat="49.44164" lon="1.11643">
        <ele>17</ele>
        <time>2017-12-19T14:56:10Z</time>
      </trkpt>
      <trkpt lat="49.44165" lon="1.1165">
        <ele>17</ele>
        <time>2017-12-19T14:56:11Z</time>
      </trkpt>
      <trkpt lat="49.44166" lon="1.11657">
        <ele>17</ele>
        <time>2017-12-19T14:56:26Z</time>
      </trkpt>
      <trkpt lat="49.44166" lon="1.11665">
        <ele>17</ele>
        <time>2017-12-19T14:56:26Z</time>
      </trkpt>
      <trkpt lat="49.44167" lon="1.11672">
        <ele>17</ele>
        <time>2017-12-19T14:56:27Z</time>
      </trkpt>
      <trkpt lat="49.44167" lon="1.11678">
        <ele>17</ele>
        <time>2017-12-19T14:56:27Z</time>
      </trkpt>
      <trkpt lat="49.44167" lon="1.11685">
        <ele>17</ele>
        <time>2017-12-19T14:56:42Z</time>
      </trkpt>
      <trkpt lat="49.44167" lon="1.11692">
        <ele>17</ele>
        <time>2017-12-19T14:56:43Z</time>
      </trkpt>
      <trkpt lat="49.44166" lon="1.11699">
        <ele>17</ele>
        <time>2017-12-19T14:56:43Z</time>
      </trkpt>
      <trkpt lat="49.44165" lon="1.11706">
        <ele>17</ele>
        <time>2017-12-19T14:56:43Z</time>
      </trkpt>
      <trkpt lat="49.44164" lon="1.11713">
        <ele>17</ele>
        <time>2017-12-19T14:56:58Z</time>
      </trkpt>
      <trkpt lat="49.44161" lon="1.1172">
        <ele>17</ele>
        <time>2017-12-19T14:56:58Z</time>
      </trkpt>
      <trkpt lat="49.4416" lon="1.11727">
        <ele>17</ele>
        <time>2017-12-19T14:56:59Z</time>
      </trkpt>
      <trkpt lat="49.44157" lon="1.11733">
        <ele>17</ele>
        <time>2017-12-19T14:56:59Z</time>
      </trkpt>
      <trkpt lat="49.44156" lon="1.11739">
        <ele>17</ele>
        <time>2017-12-19T14:57:14Z</time>
      </trkpt>
      <trkpt lat="49.44152" lon="1.11747">
        <ele>17</ele>
        <time>2017-12-19T14:57:14Z</time>
      </trkpt>
      <trkpt lat="49.44151" lon="1.11754">
        <ele>17</ele>
        <time>2017-12-19T14:57:15Z</time>
      </trkpt>
      <trkpt lat="49.44149" lon="1.1176">
        <ele>17</ele>
        <time>2017-12-19T14:57:15Z</time>
      </trkpt>
      <trkpt lat="49.44148" lon="1.11766">
        <ele>17</ele>
        <time>2017-12-19T14:57:30Z</time>
      </trkpt>
      <trkpt lat="49.44147" lon="1.11773">
        <ele>17</ele>
        <time>2017-12-19T14:57:30Z</time>
      </trkpt>
      <trkpt lat="49.44146" lon="1.1178">
        <ele>17</ele>
        <time>2017-12-19T14:57:31Z</time>
      </trkpt>
      <trkpt lat="49.44146" lon="1.11787">
        <ele>17</ele>
        <time>2017-12-19T14:57:31Z</time>
      </trkpt>
      <trkpt lat="49.44145" lon="1.11795">
        <ele>19</ele>
        <time>2017-12-19T14:57:46Z</time>
      </trkpt>
      <trkpt lat="49.44143" lon="1.11802">
        <ele>19</ele>
        <time>2017-12-19T14:57:47Z</time>
      </trkpt>
      <trkpt lat="49.4414" lon="1.11809">
        <ele>19</ele>
        <time>2017-12-19T14:57:47Z</time>
      </trkpt>
      <trkpt lat="49.44138" lon="1.11816">
        <ele>19</ele>
        <time>2017-12-19T14:57:47Z</time>
      </trkpt>
      <trkpt lat="49.44136" lon="1.11823">
        <ele>19</ele>
        <time>2017-12-19T14:58:02Z</time>
      </trkpt>
      <trkpt lat="49.44135" lon="1.1183">
        <ele>19</ele>
        <time>2017-12-19T14:58:02Z</time>
      </trkpt>
      <trkpt lat="49.44132" lon="1.11836">
        <ele>19</ele>
        <time>2017-12-19T14:58:03Z</time>
      </trkpt>
      <trkpt lat="49.44129" lon="1.11843">
        <ele>19</ele>
        <time>2017-12-19T14:58:03Z</time>
      </trkpt>
      <trkpt lat="49.44128" lon="1.1185">
        <ele>19</ele>
        <time>2017-12-19T14:58:18Z</time>
      </trkpt>
      <trkpt lat="49.44128" lon="1.11857">
        <ele>19</ele>
        <time>2017-12-19T14:58:18Z</time>
      </trkpt>
      <trkpt lat="49.44127" lon="1.11864">
        <ele>19</ele>
        <time>2017-12-19T14:58:18Z</time>
      </trkpt>
      <trkpt lat="49.44125" lon="1.11872">
        <ele>10</ele>
        <time>2017-12-19T14:58:19Z</time>
      </trkpt>
      <trkpt lat="49.44123" lon="1.11879">
        <ele>12</ele>
        <time>2017-12-19T14:58:34Z</time>
      </trkpt>
      <trkpt lat="49.4412" lon="1.11886">
        <ele>12</ele>
        <time>2017-12-19T14:58:34Z</time>
      </trkpt>
      <trkpt lat="49.44118" lon="1.11892">
        <ele>12</ele>
        <time>2017-12-19T14:58:35Z</time>
      </trkpt>
      <trkpt lat="49.44116" lon="1.11899">
        <ele>12</ele>
        <time>2017-12-19T14:58:35Z</time>
      </trkpt>
      <trkpt lat="49.44113" lon="1.11905">
        <ele>12</ele>
        <time>2017-12-19T14:58:50Z</time>
      </trkpt>
      <trkpt lat="49.44111" lon="1.11912">
        <ele>12</ele>
        <time>2017-12-19T14:58:50Z</time>
      </trkpt>
      <trkpt lat="49.4411" lon="1.11919">
        <ele>12</ele>
        <time>2017-12-19T14:58:51Z</time>
      </trkpt>
      <trkpt lat="49.44109" lon="1.11926">
        <ele>12</ele>
        <time>2017-12-19T14:58:51Z</time>
      </trkpt>
      <trkpt lat="49.44106" lon="1.1193">
        <ele>12</ele>
        <time>2017-12-19T14:59:06Z</time>
      </trkpt>
      <trkpt lat="49.44104" lon="1.11937">
        <ele>12</ele>
        <time>2017-12-19T14:59:06Z</time>
      </trkpt>
      <trkpt lat="49.44102" lon="1.11945">
        <ele>12</ele>
        <time>2017-12-19T14:59:06Z</time>
      </trkpt>
      <trkpt lat="49.441" lon="1.11952">
        <ele>12</ele>
        <time>2017-12-19T14:59:07Z</time>
      </trkpt>
      <trkpt lat="49.44097" lon="1.11955">
        <ele>12</ele>
        <time>2017-12-19T14:59:22Z</time>
      </trkpt>
      <trkpt lat="49.44096" lon="1.11957">
        <ele>12</ele>
        <time>2017-12-19T14:59:22Z</time>
      </trkpt>
      <trkpt lat="49.44095" lon="1.11963">
        <ele>16</ele>
        <time>2017-12-19T14:59:23Z</time>
      </trkpt>
      <trkpt lat="49.44097" lon="1.11971">
        <ele>16</ele>
        <time>2017-12-19T14:59:23Z</time>
      </trkpt>
      <trkpt lat="49.44092" lon="1.11981">
        <ele>16</ele>
        <time>2017-12-19T14:59:38Z</time>
      </trkpt>
      <trkpt lat="49.44089" lon="1.1199">
        <ele>16</ele>
        <time>2017-12-19T14:59:39Z</time>
      </trkpt>
      <trkpt lat="49.44086" lon="1.12">
        <ele>16</ele>
        <time>2017-12-19T14:59:39Z</time>
      </trkpt>
      <trkpt lat="49.44085" lon="1.12008">
        <ele>16</ele>
        <time>2017-12-19T14:59:39Z</time>
      </trkpt>
      <trkpt lat="49.44083" lon="1.12015">
        <ele>16</ele>
        <time>2017-12-19T14:59:54Z</time>
      </trkpt>
      <trkpt lat="49.44082" lon="1.12022">
        <ele>16</ele>
        <time>2017-12-19T14:59:54Z</time>
      </trkpt>
      <trkpt lat="49.44081" lon="1.12028">
        <ele>16</ele>
        <time>2017-12-19T14:59:55Z</time>
      </trkpt>
      <trkpt lat="49.4408" lon="1.12036">
        <ele>16</ele>
        <time>2017-12-19T14:59:55Z</time>
      </trkpt>
      <trkpt lat="49.44078" lon="1.12042">
        <ele>20</ele>
        <time>2017-12-19T15:00:10Z</time>
      </trkpt>
      <trkpt lat="49.44078" lon="1.12049">
        <ele>20</ele>
        <time>2017-12-19T15:00:10Z</time>
      </trkpt>
      <trkpt lat="49.44077" lon="1.12056">
        <ele>20</ele>
        <time>2017-12-19T15:00:11Z</time>
      </trkpt>
      <trkpt lat="49.44076" lon="1.12062">
        <ele>20</ele>
        <time>2017-12-19T15:00:11Z</time>
      </trkpt>
      <trkpt lat="49.44073" lon="1.12067">
        <ele>20</ele>
        <time>2017-12-19T15:00:26Z</time>
      </trkpt>
      <trkpt lat="49.4407" lon="1.12073">
        <ele>20</ele>
        <time>2017-12-19T15:00:27Z</time>
      </trkpt>
      <trkpt lat="49.44068" lon="1.1208">
        <ele>20</ele>
        <time>2017-12-19T15:00:27Z</time>
      </trkpt>
      <trkpt lat="49.44066" lon="1.12086">
        <ele>20</ele>
        <time>2017-12-19T15:00:27Z</time>
      </trkpt>
      <trkpt lat="49.44063" lon="1.1209">
        <ele>20</ele>
        <time>2017-12-19T15:00:42Z</time>
      </trkpt>
      <trkpt lat="49.44061" lon="1.12095">
        <ele>20</ele>
        <time>2017-12-19T15:00:42Z</time>
      </trkpt>
      <trkpt lat="49.4406" lon="1.12101">
        <ele>20</ele>
        <time>2017-12-19T15:00:43Z</time>
      </trkpt>
      <trkpt lat="49.44058" lon="1.12106">
        <ele>20</ele>
        <time>2017-12-19T15:00:43Z</time>
      </trkpt>
      <trkpt lat="49.44055" lon="1.12112">
        <ele>20</ele>
        <time>2017-12-19T15:00:58Z</time>
      </trkpt>
      <trkpt lat="49.44053" lon="1.12119">
        <ele>20</ele>
        <time>2017-12-19T15:00:58Z</time>
      </trkpt>
      <trkpt lat="49.44051" lon="1.12125">
        <ele>20</ele>
        <time>2017-12-19T15:00:59Z</time>
      </trkpt>
      <trkpt lat="49.4405" lon="1.12131">
        <ele>22</ele>
        <time>2017-12-19T15:00:59Z</time>
      </trkpt>
      <trkpt lat="49.44048" lon="1.12137">
        <ele>22</ele>
        <time>2017-12-19T15:01:14Z</time>
      </trkpt>
      <trkpt lat="49.44046" lon="1.12144">
        <ele>22</ele>
        <time>2017-12-19T15:01:14Z</time>
      </trkpt>
      <trkpt lat="49.44044" lon="1.1215">
        <ele>22</ele>
        <time>2017-12-19T15:01:15Z</time>
      </trkpt>
      <trkpt lat="49.44043" lon="1.12158">
        <ele>22</ele>
        <time>2017-12-19T15:01:15Z</time>
      </trkpt>
      <trkpt lat="49.44043" lon="1.12165">
        <ele>22</ele>
        <time>2017-12-19T15:01:30Z</time>
      </trkpt>
      <trkpt lat="49.44042" lon="1.12172">
        <ele>22</ele>
        <time>2017-12-19T15:01:30Z</time>
      </trkpt>
      <trkpt lat="49.4404" lon="1.12178">
        <ele>10</ele>
        <time>2017-12-19T15:01:31Z</time>
      </trkpt>
      <trkpt lat="49.44038" lon="1.12185">
        <ele>10</ele>
        <time>2017-12-19T15:01:31Z</time>
      </trkpt>
      <trkpt lat="49.44037" lon="1.12192">
        <ele>10</ele>
        <time>2017-12-19T15:01:46Z</time>
      </trkpt>
      <trkpt lat="49.44036" lon="1.122">
        <ele>10</ele>
        <time>2017-12-19T15:01:46Z</time>
      </trkpt>
      <trkpt lat="49.44036" lon="1.12207">
        <ele>10</ele>
        <time>2017-12-19T15:01:47Z</time>
      </trkpt>
      <trkpt lat="49.44035" lon="1.12215">
        <ele>11</ele>
        <time>2017-12-19T15:01:47Z</time>
      </trkpt>
      <trkpt lat="49.44034" lon="1.12222">
        <ele>11</ele>
        <time>2017-12-19T15:02:02Z</time>
      </trkpt>
      <trkpt lat="49.44032" lon="1.12229">
        <ele>11</ele>
        <time>2017-12-19T15:02:02Z</time>
      </trkpt>
      <trkpt lat="49.4403" lon="1.12236">
        <ele>11</ele>
        <time>2017-12-19T15:02:03Z</time>
      </trkpt>
      <trkpt lat="49.44029" lon="1.12243">
        <ele>11</ele>
        <time>2017-12-19T15:02:03Z</time>
      </trkpt>
      <trkpt lat="49.44029" lon="1.12249">
        <ele>11</ele>
        <time>2017-12-19T15:02:18Z</time>
      </trkpt>
      <trkpt lat="49.44029" lon="1.12257">
        <ele>11</ele>
        <time>2017-12-19T15:02:19Z</time>
      </trkpt>
      <trkpt lat="49.44029" lon="1.12262">
        <ele>11</ele>
        <time>2017-12-19T15:02:19Z</time>
      </trkpt>
      <trkpt lat="49.44029" lon="1.12271">
        <ele>11</ele>
        <time>2017-12-19T15:02:19Z</time>
      </trkpt>
      <trkpt lat="49.44028" lon="1.12277">
        <ele>11</ele>
        <time>2017-12-19T15:02:34Z</time>
      </trkpt>
      <trkpt lat="49.44026" lon="1.12284">
        <ele>11</ele>
        <time>2017-12-19T15:02:34Z</time>
      </trkpt>
      <trkpt lat="49.44026" lon="1.12291">
        <ele>11</ele>
        <time>2017-12-19T15:02:35Z</time>
      </trkpt>
      <trkpt lat="49.44025" lon="1.12298">
        <ele>13</ele>
        <time>2017-12-19T15:02:35Z</time>
      </trkpt>
      <trkpt lat="49.44023" lon="1.12305">
        <ele>13</ele>
        <time>2017-12-19T15:02:50Z</time>
      </trkpt>
      <trkpt lat="49.44021" lon="1.12311">
        <ele>13</ele>
        <time>2017-12-19T15:02:50Z</time>
      </trkpt>
      <trkpt lat="49.44019" lon="1.12319">
        <ele>13</ele>
        <time>2017-12-19T15:02:51Z</time>
      </trkpt>
      <trkpt lat="49.44017" lon="1.12324">
        <ele>13</ele>
        <time>2017-12-19T15:02:51Z</time>
      </trkpt>
      <trkpt lat="49.44015" lon="1.1233">
        <ele>13</ele>
        <time>2017-12-19T15:03:06Z</time>
      </trkpt>
      <trkpt lat="49.44013" lon="1.12337">
        <ele>13</ele>
        <time>2017-12-19T15:03:06Z</time>
      </trkpt>
      <trkpt lat="49.44012" lon="1.12344">
        <ele>13</ele>
        <time>2017-12-19T15:03:07Z</time>
      </trkpt>
      <trkpt lat="49.44011" lon="1.12352">
        <ele>13</ele>
        <time>2017-12-19T15:03:07Z</time>
      </trkpt>
      <trkpt lat="49.44009" lon="1.12359">
        <ele>13</ele>
        <time>2017-12-19T15:03:22Z</time>
      </trkpt>
      <trkpt lat="49.44007" lon="1.12366">
        <ele>13</ele>
        <time>2017-12-19T15:03:22Z</time>
      </trkpt>
      <trkpt lat="49.44007" lon="1.12374">
        <ele>13</ele>
        <time>2017-12-19T15:03:23Z</time>
      </trkpt>
      <trkpt lat="49.44006" lon="1.12381">
        <ele>15</ele>
        <time>2017-12-19T15:03:23Z</time>
      </trkpt>
      <trkpt lat="49.44007" lon="1.12388">
        <ele>15</ele>
        <time>2017-12-19T15:03:38Z</time>
      </trkpt>
      <trkpt lat="49.44006" lon="1.12395">
        <ele>15</ele>
        <time>2017-12-19T15:03:38Z</time>
      </trkpt>
      <trkpt lat="49.44004" lon="1.12403">
        <ele>15</ele>
        <time>2017-12-19T15:03:39Z</time>
      </trkpt>
      <trkpt lat="49.44002" lon="1.1241">
        <ele>15</ele>
        <time>2017-12-19T15:03:39Z</time>
      </trkpt>
      <trkpt lat="49.44001" lon="1.12417">
        <ele>15</ele>
        <time>2017-12-19T15:03:54Z</time>
      </trkpt>
      <trkpt lat="49.44001" lon="1.12423">
        <ele>15</ele>
        <time>2017-12-19T15:03:54Z</time>
      </trkpt>
      <trkpt lat="49.44" lon="1.1243">
        <ele>15</ele>
        <time>2017-12-19T15:03:55Z</time>
      </trkpt>
      <trkpt lat="49.43998" lon="1.12435">
        <ele>15</ele>
        <time>2017-12-19T15:03:55Z</time>
      </trkpt>
      <trkpt lat="49.43997" lon="1.12441">
        <ele>15</ele>
        <time>2017-12-19T15:04:10Z</time>
      </trkpt>
      <trkpt lat="49.43996" lon="1.12448">
        <ele>15</ele>
        <time>2017-12-19T15:04:10Z</time>
      </trkpt>
      <trkpt lat="49.43995" lon="1.12455">
        <ele>15</ele>
        <time>2017-12-19T15:04:11Z</time>
      </trkpt>
      <trkpt lat="49.43994" lon="1.12463">
        <ele>20</ele>
        <time>2017-12-19T15:04:11Z</time>
      </trkpt>
      <trkpt lat="49.43993" lon="1.1247">
        <ele>20</ele>
        <time>2017-12-19T15:04:26Z</time>
      </trkpt>
      <trkpt lat="49.43992" lon="1.12477">
        <ele>20</ele>
        <time>2017-12-19T15:04:26Z</time>
      </trkpt>
      <trkpt lat="49.43991" lon="1.12483">
        <ele>20</ele>
        <time>2017-12-19T15:04:26Z</time>
      </trkpt>
      <trkpt lat="49.4399" lon="1.12492">
        <ele>20</ele>
        <time>2017-12-19T15:04:26Z</time>
      </trkpt>
      <trkpt lat="49.43989" lon="1.12499">
        <ele>20</ele>
        <time>2017-12-19T15:04:42Z</time>
      </trkpt>
      <trkpt lat="49.43988" lon="1.12506">
        <ele>20</ele>
        <time>2017-12-19T15:04:42Z</time>
      </trkpt>
      <trkpt lat="49.43987" lon="1.12513">
        <ele>20</ele>
        <time>2017-12-19T15:04:43Z</time>
      </trkpt>
      <trkpt lat="49.43986" lon="1.1252">
        <ele>20</ele>
        <time>2017-12-19T15:04:43Z</time>
      </trkpt>
      <trkpt lat="49.43984" lon="1.12527">
        <ele>20</ele>
        <time>2017-12-19T15:04:58Z</time>
      </trkpt>
      <trkpt lat="49.43983" lon="1.12535">
        <ele>20</ele>
        <time>2017-12-19T15:04:58Z</time>
      </trkpt>
      <trkpt lat="49.43981" lon="1.12541">
        <ele>20</ele>
        <time>2017-12-19T15:04:59Z</time>
      </trkpt>
      <trkpt lat="49.43979" lon="1.12548">
        <ele>21</ele>
        <time>2017-12-19T15:04:59Z</time>
      </trkpt>
      <trkpt lat="49.43977" lon="1.12554">
        <ele>21</ele>
        <time>2017-12-19T15:05:14Z</time>
      </trkpt>
      <trkpt lat="49.43976" lon="1.12561">
        <ele>21</ele>
        <time>2017-12-19T15:05:14Z</time>
      </trkpt>
      <trkpt lat="49.43975" lon="1.12568">
        <ele>21</ele>
        <time>2017-12-19T15:05:15Z</time>
      </trkpt>
      <trkpt lat="49.43973" lon="1.12575">
        <ele>21</ele>
        <time>2017-12-19T15:05:15Z</time>
      </trkpt>
      <trkpt lat="49.43972" lon="1.1258">
        <ele>21</ele>
        <time>2017-12-19T15:05:30Z</time>
      </trkpt>
      <trkpt lat="49.43971" lon="1.12586">
        <ele>21</ele>
        <time>2017-12-19T15:05:30Z</time>
      </trkpt>
      <trkpt lat="49.43968" lon="1.12593">
        <ele>21</ele>
        <time>2017-12-19T15:05:31Z</time>
      </trkpt>
      <trkpt lat="49.43966" lon="1.12599">
        <ele>21</ele>
        <time>2017-12-19T15:05:31Z</time>
      </trkpt>
      <trkpt lat="49.43964" lon="1.12606">
        <ele>21</ele>
        <time>2017-12-19T15:05:46Z</time>
      </trkpt>
      <trkpt lat="49.43962" lon="1.12612">
        <ele>21</ele>
        <time>2017-12-19T15:05:46Z</time>
      </trkpt>
      <trkpt lat="49.43959" lon="1.12618">
        <ele>21</ele>
        <time>2017-12-19T15:05:47Z</time>
      </trkpt>
      <trkpt lat="49.43956" lon="1.12624">
        <ele>13</ele>
        <time>2017-12-19T15:05:47Z</time>
      </trkpt>
      <trkpt lat="49.43953" lon="1.12631">
        <ele>13</ele>
        <time>2017-12-19T15:06:02Z</time>
      </trkpt>
      <trkpt lat="49.4395" lon="1.12637">
        <ele>13</ele>
        <time>2017-12-19T15:06:03Z</time>
      </trkpt>
      <trkpt lat="49.43947" lon="1.12643">
        <ele>13</ele>
        <time>2017-12-19T15:06:03Z</time>
      </trkpt>
      <trkpt lat="49.43944" lon="1.12649">
        <ele>13</ele>
        <time>2017-12-19T15:06:03Z</time>
      </trkpt>
      <trkpt lat="49.43942" lon="1.12656">
        <ele>13</ele>
        <time>2017-12-19T15:06:18Z</time>
      </trkpt>
      <trkpt lat="49.43939" lon="1.12662">
        <ele>13</ele>
        <time>2017-12-19T15:06:18Z</time>
      </trkpt>
      <trkpt lat="49.43935" lon="1.12667">
        <ele>13</ele>
        <time>2017-12-19T15:06:18Z</time>
      </trkpt>
      <trkpt lat="49.43933" lon="1.12673">
        <ele>13</ele>
        <time>2017-12-19T15:06:19Z</time>
      </trkpt>
      <trkpt lat="49.4393" lon="1.12679">
        <ele>13</ele>
        <time>2017-12-19T15:06:34Z</time>
      </trkpt>
      <trkpt lat="49.43927" lon="1.12684">
        <ele>13</ele>
        <time>2017-12-19T15:06:34Z</time>
      </trkpt>
      <trkpt lat="49.43924" lon="1.12689">
        <ele>13</ele>
        <time>2017-12-19T15:06:35Z</time>
      </trkpt>
      <trkpt lat="49.43921" lon="1.12695">
        <ele>13</ele>
        <time>2017-12-19T15:06:35Z</time>
      </trkpt>
      <trkpt lat="49.43918" lon="1.12701">
        <ele>13</ele>
        <time>2017-12-19T15:06:50Z</time>
      </trkpt>
      <trkpt lat="49.43916" lon="1.12707">
        <ele>13</ele>
        <time>2017-12-19T15:06:50Z</time>
      </trkpt>
      <trkpt lat="49.43913" lon="1.12712">
        <ele>13</ele>
        <time>2017-12-19T15:06:51Z</time>
      </trkpt>
      <trkpt lat="49.43911" lon="1.12718">
        <ele>13</ele>
        <time>2017-12-19T15:06:51Z</time>
      </trkpt>
      <trkpt lat="49.4391" lon="1.12725">
        <ele>13</ele>
        <time>2017-12-19T15:07:06Z</time>
      </trkpt>
      <trkpt lat="49.43908" lon="1.12731">
        <ele>13</ele>
        <time>2017-12-19T15:07:06Z</time>
      </trkpt>
      <trkpt lat="49.43906" lon="1.12738">
        <ele>13</ele>
        <time>2017-12-19T15:07:07Z</time>
      </trkpt>
      <trkpt lat="49.43906" lon="1.12744">
        <ele>13</ele>
        <time>2017-12-19T15:07:07Z</time>
      </trkpt>
      <trkpt lat="49.43904" lon="1.1275">
        <ele>13</ele>
        <time>2017-12-19T15:07:22Z</time>
      </trkpt>
      <trkpt lat="49.43902" lon="1.12756">
        <ele>13</ele>
        <time>2017-12-19T15:07:22Z</time>
      </trkpt>
      <trkpt lat="49.43903" lon="1.12763">
        <ele>13</ele>
        <time>2017-12-19T15:07:23Z</time>
      </trkpt>
      <trkpt lat="49.43906" lon="1.12769">
        <ele>13</ele>
        <time>2017-12-19T15:07:23Z</time>
      </trkpt>
      <trkpt lat="49.43909" lon="1.12774">
        <ele>13</ele>
        <time>2017-12-19T15:07:38Z</time>
      </trkpt>
      <trkpt lat="49.43913" lon="1.12775">
        <ele>13</ele>
        <time>2017-12-19T15:07:38Z</time>
      </trkpt>
      <trkpt lat="49.43916" lon="1.12777">
        <ele>13</ele>
        <time>2017-12-19T15:07:39Z</time>
      </trkpt>
      <trkpt lat="49.43919" lon="1.12778">
        <ele>13</ele>
        <time>2017-12-19T15:07:39Z</time>
      </trkpt>
      <trkpt lat="49.43921" lon="1.12779">
        <ele>13</ele>
        <time>2017-12-19T15:07:54Z</time>
      </trkpt>
      <trkpt lat="49.43926" lon="1.1278">
        <ele>13</ele>
        <time>2017-12-19T15:07:54Z</time>
      </trkpt>
      <trkpt lat="49.4393" lon="1.12781">
        <ele>13</ele>
        <time>2017-12-19T15:07:55Z</time>
      </trkpt>
      <trkpt lat="49.43935" lon="1.12783">
        <ele>13</ele>
        <time>2017-12-19T15:07:55Z</time>
      </trkpt>
      <trkpt lat="49.4394" lon="1.12784">
        <ele>13</ele>
        <time>2017-12-19T15:08:10Z</time>
      </trkpt>
      <trkpt lat="49.43944" lon="1.12786">
        <ele>13</ele>
        <time>2017-12-19T15:08:10Z</time>
      </trkpt>
      <trkpt lat="49.43949" lon="1.12788">
        <ele>13</ele>
        <time>2017-12-19T15:08:11Z</time>
      </trkpt>
      <trkpt lat="49.43953" lon="1.1279">
        <ele>13</ele>
        <time>2017-12-19T15:08:11Z</time>
      </trkpt>
      <trkpt lat="49.43957" lon="1.12794">
        <ele>14</ele>
        <time>2017-12-19T15:08:26Z</time>
      </trkpt>
      <trkpt lat="49.43961" lon="1.128">
        <ele>20</ele>
        <time>2017-12-19T15:08:26Z</time>
      </trkpt>
      <trkpt lat="49.43964" lon="1.12806">
        <ele>20</ele>
        <time>2017-12-19T15:08:27Z</time>
      </trkpt>
      <trkpt lat="49.43966" lon="1.12812">
        <ele>20</ele>
        <time>2017-12-19T15:08:27Z</time>
      </trkpt>
      <trkpt lat="49.43968" lon="1.12818">
        <ele>20</ele>
        <time>2017-12-19T15:08:42Z</time>
      </trkpt>
      <trkpt lat="49.43967" lon="1.12824">
        <ele>20</ele>
        <time>2017-12-19T15:08:42Z</time>
      </trkpt>
      <trkpt lat="49.43966" lon="1.12831">
        <ele>20</ele>
        <time>2017-12-19T15:08:43Z</time>
      </trkpt>
      <trkpt lat="49.43964" lon="1.12837">
        <ele>20</ele>
        <time>2017-12-19T15:08:43Z</time>
      </trkpt>
      <trkpt lat="49.43963" lon="1.12843">
        <ele>20</ele>
        <time>2017-12-19T15:09:02Z</time>
      </trkpt>
      <trkpt lat="49.43962" lon="1.12848">
        <ele>20</ele>
        <time>2017-12-19T15:09:02Z</time>
      </trkpt>
      <trkpt lat="49.43959" lon="1.12849">
        <ele>20</ele>
        <time>2017-12-19T15:09:03Z</time>
      </trkpt>
      <trkpt lat="49.43956" lon="1.12848">
        <ele>14</ele>
        <time>2017-12-19T15:09:03Z</time>
      </trkpt>
      <trkpt lat="49.43954" lon="1.12846">
        <ele>14</ele>
        <time>2017-12-19T15:09:03Z</time>
      </trkpt>
      <trkpt lat="49.4395" lon="1.12844">
        <ele>14</ele>
        <time>2017-12-19T15:09:18Z</time>
      </trkpt>
      <trkpt lat="49.43947" lon="1.12842">
        <ele>14</ele>
        <time>2017-12-19T15:09:18Z</time>
      </trkpt>
      <trkpt lat="49.43943" lon="1.12839">
        <ele>14</ele>
        <time>2017-12-19T15:09:19Z</time>
      </trkpt>
      <trkpt lat="49.43939" lon="1.12837">
        <ele>14</ele>
        <time>2017-12-19T15:09:19Z</time>
      </trkpt>
      <trkpt lat="49.43934" lon="1.12837">
        <ele>14</ele>
        <time>2017-12-19T15:09:34Z</time>
      </trkpt>
      <trkpt lat="49.43929" lon="1.12836">
        <ele>14</ele>
        <time>2017-12-19T15:09:34Z</time>
      </trkpt>
      <trkpt lat="49.43925" lon="1.12834">
        <ele>14</ele>
        <time>2017-12-19T15:09:35Z</time>
      </trkpt>
      <trkpt lat="49.43922" lon="1.12834">
        <ele>14</ele>
        <time>2017-12-19T15:09:35Z</time>
      </trkpt>
      <trkpt lat="49.43918" lon="1.12833">
        <ele>14</ele>
        <time>2017-12-19T15:09:50Z</time>
      </trkpt>
      <trkpt lat="49.43914" lon="1.12831">
        <ele>14</ele>
        <time>2017-12-19T15:09:50Z</time>
      </trkpt>
      <trkpt lat="49.4391" lon="1.12832">
        <ele>14</ele>
        <time>2017-12-19T15:09:51Z</time>
      </trkpt>
      <trkpt lat="49.43907" lon="1.12838">
        <ele>14</ele>
        <time>2017-12-19T15:09:51Z</time>
      </trkpt>
      <trkpt lat="49.43906" lon="1.12851">
        <ele>14</ele>
        <time>2017-12-19T15:11:50Z</time>
      </trkpt>
      <trkpt lat="49.43905" lon="1.12853">
        <ele>14</ele>
        <time>2017-12-19T15:11:50Z</time>
      </trkpt>
      <trkpt lat="49.43905" lon="1.12853">
        <ele>14</ele>
        <time>2017-12-19T15:11:51Z</time>
      </trkpt>
      <trkpt lat="49.43908" lon="1.12855">
        <ele>14</ele>
        <time>2017-12-19T15:11:51Z</time>
      </trkpt>
      <trkpt lat="49.43912" lon="1.12858">
        <ele>14</ele>
        <time>2017-12-19T15:11:51Z</time>
      </trkpt>
    </trkseg>
  </trk>
</gpx>